GFSMA_sfc_temp_000.txt.gz
Temp
78 79 78 79 78 78 77 76 76 75 73 73 73 73 73 74 75 79 80 63 63 64 66 68 68 69 69 69 69 69 69 68 70 70 70 69 69 69 69 69 68 68 68
77 78 78 79 79 79 79 77 76 75 75 74 73 73 73 74 74 74 79 74 62 63 64 66 67 67 68 68 68 68 69 69 68 70 69 68 68 68 68 68 68 68 68
78 77 78 78 79 79 76 76 74 74 74 75 72 73 73 72 74 73 75 77 70 61 62 64 65 65 66 67 67 68 68 68 69 69 69 68 68 68 68 68 68 68 68
77 76 77 77 78 77 77 76 75 74 73 73 73 74 74 74 73 72 74 74 76 77 63 62 63 63 64 65 66 67 68 68 68 68 69 67 67 67 67 67 67 67 67
77 76 77 77 76 76 76 75 74 73 72 73 73 74 74 74 73 75 74 72 72 74 76 60 61 61 62 63 64 66 67 68 68 69 69 69 66 67 67 67 66 66 66
76 75 76 75 75 74 74 75 72 74 73 72 74 74 73 73 74 73 73 74 74 72 73 72 72 70 61 62 63 64 65 66 67 68 68 66 66 66 65 65 66 66 67
75 73 74 74 74 73 72 71 71 70 70 72 68 69 71 72 70 72 73 74 73 72 72 72 73 75 72 63 63 63 64 64 65 66 67 66 65 64 64 64 64 65 65
73 73 72 72 72 72 70 70 69 68 69 71 66 66 63 68 71 70 72 72 70 73 71 70 69 68 69 72 66 60 61 61 62 64 65 66 66 64 64 64 64 65 65
72 71 71 70 69 69 69 69 69 67 66 69 69 64 61 60 66 72 68 70 69 68 70 68 67 67 67 68 64 63 56 55 58 61 63 64 65 64 64 64 63 64 65
70 70 69 68 67 68 66 67 69 67 66 64 68 69 66 65 59 58 66 66 68 66 66 67 66 66 66 67 62 57 53 52 54 58 61 62 64 65 64 64 63 62 62
69 69 66 65 65 66 65 63 63 63 63 63 63 63 59 62 62 57 58 59 65 66 66 64 64 64 65 65 66 59 52 51 53 56 57 60 62 63 64 63 63 63 62
67 66 64 64 63 62 62 61 60 58 58 57 57 55 55 47 51 54 55 58 59 62 63 63 62 63 64 65 63 52 52 50 52 54 55 57 58 60 62 63 63 63 62
63 63 61 61 62 61 60 61 59 57 52 50 48 46 44 42 42 42 45 48 47 56 58 61 62 63 63 63 63 54 53 50 50 51 51 52 54 55 56 58 60 61 61
61 60 60 60 60 60 59 58 53 50 52 51 49 46 45 46 43 39 38 38 37 41 50 52 62 61 62 62 59 52 59 50 50 49 50 51 51 51 52 53 54 57 58
60 59 58 58 57 57 56 54 51 48 48 47 49 49 48 47 44 44 44 44 39 38 43 52 55 61 61 61 59 60 60 53 50 50 48 50 50 51 51 52 52 52 54
58 57 56 56 55 54 52 51 49 48 47 47 47 48 50 52 52 51 50 49 49 46 43 52 55 57 59 60 58 58 58 52 48 48 49 48 49 50 50 50 50 50 50
56 56 55 54 52 47 45 45 46 48 49 49 50 50 50 51 51 52 52 52 50 50 46 50 54 56 55 55 56 57 57 57 58 47 46 48 47 47 47 48 48 48 48
53 53 50 46 46 46 47 47 48 49 49 48 49 49 48 51 49 49 50 48 48 50 47 45 50 52 52 55 55 54 56 58 58 53 46 46 46 46 46 46 46 45 45
47 46 47 46 46 46 48 49 49 49 49 48 48 47 47 47 46 47 47 46 47 48 48 46 46 50 51 53 52 53 53 54 56 51 46 44 45 45 45 45 45 45 45
49 50 50 49 48 48 48 49 49 48 47 47 46 45 45 44 44 44 44 44 45 45 45 45 45 46 48 50 50 48 47 51 51 55 51 47 46 46 45 45 45 45 44
50 50 49 48 48 48 48 44 46 46 45 45 44 45 44 43 39 39 40 41 42 42 43 43 43 44 44 45 44 47 45 47 48 50 50 51 52 53 52 46 48 45 45
49 48 47 47 46 47 36 36 38 42 43 43 43 44 44 41 41 38 37 36 37 37 39 39 38 37 40 41 43 41 40 39 37 48 46 45 48 48 52 53 48 45 44
47 46 45 45 44 44 35 35 34 39 40 41 41 41 41 43 39 41 38 36 35 35 33 34 32 34 35 38 39 37 38 37 38 44 44 40 44 41 45 50 44 43 42
45 45 44 43 42 43 35 33 32 37 38 39 39 40 39 40 40 37 36 35 35 37 38 38 37 37 39 40 40 41 40 39 39 42 43 34 39 39 42 43 43 43 42
44 43 42 41 40 40 35 32 32 34 35 35 38 39 37 34 34 34 33 31 34 36 38 37 37 36 36 36 37 38 34 34 32 37 42 39 38 38 40 40 43 42 41
43 42 39 39 36 36 34 32 32 32 30 31 33 34 33 35 33 33 31 31 30 34 36 37 38 36 36 38 35 37 37 32 33 33 40 37 38 38 33 42 43 43 43

GFSMA_sfc_temp_003.txt.gz
Temp
79 80 79 80 80 81 80 79 78 78 76 75 75 74 75 75 75 77 79 65 65 65 67 69 69 69 69 69 69 69 69 69 69 68 69 69 69 69 69 69 68 69 68
79 79 79 80 80 81 81 79 78 77 76 76 75 74 74 75 76 75 78 71 64 64 66 67 68 68 68 68 68 68 68 68 68 68 67 68 68 68 68 68 68 68 69
79 78 78 78 80 80 78 79 78 78 76 77 75 75 74 73 74 74 75 77 69 62 64 66 66 66 67 67 67 67 68 68 68 68 67 67 67 67 67 67 68 68 68
79 78 78 78 79 78 78 78 77 76 76 76 75 75 76 75 74 74 74 74 76 74 64 63 65 65 65 66 66 67 68 68 68 68 68 66 65 67 67 66 67 67 68
80 78 78 78 78 78 77 77 77 76 75 75 75 76 75 75 75 76 74 73 73 75 75 63 63 63 64 64 65 66 66 67 67 68 68 68 67 66 67 66 66 67 67
78 77 77 76 77 76 76 77 75 76 75 74 75 75 75 76 76 75 74 75 74 73 73 71 67 66 62 63 64 65 66 66 67 67 67 69 67 65 66 66 66 66 66
77 75 76 76 75 74 74 74 73 71 72 74 72 71 72 73 73 74 75 75 74 74 72 72 73 74 67 63 64 65 64 65 65 66 67 66 67 65 64 64 65 65 66
75 74 73 73 73 72 72 71 70 70 71 72 68 67 61 66 72 73 73 73 71 75 73 72 71 71 72 70 66 63 63 63 63 64 65 65 66 65 65 64 64 64 65
74 73 72 72 71 71 70 70 70 68 66 69 69 65 58 58 65 72 71 71 70 72 73 72 69 70 69 69 64 63 58 57 59 62 64 64 65 65 64 64 64 64 63
73 73 72 70 68 69 67 68 69 66 65 62 66 68 66 63 56 56 67 66 69 66 69 71 70 68 67 67 65 57 55 54 55 59 62 63 63 64 65 65 64 64 63
71 71 70 68 66 66 66 64 63 62 62 61 60 60 59 59 59 52 49 58 65 66 61 61 67 67 66 66 66 61 54 52 54 57 60 61 62 63 64 65 64 64 63
68 68 68 66 65 64 63 62 62 60 56 56 55 53 50 48 47 47 46 52 54 54 56 61 60 63 64 65 64 53 53 51 53 55 56 59 59 61 62 63 64 64 64
64 64 63 62 62 63 63 61 56 52 48 45 47 48 50 46 45 44 39 39 41 48 47 52 53 57 62 63 63 58 52 51 51 52 53 54 55 55 57 59 61 62 63
62 63 62 61 61 61 58 56 55 54 52 50 48 47 48 47 45 43 39 39 38 39 43 46 55 55 55 61 55 54 57 50 51 51 51 53 53 52 53 54 55 56 57
62 61 61 60 57 57 53 52 51 49 49 49 48 48 48 48 46 48 47 45 39 35 42 49 49 56 56 59 59 59 60 51 50 51 49 51 52 52 52 53 53 53 54
60 58 57 54 52 52 51 48 49 49 48 49 49 50 49 50 51 50 49 48 46 42 38 49 51 55 58 60 59 59 59 52 49 48 49 51 51 51 51 51 51 52 52
55 52 51 50 49 47 47 46 48 48 47 47 48 49 49 50 50 51 51 50 50 50 45 49 54 56 56 56 57 59 58 57 57 47 47 47 48 48 48 48 48 49 49
52 51 49 48 47 46 46 46 46 47 47 47 47 47 47 50 49 50 50 48 49 50 47 45 50 51 52 55 56 55 57 59 58 53 47 47 47 47 46 46 46 47 47
53 52 52 50 49 49 49 49 49 48 48 47 47 47 47 47 46 47 47 47 48 49 48 47 46 50 52 53 53 54 54 55 57 52 46 45 45 46 46 45 45 45 46
52 52 52 51 50 50 50 50 49 47 47 48 48 47 47 46 45 44 44 45 45 45 45 45 45 46 48 50 51 49 48 52 52 56 52 49 48 46 46 45 45 45 45
52 52 51 50 50 50 48 45 45 43 43 44 45 47 47 46 41 41 42 41 40 40 41 42 42 44 46 46 46 49 47 48 50 52 51 52 53 52 51 45 48 45 45
51 50 49 49 48 49 36 36 36 40 40 40 41 43 45 43 43 39 38 38 38 37 36 38 39 39 41 43 45 44 43 41 39 48 46 45 50 48 51 52 47 45 46
49 48 48 47 46 45 36 35 34 38 37 38 39 41 41 44 41 42 40 38 37 36 33 35 32 34 36 39 40 39 39 39 38 43 43 40 44 42 47 49 44 43 43
48 47 46 45 44 44 36 34 33 36 36 37 38 39 39 39 41 39 37 37 37 37 37 38 37 37 39 40 40 39 38 39 40 42 43 35 41 40 43 45 43 43 42
47 46 45 43 40 39 37 34 33 33 33 33 36 37 37 36 36 35 33 32 33 35 39 38 37 37 37 37 37 38 33 32 32 37 42 38 38 38 41 41 42 42 41
46 45 42 40 37 36 36 34 33 32 29 31 33 35 34 35 33 33 32 31 29 33 35 35 36 36 35 37 36 37 36 32 32 32 41 37 38 39 34 40 41 42 42

GFSMA_sfc_temp_006.txt.gz
Temp
69 69 68 68 68 69 68 67 67 67 67 67 66 66 66 65 66 65 62 65 65 67 68 70 71 71 70 70 69 69 69 69 69 69 68 68 69 69 69 69 69 69 69
69 68 67 68 67 68 67 66 66 66 66 66 66 66 66 65 65 65 65 60 64 65 66 69 70 70 70 69 68 68 68 69 69 69 68 67 68 68 68 68 68 68 69
69 69 67 67 67 68 68 67 66 66 65 67 65 65 65 64 64 65 64 64 60 62 64 66 67 69 69 68 68 68 68 68 68 68 68 67 66 67 67 67 68 68 68
72 68 67 66 67 67 66 65 64 64 64 64 63 63 64 64 64 64 64 64 63 65 61 63 65 66 67 68 68 68 68 68 68 68 68 67 66 66 66 67 67 67 67
71 67 66 66 66 65 64 65 65 63 62 62 64 64 63 62 63 69 65 64 62 65 62 62 63 63 65 66 67 68 68 68 67 68 68 68 67 66 65 65 66 67 67
69 67 66 65 65 64 63 63 62 62 62 63 68 68 64 66 65 61 64 67 65 65 65 63 60 60 61 64 66 67 68 68 68 68 67 67 68 66 65 65 65 65 66
67 64 64 64 63 62 61 61 60 59 61 60 61 61 62 63 62 65 66 65 66 66 65 65 60 60 60 62 64 66 67 68 68 67 67 67 66 65 65 65 65 65 65
66 67 63 63 62 60 59 58 58 57 58 58 56 57 53 57 60 62 65 66 67 67 67 65 64 63 62 59 58 64 66 66 67 66 65 65 65 65 65 65 65 64 65
67 65 63 62 60 58 56 56 56 55 53 55 55 52 49 48 53 58 59 62 59 60 59 62 65 66 62 60 60 60 60 60 63 64 65 65 65 65 65 65 64 65 64
63 64 62 60 58 56 55 55 59 53 52 50 51 55 50 47 43 44 52 55 58 58 58 56 59 61 62 60 59 57 56 54 57 61 63 64 64 65 65 65 64 64 64
60 61 60 57 56 55 55 54 53 51 50 47 47 46 45 46 46 40 41 43 48 50 52 52 53 53 55 56 59 53 54 53 54 57 60 63 64 64 64 64 65 64 64
57 58 59 56 55 54 54 52 49 48 45 46 46 45 42 43 42 41 40 39 40 43 46 47 49 49 50 53 59 53 52 51 53 55 57 59 61 62 63 64 64 65 64
54 54 55 54 54 53 53 53 51 49 47 43 42 43 42 42 42 42 40 38 38 42 41 44 48 49 51 49 50 52 51 50 51 53 54 55 56 57 59 61 62 64 64
53 54 54 54 52 51 49 49 47 47 45 44 46 45 42 42 42 41 40 37 34 36 39 40 46 47 48 50 50 51 51 49 49 51 52 53 53 53 53 55 56 57 59
55 52 50 50 51 49 47 46 44 44 44 43 42 42 42 42 42 42 41 41 37 33 34 40 43 46 47 48 49 50 52 50 49 48 49 51 52 52 52 53 53 54 55
52 51 49 48 48 48 47 46 44 45 44 43 44 43 42 44 44 44 43 41 41 38 34 41 45 48 51 54 51 50 53 50 48 47 47 49 50 51 51 51 51 51 52
49 49 49 48 47 46 44 43 43 44 44 42 43 44 44 45 44 44 45 44 42 40 37 42 45 47 47 48 51 51 53 49 47 47 46 47 47 47 48 48 48 49 49
49 48 48 47 46 46 44 43 42 43 43 42 43 43 43 47 43 43 44 43 42 42 39 37 40 43 42 44 46 46 52 56 51 49 47 46 46 46 46 46 46 46 46
48 48 47 46 46 45 45 44 43 43 41 40 41 40 41 41 38 39 39 39 40 44 40 38 37 39 40 41 43 44 46 46 52 51 45 45 45 46 45 45 45 45 46
47 46 46 46 45 46 46 43 43 40 39 39 39 38 39 40 40 39 39 36 38 35 36 35 35 37 37 40 40 39 38 41 41 51 49 47 44 45 45 45 45 45 45
47 46 46 44 44 45 42 37 37 36 35 36 36 38 39 40 42 39 40 36 34 32 31 32 32 34 35 36 35 39 38 38 39 41 39 39 41 43 44 44 46 45 45
46 44 43 43 41 46 36 36 34 32 34 33 32 34 36 39 39 40 39 39 36 31 31 30 30 29 31 33 35 33 31 30 28 37 35 33 38 37 40 43 45 43 42
43 42 41 42 40 39 37 36 34 32 31 31 31 32 34 39 37 37 36 36 36 36 32 31 29 29 29 31 33 31 29 28 28 33 33 26 29 31 36 44 42 43 43
41 40 40 40 38 39 37 37 34 30 29 30 30 31 31 32 33 34 33 30 31 33 34 34 32 31 33 34 33 33 32 33 31 32 34 29 27 29 29 33 42 43 42
40 39 40 37 35 35 37 35 32 28 28 28 30 31 32 31 34 35 31 28 28 31 37 37 37 37 37 37 36 33 29 29 26 28 31 28 26 26 29 30 32 41 42
41 37 35 34 36 33 36 36 32 27 25 27 28 30 32 32 29 30 28 28 27 29 31 31 30 32 35 34 35 33 31 27 27 25 32 31 30 28 26 28 32 34 29

GFSMA_sfc_temp_009.txt.gz
Temp
63 63 63 63 62 62 62 62 62 63 63 64 63 62 63 62 62 61 58 64 65 68 70 71 71 71 71 70 69 69 69 69 70 70 69 68 69 69 69 68 68 69 69
63 62 62 62 62 62 62 62 62 61 61 62 63 63 62 62 62 61 61 58 63 65 67 69 71 71 71 71 69 68 68 69 69 69 69 67 68 68 68 68 68 68 69
65 64 61 61 62 62 62 61 61 60 60 62 61 61 61 61 61 62 61 59 59 62 64 66 68 69 70 70 70 68 68 68 68 68 68 67 67 67 67 67 67 68 68
64 61 61 60 61 61 61 60 59 59 58 58 57 59 59 60 60 60 61 60 59 61 61 63 65 66 67 69 69 69 68 68 68 68 68 67 66 66 66 67 67 67 68
63 60 60 59 59 59 58 58 58 56 55 56 60 61 59 58 58 64 60 60 59 59 59 61 63 63 65 66 68 69 70 69 68 68 68 67 67 66 65 65 66 66 67
62 60 59 60 59 58 56 57 55 56 54 55 62 62 56 57 57 56 57 61 61 61 59 60 59 61 61 64 66 68 69 70 69 68 68 67 67 67 65 65 65 65 65
63 61 58 58 56 55 54 54 53 53 55 53 51 54 53 55 55 56 57 56 58 60 61 59 59 58 60 62 64 67 69 69 70 69 68 67 66 66 65 65 65 65 65
61 62 57 56 55 54 53 52 51 50 50 50 47 47 45 50 51 55 54 56 53 55 57 60 60 60 59 59 59 64 67 68 69 68 68 66 66 65 65 65 65 65 64
59 57 55 54 53 52 50 50 50 49 46 48 48 45 40 39 42 48 51 50 48 50 50 52 55 57 59 60 59 59 60 61 65 67 67 65 65 65 65 65 65 64 65
56 57 55 53 51 50 50 49 53 47 46 43 45 50 44 43 40 38 43 47 47 48 46 48 49 53 53 52 54 54 54 55 58 63 64 64 65 65 65 65 64 64 64
54 55 54 52 50 50 49 47 46 44 44 43 42 42 42 42 43 40 36 38 43 44 44 44 46 48 51 50 51 51 51 52 54 58 60 61 63 64 64 65 64 64 64
51 52 53 51 50 48 47 46 45 43 42 45 46 45 43 39 37 36 37 38 39 40 43 43 44 45 47 50 52 49 50 50 51 55 57 58 60 61 63 63 64 65 64
48 47 47 46 46 46 46 45 43 43 42 40 39 39 39 39 39 38 40 38 35 38 37 40 42 44 48 48 50 49 49 48 48 52 54 55 56 56 56 58 61 64 64
46 46 46 46 46 45 44 43 41 42 44 42 42 41 40 42 39 38 36 37 34 37 34 36 40 42 43 45 48 48 49 47 47 49 52 53 53 53 53 54 55 56 57
50 45 44 44 44 44 46 46 44 43 41 39 39 40 42 42 41 42 41 40 36 32 34 35 36 43 45 45 46 47 47 47 46 46 48 51 52 52 52 52 53 53 54
45 44 44 43 43 43 43 41 39 39 39 39 42 40 39 40 42 41 40 38 38 37 32 36 39 43 46 51 48 46 47 47 45 45 46 48 49 51 51 51 51 51 52
45 45 44 43 43 42 41 40 39 39 39 39 39 40 40 42 41 39 40 40 40 38 32 37 38 40 41 42 46 47 48 46 46 46 46 46 46 47 47 48 48 49 50
45 44 43 42 42 41 40 39 37 37 37 36 36 35 36 41 37 38 39 39 38 39 38 33 34 36 38 40 41 42 49 53 48 47 46 46 46 45 45 45 45 45 46
43 43 42 41 41 41 40 39 37 36 35 35 34 34 34 34 33 35 35 34 34 38 33 32 30 34 35 38 39 39 44 44 50 50 45 45 46 46 45 45 45 45 45
43 42 42 42 41 41 39 37 37 34 33 34 34 33 34 33 33 33 35 35 35 31 30 29 29 30 32 36 35 33 34 36 38 47 47 44 43 44 44 44 44 44 45
43 42 42 40 40 39 38 33 33 30 30 30 31 33 33 34 37 37 36 34 32 29 28 28 27 28 28 30 30 31 29 31 33 36 35 36 38 39 41 42 43 44 43
41 40 39 39 37 39 35 35 33 28 30 29 28 29 30 33 34 35 36 34 34 31 28 26 26 25 26 27 29 27 27 26 26 33 31 30 34 34 37 39 43 42 43
39 37 36 36 35 33 37 37 34 30 28 27 27 28 29 33 32 32 34 34 33 34 31 29 27 26 26 28 28 26 25 25 25 30 30 25 25 29 33 41 42 43 43
37 34 33 33 32 36 37 36 34 28 27 27 28 29 28 28 30 31 30 29 29 30 31 32 29 29 29 30 30 31 29 29 28 29 31 25 24 25 27 30 39 42 42
33 33 33 32 30 30 35 35 31 26 26 26 29 29 29 28 31 32 29 27 27 29 34 36 36 34 34 34 34 32 28 27 24 26 28 24 23 23 24 27 30 39 40
33 32 32 31 33 28 34 35 30 26 22 25 26 28 30 29 30 30 27 24 23 26 28 27 27 29 32 32 34 32 30 27 26 20 27 27 27 24 22 24 27 29 28

GFSMA_sfc_temp_012.txt.gz
Temp
61 60 60 60 59 59 59 59 59 60 60 61 61 60 60 60 60 59 57 63 65 67 71 73 73 72 72 71 70 69 69 69 69 70 69 68 69 69 69 68 68 68 69
61 61 60 60 59 58 59 58 58 58 58 59 59 60 60 59 59 59 59 57 63 65 67 70 72 72 72 72 70 69 69 69 69 69 69 68 68 68 68 68 68 68 68
61 60 58 58 58 58 58 58 58 57 57 59 58 58 59 60 58 58 59 59 58 62 63 66 68 70 70 71 70 69 69 68 68 68 68 68 67 68 66 66 67 68 68
61 58 57 57 57 57 57 56 56 56 55 54 54 55 56 57 58 58 57 57 59 61 60 63 65 67 68 69 70 71 70 69 68 68 68 67 67 67 66 66 66 67 67
60 58 58 57 57 56 54 54 54 52 51 52 56 55 54 54 54 59 57 57 56 57 58 60 62 63 65 66 68 70 71 70 69 68 68 67 67 66 66 66 66 66 66
62 58 57 56 55 54 52 52 51 51 50 50 57 55 51 52 53 51 52 57 56 56 56 56 56 58 60 64 66 68 70 71 70 70 69 68 67 66 66 65 66 66 66
59 56 54 54 53 52 50 51 50 49 49 49 47 50 48 51 49 49 49 50 52 54 53 54 54 56 58 61 64 67 69 70 71 70 69 68 67 66 65 65 65 65 65
57 58 53 51 51 50 50 49 48 47 47 47 45 43 42 47 45 49 47 48 44 48 50 52 52 54 54 54 56 62 66 69 70 69 69 67 66 66 65 65 65 65 65
55 53 52 50 50 49 48 47 47 46 43 45 44 43 39 36 39 45 47 45 43 44 43 47 49 51 55 52 52 54 57 59 64 67 68 67 66 65 65 65 65 65 65
53 53 51 49 48 47 46 45 48 44 44 42 43 47 42 43 41 38 41 43 42 45 41 42 44 46 50 50 53 51 50 51 55 61 65 66 66 65 65 65 65 65 64
53 54 52 50 48 46 45 44 43 42 41 41 40 40 40 39 40 37 35 36 40 41 42 40 41 43 47 48 48 49 50 49 50 55 61 63 64 64 64 64 65 65 64
48 49 50 45 44 43 43 42 41 41 41 43 43 41 39 38 36 35 35 36 36 38 39 40 39 41 43 45 50 50 49 48 49 51 54 59 61 62 63 63 64 64 64
47 46 44 43 43 43 43 42 41 41 41 43 43 41 42 41 39 40 38 37 34 37 35 38 39 40 45 43 46 49 49 47 48 49 50 53 56 57 57 58 59 60 63
43 43 43 43 43 43 42 41 39 38 39 38 38 38 41 39 42 40 38 35 33 36 35 34 38 39 41 42 46 48 48 46 46 46 47 48 52 54 54 55 55 56 56
46 43 43 42 42 42 41 40 38 38 37 36 36 37 39 40 41 41 39 37 33 29 32 37 34 40 40 41 43 44 45 47 45 44 45 45 48 49 52 53 53 54 54
44 43 43 42 41 41 40 39 37 38 36 36 38 36 36 37 37 38 40 39 36 33 30 34 36 38 40 45 46 44 45 47 45 44 43 45 45 49 48 50 51 52 52
43 44 43 42 41 39 39 37 36 37 36 35 34 34 34 34 33 33 34 35 36 37 33 37 37 37 37 37 40 41 44 45 44 44 43 44 44 45 47 48 48 50 50
43 43 44 42 40 39 38 37 36 36 34 33 33 32 32 37 31 32 32 32 32 34 33 29 32 34 35 37 37 36 43 48 46 46 45 44 43 44 44 45 45 46 47
43 43 42 41 40 39 38 36 34 33 32 32 31 31 30 31 30 30 30 31 32 36 32 30 29 32 33 35 35 36 37 37 44 47 45 46 44 44 45 44 45 45 45
43 43 42 41 40 38 37 35 34 31 30 31 31 30 30 29 29 29 30 30 32 30 30 28 28 29 29 32 33 31 29 31 33 41 43 41 42 43 44 43 43 43 44
42 43 41 40 38 36 36 32 32 31 29 29 30 30 30 31 34 33 33 30 30 28 28 28 28 27 27 27 27 29 27 28 29 33 34 34 35 36 39 41 43 44 44
41 41 39 37 34 38 36 36 34 29 29 29 27 29 29 31 31 33 33 34 33 29 28 27 27 26 25 25 27 26 25 23 24 30 29 29 32 33 35 38 41 42 42
40 36 34 33 32 32 36 37 34 30 28 26 26 26 28 31 30 29 30 32 32 33 31 30 27 25 25 26 27 25 24 24 24 29 28 25 26 28 32 38 40 43 42
36 32 31 31 31 33 35 35 33 27 26 26 27 27 27 27 29 29 28 28 29 29 30 30 28 28 28 28 28 29 27 27 28 29 29 22 23 23 26 28 38 41 41
32 32 32 30 28 28 34 33 29 24 25 25 27 28 28 26 29 31 28 26 26 28 32 34 34 34 34 34 32 30 28 27 26 27 27 24 23 22 23 24 28 38 40
32 32 30 28 31 26 31 32 31 23 19 23 25 27 28 28 29 29 27 26 23 25 26 26 26 28 30 29 32 30 27 24 24 20 26 25 25 23 19 22 25 25 25

GFSMA_sfc_temp_015.txt.gz
Temp
59 58 58 58 58 57 57 57 57 57 57 58 58 58 58 58 58 58 56 62 63 66 70 73 74 74 73 71 70 69 70 69 69 69 69 68 68 68 68 69 69 68 69
59 58 57 58 57 56 56 56 56 55 55 56 57 57 58 57 57 57 57 56 62 63 66 69 71 73 73 72 70 69 69 69 69 69 68 68 67 67 67 68 68 69 69
58 58 57 56 56 56 55 55 55 54 54 55 54 55 56 56 56 56 56 56 56 60 62 64 66 68 70 71 71 70 69 68 68 68 68 67 67 67 67 67 68 69 69
58 56 56 55 54 54 54 53 52 52 51 50 50 52 52 53 54 55 54 54 53 55 57 60 62 63 65 67 70 71 71 70 69 68 68 67 67 66 66 66 67 67 68
58 56 54 53 53 53 51 51 51 50 49 49 52 51 50 50 51 54 52 52 52 52 53 56 57 58 59 62 65 68 70 71 71 69 68 67 67 66 66 66 66 67 67
58 55 55 52 52 51 50 49 49 49 48 48 53 52 49 49 48 47 48 52 50 50 50 51 51 53 57 59 61 64 67 69 71 71 70 69 67 67 66 65 65 66 66
56 52 51 51 50 49 48 48 47 47 47 47 45 48 46 47 47 47 47 46 47 49 48 49 50 50 52 55 57 60 63 66 69 70 70 69 67 66 65 65 65 65 65
53 53 49 49 48 48 47 46 45 44 44 45 42 41 39 45 43 47 45 46 42 44 46 48 47 48 48 50 51 56 57 60 63 65 67 68 66 66 65 65 65 65 65
51 50 48 47 46 46 44 43 43 42 41 43 43 41 37 35 37 42 44 43 41 41 41 43 45 46 46 47 50 51 52 52 56 59 62 65 66 66 65 65 65 65 65
49 50 48 47 45 44 43 44 44 40 40 38 40 44 40 41 39 36 39 42 40 43 40 40 41 42 44 46 49 50 50 49 51 55 58 61 64 66 65 65 65 65 65
51 48 49 48 46 43 42 42 40 39 39 38 40 40 42 40 38 36 33 34 38 40 40 39 39 39 42 44 44 48 50 49 50 52 55 57 62 65 65 64 64 64 64
46 49 48 44 44 42 41 40 39 39 38 39 40 42 39 37 37 36 35 36 37 40 38 38 38 39 40 42 47 49 49 48 48 50 52 54 56 60 62 63 64 64 64
43 43 43 42 42 42 41 40 39 38 37 36 36 36 37 37 38 39 36 35 34 35 37 36 38 38 42 41 42 47 49 46 46 47 48 51 52 54 58 60 61 63 63
42 42 42 42 42 42 41 39 38 37 37 35 34 34 35 36 37 38 36 33 30 31 34 37 41 40 38 39 42 47 44 46 45 45 46 47 49 50 52 55 56 57 58
44 42 42 43 43 41 41 39 37 36 36 35 34 34 34 35 34 35 35 35 33 27 28 31 32 39 39 39 40 39 41 46 45 44 43 44 46 48 49 52 53 54 55
45 44 44 43 43 42 40 38 37 36 35 35 35 33 33 33 32 32 31 32 32 32 28 32 33 36 39 43 43 38 39 46 45 43 42 43 44 45 48 48 48 51 53
41 42 43 43 42 41 38 37 37 35 34 33 32 32 32 32 30 29 30 30 31 30 28 32 34 36 37 37 38 38 39 39 40 43 42 42 41 42 44 46 45 46 48
42 42 42 42 40 40 38 37 35 35 33 31 31 30 30 35 29 28 28 29 29 30 29 27 30 31 33 36 36 34 40 43 38 45 43 42 41 41 42 43 43 44 45
40 39 40 38 38 39 39 36 34 32 32 31 31 30 30 29 27 27 28 27 28 32 30 29 29 29 30 31 32 34 35 33 40 43 43 42 42 42 43 43 43 44 45
38 38 39 39 39 39 36 34 33 32 30 31 31 30 29 29 27 27 28 27 30 28 29 29 27 28 30 30 29 28 28 30 30 38 40 40 41 42 42 43 43 44 45
39 39 39 39 37 35 35 32 33 31 29 29 30 30 30 31 34 32 30 28 27 27 29 27 28 28 28 26 26 27 26 26 27 29 31 34 36 37 39 40 42 43 43
38 37 38 34 33 36 36 37 35 29 30 29 27 28 28 30 30 32 32 32 31 27 26 26 26 27 27 26 26 25 25 23 22 28 27 27 34 33 35 38 41 41 42
37 34 31 31 31 32 36 36 34 30 27 26 26 26 27 30 29 28 29 31 31 31 30 27 25 26 27 27 26 25 23 23 23 27 26 23 24 29 33 37 39 41 42
32 30 30 31 30 32 34 34 31 25 24 25 26 26 26 26 27 29 27 27 28 29 30 30 27 27 28 29 28 28 27 26 26 27 27 25 20 23 24 28 37 40 41
31 30 31 30 27 27 32 33 30 24 24 24 26 26 27 27 28 30 28 26 27 28 32 33 33 33 31 32 31 28 26 26 25 28 25 23 22 22 22 23 29 38 39
33 32 30 28 30 25 30 31 29 21 16 23 24 26 27 28 29 29 26 25 23 26 27 27 26 27 29 29 31 28 24 23 24 19 25 24 25 22 18 20 22 24 25

GFSMA_sfc_temp_018.txt.gz
Temp
56 56 56 56 56 56 55 55 55 56 55 56 56 56 57 56 57 56 55 61 62 65 67 69 71 71 72 72 71 70 70 70 70 70 69 68 67 67 67 68 68 68 69
56 57 56 56 55 54 54 54 54 53 53 54 55 55 55 55 56 56 56 55 60 61 63 64 65 66 68 68 69 69 70 69 69 69 69 68 67 66 66 66 67 67 68
56 56 54 54 53 53 53 53 53 52 52 53 52 53 54 54 54 54 54 54 54 57 59 61 62 63 63 65 65 66 68 69 68 69 68 67 67 66 66 66 66 66 68
56 54 54 52 52 52 54 51 50 50 50 49 49 50 50 51 52 52 52 52 52 53 54 58 59 60 61 62 64 65 66 67 68 69 68 67 67 66 66 65 65 66 66
56 54 55 54 55 52 49 50 49 48 47 48 50 50 49 49 49 53 51 50 50 50 50 54 55 56 57 59 61 63 64 66 67 68 69 68 67 66 66 66 65 65 66
57 55 55 52 50 49 47 47 47 47 47 46 51 50 48 48 48 47 48 51 49 49 48 49 48 50 54 56 58 60 63 64 65 66 68 69 68 67 66 66 65 65 65
52 50 48 48 48 46 45 45 45 45 45 45 43 46 45 46 46 46 47 46 47 48 47 47 48 48 48 52 54 56 59 61 61 62 63 65 66 67 66 65 65 65 65
50 50 47 46 45 45 45 43 44 42 43 43 41 40 38 42 44 47 46 46 44 45 46 48 46 47 47 47 49 54 55 56 57 59 60 61 63 64 66 66 65 65 65
48 47 47 46 45 44 45 43 42 40 39 41 41 40 36 34 39 43 44 43 42 42 42 43 45 46 46 46 48 49 51 52 54 56 58 59 60 62 64 65 65 65 65
48 48 49 46 45 44 43 43 42 39 39 37 39 43 40 41 37 35 40 44 41 43 42 41 42 43 44 44 47 48 49 50 51 54 55 57 59 60 63 64 65 65 65
50 50 48 45 43 42 41 40 39 38 38 37 37 38 38 38 38 37 33 38 41 41 41 41 40 41 42 43 43 46 49 49 49 51 53 55 56 58 60 63 65 64 65
44 45 45 42 41 41 40 39 38 38 37 37 37 37 36 35 34 34 32 35 34 38 39 39 39 39 41 41 46 47 47 48 48 49 50 52 54 55 57 60 63 64 64
42 41 41 43 41 41 41 40 38 37 36 35 35 35 36 35 36 35 34 32 31 34 36 38 39 41 43 40 41 46 47 47 47 47 48 48 50 51 53 55 59 62 64
41 41 41 42 42 41 40 40 38 38 38 36 35 34 34 34 35 35 33 31 28 30 32 34 38 40 41 42 42 46 42 45 46 45 45 46 47 48 49 52 54 57 60
43 41 40 42 41 41 41 40 38 37 36 37 35 34 34 34 33 33 32 32 30 24 27 34 34 39 40 41 42 42 40 43 45 44 44 44 45 46 48 48 50 52 55
41 41 43 40 41 41 40 38 38 37 36 34 35 33 32 32 31 31 30 30 30 28 24 33 35 36 39 43 43 43 41 45 43 44 43 43 43 43 43 44 48 48 49
41 41 40 40 41 41 38 37 36 36 34 33 32 32 32 32 30 30 30 30 29 29 25 30 34 36 35 37 40 40 41 41 39 42 43 42 42 42 42 42 44 46 47
40 39 41 42 41 38 36 35 35 35 33 32 31 31 31 34 30 29 29 28 28 29 27 25 30 31 32 36 36 36 40 43 39 43 43 43 42 41 41 41 41 43 45
37 39 41 38 37 36 37 37 34 33 32 31 30 30 30 30 28 28 28 27 28 30 29 27 27 31 32 33 34 34 35 36 39 41 41 41 42 42 42 41 41 43 43
37 40 39 37 36 37 36 34 33 31 31 31 31 30 29 29 28 28 28 28 29 27 28 27 28 29 30 33 32 32 31 33 33 38 39 40 40 42 41 41 41 43 43
38 41 38 36 35 35 35 32 32 31 29 29 29 30 30 31 33 32 30 29 28 26 26 27 27 28 29 29 29 30 30 30 31 32 33 35 36 39 39 40 41 42 43
35 35 36 34 32 35 36 36 33 29 29 28 26 27 28 30 30 31 31 31 30 26 25 25 26 25 26 29 29 27 29 26 26 32 31 30 34 36 37 38 40 40 41
33 31 30 31 30 31 35 35 32 29 27 26 25 25 26 30 28 28 29 30 30 31 29 28 25 26 26 29 30 28 27 26 26 30 30 28 30 31 35 38 38 41 41
31 30 30 30 30 31 33 33 33 27 25 25 26 25 25 26 27 28 27 28 29 30 30 30 29 29 30 30 30 30 30 29 28 30 30 26 28 29 31 33 37 39 41
30 31 31 29 27 27 32 32 30 25 24 24 26 27 27 26 28 30 27 26 27 29 32 33 32 32 33 33 31 29 25 26 25 29 30 29 27 27 29 31 34 38 39
30 30 30 28 30 25 29 31 30 22 17 22 25 26 27 27 29 29 26 24 23 26 28 29 29 30 30 29 30 29 27 24 25 23 29 27 27 28 25 28 29 31 32

GFSMA_sfc_temp_021.txt.gz
Temp
69 70 69 70 70 71 70 69 69 69 68 68 68 68 68 68 68 71 71 62 61 64 66 67 68 68 68 67 67 68 69 70 70 70 69 68 68 67 67 67 67 67 68
69 69 68 69 69 69 68 68 67 68 67 67 67 66 67 67 67 67 70 69 59 60 62 63 64 64 65 66 66 66 67 68 69 69 69 68 67 67 66 66 66 67 67
66 66 67 67 67 67 66 68 66 66 67 67 66 66 67 66 66 65 66 67 66 59 58 60 61 61 62 63 64 65 65 66 67 68 68 68 67 67 66 66 66 66 67
66 66 63 64 63 63 64 60 64 65 64 63 63 65 65 66 64 64 65 65 65 66 62 57 58 59 60 61 62 64 64 65 65 66 68 68 68 67 66 66 65 66 66
64 62 58 60 62 62 61 62 62 61 61 62 62 64 64 65 64 65 63 61 61 62 63 59 57 57 57 58 59 61 63 64 64 65 66 66 68 67 66 66 66 65 66
62 63 61 60 62 61 60 61 60 61 60 58 59 60 60 62 62 63 61 62 61 60 60 59 60 61 55 56 57 58 60 62 63 63 63 64 64 65 66 66 66 65 66
61 61 61 60 61 60 58 57 59 56 58 57 57 57 59 60 59 60 60 60 59 59 58 59 59 59 59 55 55 56 58 59 60 61 61 61 62 63 64 65 66 65 65
60 60 60 60 59 60 57 55 55 55 55 55 51 52 51 55 58 57 58 57 56 57 57 57 56 56 57 58 56 53 54 55 57 58 59 59 60 61 62 64 65 66 65
60 59 58 59 58 57 56 54 53 51 51 53 52 50 46 46 48 55 54 55 54 54 55 55 55 55 55 56 55 55 52 51 53 55 57 58 59 60 61 62 64 65 65
59 59 58 56 55 56 54 54 54 51 51 48 51 53 50 48 43 42 51 50 52 51 51 52 52 52 53 53 52 50 49 49 50 53 54 56 58 58 59 61 62 64 65
58 58 56 55 54 55 54 52 52 51 52 50 49 48 48 48 47 42 39 44 49 51 51 51 51 51 52 52 52 52 48 48 49 51 52 54 55 57 57 58 60 62 64
58 56 55 54 54 54 52 52 51 50 50 49 50 48 46 43 42 42 39 41 42 46 50 50 49 50 51 51 51 47 48 46 48 49 50 51 52 53 55 56 57 60 64
57 56 53 52 53 52 51 51 51 50 50 48 47 47 47 46 46 44 42 41 38 44 44 48 49 50 51 51 51 48 49 46 46 48 48 49 50 50 51 53 55 56 59
53 53 52 52 52 51 51 51 50 50 49 48 47 47 47 47 46 44 41 38 35 39 42 42 48 48 49 50 49 47 50 47 45 46 46 47 47 48 49 50 51 52 55
53 52 51 51 51 51 51 51 50 49 49 48 47 46 46 46 45 44 42 40 35 29 34 41 41 47 48 48 48 49 49 47 45 45 45 45 46 47 46 46 47 50 51
53 52 51 52 51 50 49 50 49 49 47 47 46 45 45 44 43 43 42 40 39 35 31 39 41 43 44 46 46 47 48 47 45 43 43 44 44 44 44 45 45 48 49
52 50 50 49 49 46 46 47 47 46 45 45 44 43 42 43 42 42 42 41 39 38 33 37 40 42 41 41 43 45 47 48 49 43 43 43 43 43 43 43 43 44 46
49 48 48 48 47 44 47 46 45 45 43 42 42 41 40 41 40 40 39 38 37 37 34 32 36 38 39 41 41 42 44 48 49 46 42 42 42 42 42 42 42 42 43
48 48 47 47 45 46 45 45 43 42 41 41 40 39 39 38 37 38 37 36 36 35 35 32 32 37 38 39 38 41 43 44 47 45 42 42 42 42 42 42 41 42 42
47 47 46 45 43 44 43 42 41 41 41 40 39 38 37 36 36 36 34 33 33 31 31 31 31 33 34 38 37 36 37 43 43 46 44 41 40 41 42 42 41 42 42
46 46 44 43 41 42 42 41 41 39 38 37 37 37 36 34 32 33 33 32 31 30 30 30 31 32 32 33 32 36 34 37 39 43 43 44 45 46 45 40 42 41 41
45 44 42 41 41 41 36 35 36 38 37 35 34 35 35 33 33 31 31 31 31 29 29 29 29 30 32 33 34 34 32 31 32 44 40 41 44 43 45 42 39 39 40
43 41 41 40 38 38 35 34 33 37 35 34 33 33 32 33 32 32 32 32 32 32 31 30 28 31 31 34 33 32 32 32 32 36 38 36 40 39 43 44 40 39 39
42 41 39 38 38 37 33 33 32 35 34 33 33 32 32 32 32 30 30 31 32 34 34 34 33 33 34 35 35 33 32 33 35 38 39 31 38 36 40 42 39 39 38
41 40 39 37 36 36 32 32 33 33 32 31 32 33 32 31 30 30 30 28 30 32 34 33 33 33 33 33 33 33 30 30 29 35 39 32 33 35 38 39 41 39 39
40 39 37 36 32 33 30 31 32 32 29 30 31 32 29 29 28 30 28 27 25 29 31 31 33 34 34 34 31 34 33 28 30 30 38 32 35 36 34 40 40 41 41

GFSMA_sfc_temp_024.txt.gz
Temp
79 80 79 81 80 81 79 79 78 77 76 76 75 74 74 74 74 77 78 61 62 63 65 66 66 66 66 66 66 66 67 68 69 70 70 69 68 68 67 67 67 67 67
75 79 79 79 80 79 78 77 75 75 75 75 75 73 73 74 74 73 76 76 60 60 62 63 63 64 64 64 64 65 65 66 67 68 69 69 68 67 67 67 66 67 67
71 76 77 77 75 74 74 74 73 74 74 74 73 73 73 74 74 72 73 74 72 58 59 60 60 61 61 62 63 63 64 65 65 66 67 68 68 67 67 66 66 66 67
67 72 70 69 70 71 71 72 71 71 71 71 70 71 72 73 72 72 72 70 72 73 66 60 60 60 60 60 61 62 63 63 64 65 65 65 66 67 67 66 66 66 66
67 68 69 68 69 71 69 69 69 68 67 68 68 69 69 70 69 73 70 69 68 68 69 64 60 60 59 59 59 60 61 62 63 63 64 64 64 65 65 66 66 66 66
69 71 70 68 70 69 69 67 65 67 66 66 65 67 67 67 68 69 68 68 69 66 66 65 65 66 59 59 59 59 59 60 61 61 62 62 63 63 63 64 65 66 66
69 69 71 69 68 67 64 64 65 64 63 64 60 63 64 67 65 66 67 66 65 65 63 64 64 64 64 59 60 59 58 58 58 59 60 60 60 61 62 63 64 65 66
69 69 67 67 66 65 63 62 61 61 62 62 56 56 55 60 65 63 63 63 62 63 62 62 61 61 61 61 60 56 56 55 55 56 57 58 59 60 61 62 63 64 65
69 67 66 65 65 64 63 61 60 58 56 60 58 54 50 50 54 60 60 61 59 59 59 60 59 59 59 60 59 58 54 51 52 54 56 57 58 59 60 61 62 63 64
67 67 66 65 63 63 61 61 61 58 56 55 57 59 56 54 48 46 56 57 58 58 57 58 58 58 58 59 56 53 49 49 49 52 54 55 56 57 58 59 60 60 62
67 66 65 63 62 62 61 58 57 56 57 55 55 54 53 53 53 48 44 49 55 57 58 57 56 56 57 57 57 53 49 48 48 51 52 53 54 55 56 57 58 59 60
67 66 64 62 61 60 58 58 57 56 55 54 54 53 51 49 48 47 45 47 48 52 55 56 55 55 56 56 55 51 49 48 48 49 50 51 52 52 53 54 56 58 59
64 63 62 61 61 60 58 58 56 54 54 54 53 52 52 51 51 48 47 46 44 50 51 54 55 55 56 55 54 51 50 47 47 48 49 50 50 50 51 51 53 54 56
61 61 60 60 60 59 58 57 56 53 52 51 52 52 52 52 51 51 47 43 40 43 47 47 53 54 54 54 52 48 52 48 47 47 47 48 48 48 49 49 50 50 52
60 60 59 58 58 56 57 56 55 52 53 51 53 51 50 50 52 51 50 47 40 34 38 45 46 51 52 52 50 50 50 48 47 46 45 45 47 47 47 48 48 48 49
59 58 57 57 57 57 57 55 53 53 51 52 52 49 49 51 51 50 49 48 45 40 37 45 46 48 49 50 49 48 49 46 45 44 44 44 45 45 45 46 46 46 47
57 56 56 55 55 55 54 53 52 52 51 51 49 49 49 49 49 49 48 47 45 44 39 43 45 47 45 45 46 46 47 49 50 46 44 43 43 43 44 44 44 44 45
57 56 55 54 54 53 51 47 50 51 50 49 48 48 47 49 46 47 46 45 44 43 38 36 40 40 41 43 43 43 46 48 49 49 44 43 42 42 42 42 43 43 43
55 55 54 53 52 50 48 46 49 48 48 47 47 46 45 45 43 44 43 42 41 40 39 36 35 38 40 41 41 42 42 44 48 47 44 42 43 43 42 42 42 42 42
53 53 53 52 50 50 49 49 47 47 47 47 46 45 43 42 41 40 39 40 38 37 37 34 34 34 37 41 42 38 38 42 42 47 47 43 43 44 42 42 42 43 42
53 53 52 51 50 48 48 45 47 46 45 45 44 44 43 39 34 35 36 35 34 33 32 33 32 33 34 36 34 38 36 40 42 43 42 45 47 49 47 42 43 42 40
52 52 50 49 47 49 35 35 36 44 44 43 42 42 42 38 38 34 33 33 33 31 31 31 30 31 33 35 37 36 35 34 33 43 36 41 45 45 47 49 41 40 40
51 50 49 47 46 45 35 34 34 42 42 42 40 40 39 40 37 37 34 33 33 33 31 33 30 32 33 35 36 35 35 34 34 40 37 36 42 41 45 49 41 40 40
49 49 48 47 45 43 33 33 33 42 41 40 40 39 39 38 37 33 31 33 36 37 38 36 35 35 36 37 36 36 35 36 37 40 41 33 40 38 42 45 42 40 40
48 48 47 46 44 43 33 32 33 39 38 38 39 39 37 36 32 30 31 31 33 35 36 35 34 34 34 34 35 35 32 32 30 35 42 37 37 37 39 40 43 40 39
47 47 46 45 37 41 32 31 33 37 34 36 38 38 34 32 29 29 29 29 28 30 32 33 34 36 37 38 34 35 34 31 32 31 39 36 37 36 34 42 43 44 43

GFSMA_sfc_temp_027.txt.gz
Temp
75 78 78 80 80 80 80 79 79 78 77 77 76 76 74 74 75 77 76 63 63 65 65 66 66 66 66 65 65 65 66 66 67 67 68 68 68 68 68 67 67 67 67
72 71 69 69 75 78 78 77 75 74 73 74 73 74 73 74 75 75 76 74 62 63 63 63 63 64 64 64 63 64 64 65 65 66 66 67 67 67 67 67 67 66 67
70 67 66 67 72 72 70 71 70 72 73 75 73 74 74 73 74 73 73 74 73 60 61 61 61 62 62 62 62 62 63 63 64 65 65 66 65 65 66 66 67 66 66
63 65 66 67 68 71 73 72 72 71 71 70 70 71 71 72 71 71 72 73 73 72 63 61 61 62 62 62 62 61 62 62 63 64 64 65 65 65 64 65 65 66 66
68 69 70 70 71 72 71 71 69 68 68 68 69 70 69 69 69 71 69 70 70 69 69 66 62 62 61 62 61 61 61 61 61 62 62 63 63 63 64 63 64 64 66
72 74 71 70 70 70 70 68 65 67 66 66 67 66 66 68 69 68 69 70 70 68 68 64 65 65 61 61 61 62 61 60 60 60 60 61 61 62 62 62 63 63 64
72 72 73 71 70 68 66 66 65 63 63 65 62 61 62 65 66 68 69 67 65 66 65 64 64 64 64 61 61 61 60 60 58 57 58 58 59 60 60 61 62 63 63
72 72 68 68 68 66 65 64 63 60 61 63 57 57 52 57 63 64 64 64 63 64 63 62 61 61 60 61 60 58 57 54 55 55 55 56 58 58 59 60 61 62 62
71 70 68 67 66 65 64 63 62 59 57 60 60 56 49 48 53 59 59 61 60 60 60 61 60 60 59 59 59 57 53 51 52 53 54 55 57 58 58 59 59 61 61
69 70 69 67 65 64 62 62 64 59 57 55 58 60 58 55 48 46 55 56 58 58 58 59 59 59 58 58 57 55 50 49 50 52 53 55 56 56 57 57 58 59 60
70 69 68 66 64 63 62 61 59 58 58 55 53 55 54 54 53 48 43 48 54 57 59 58 58 57 58 58 58 56 51 49 50 51 52 52 54 54 55 55 56 57 58
68 68 67 64 63 62 61 61 60 57 54 54 55 54 52 49 48 46 44 46 48 52 55 57 56 57 57 57 57 53 51 48 49 50 51 51 52 53 53 54 54 55 57
64 64 62 61 61 61 61 61 57 54 55 54 53 53 52 50 51 50 47 45 45 50 51 54 55 56 56 55 56 51 50 48 48 49 50 50 50 51 51 52 53 53 53
62 62 61 60 60 60 60 57 56 55 54 53 50 51 50 51 52 50 47 44 41 43 46 46 53 53 54 54 53 50 52 48 47 47 48 48 48 49 49 50 51 51 51
63 62 60 59 59 59 58 57 56 54 54 53 51 51 51 52 51 50 49 48 42 35 38 45 47 52 53 53 51 51 50 48 47 46 46 46 47 48 48 49 49 49 50
61 59 58 58 57 57 58 57 55 55 53 51 51 51 51 50 49 49 49 49 48 43 37 46 48 49 50 50 50 49 49 47 46 45 45 45 45 46 46 47 47 47 48
60 59 58 57 57 56 57 54 51 51 50 50 52 51 48 49 48 48 49 49 47 46 41 45 47 47 45 44 46 47 47 47 48 46 45 45 45 44 44 44 45 45 45
59 58 57 56 56 56 54 50 50 48 46 48 48 48 47 49 46 48 47 45 45 45 43 39 41 42 41 42 43 43 46 47 46 46 45 45 44 43 43 43 43 43 43
58 57 57 55 55 54 52 50 48 48 48 48 47 46 46 46 44 45 44 42 42 43 42 37 36 39 41 42 41 42 43 44 46 46 44 43 42 43 43 42 42 43 43
57 56 55 55 54 53 51 50 49 48 47 47 47 46 46 44 43 40 39 39 39 37 36 35 35 35 38 40 39 38 37 41 41 46 46 44 42 42 43 42 42 43 42
56 56 55 54 52 51 50 47 47 46 45 46 47 46 46 41 37 37 37 36 35 33 33 32 32 33 33 35 35 38 36 39 40 42 42 42 42 44 46 44 44 43 41
55 55 54 52 49 50 35 36 37 44 45 45 44 44 44 42 41 37 36 35 34 32 30 31 32 32 33 34 34 34 34 34 32 42 36 36 39 38 45 47 44 41 41
54 52 52 51 48 47 36 35 35 41 43 44 43 42 42 44 39 40 37 35 35 35 33 34 30 31 30 34 35 33 33 33 33 38 37 33 39 37 43 47 42 41 40
52 51 51 49 48 44 35 34 34 40 43 43 42 42 41 40 38 33 33 33 35 37 38 38 35 35 35 36 35 35 35 35 37 39 40 32 38 37 41 44 42 42 40
51 50 50 48 46 43 35 34 33 40 41 40 41 41 40 38 33 31 31 30 32 34 38 36 35 35 35 35 35 34 31 31 30 34 39 33 36 36 39 40 42 42 40
50 50 48 48 41 44 34 34 33 38 36 37 39 40 35 33 30 30 28 28 27 31 32 32 33 35 37 37 35 35 34 29 30 31 36 32 36 37 33 40 41 42 41

GFSMA_sfc_temp_030.txt.gz
Temp
67 68 67 66 67 68 69 67 66 66 65 66 66 66 66 66 65 64 63 63 64 66 67 67 66 65 65 64 64 64 65 65 65 66 66 66 66 66 66 67 67 67 67
66 65 65 65 66 66 66 64 63 63 63 64 65 65 65 65 65 64 64 61 62 64 64 64 64 64 64 64 63 63 63 63 64 65 65 65 65 65 65 65 65 66 67
65 64 63 61 62 64 63 63 63 63 62 65 63 63 63 63 63 63 62 62 61 61 62 62 63 64 64 63 63 63 63 63 63 63 64 64 64 64 65 64 64 65 66
63 61 62 61 62 61 62 61 61 60 59 59 58 59 59 60 61 61 61 60 60 62 60 61 62 64 63 62 63 63 63 62 62 62 62 62 63 63 63 63 63 64 64
65 63 62 61 62 62 61 61 58 57 56 56 59 57 56 56 57 63 61 60 60 62 62 62 62 62 62 63 63 63 63 62 62 61 60 61 61 61 62 62 62 62 63
67 65 62 62 62 60 59 58 56 56 54 53 61 59 54 54 56 57 57 61 60 60 60 59 58 58 60 61 61 62 62 62 61 58 58 59 59 60 60 60 61 61 62
66 63 62 61 61 58 57 57 55 53 52 53 50 51 51 53 52 53 54 54 55 59 56 54 53 52 54 59 60 60 60 58 58 58 57 57 57 58 59 60 60 61 61
65 64 61 60 58 56 55 54 53 51 51 51 47 47 43 47 50 52 51 52 50 52 54 56 53 53 51 50 52 58 59 55 56 56 56 56 56 57 58 59 59 60 60
65 63 62 59 57 56 53 53 52 51 47 48 50 45 41 39 44 47 48 49 48 47 48 51 53 53 52 50 52 53 54 51 53 55 55 55 55 56 56 57 58 59 59
64 64 62 59 57 55 53 52 55 49 48 45 47 52 47 44 40 39 44 45 47 49 47 47 49 51 51 49 53 54 51 50 51 52 53 54 54 55 56 55 56 57 58
63 63 61 56 54 54 53 52 51 50 48 45 44 44 45 43 43 38 36 39 44 46 46 46 46 46 49 49 47 49 51 50 50 51 52 53 53 54 54 55 55 55 56
59 58 58 54 54 52 52 51 51 52 47 46 46 45 43 40 39 37 36 37 39 42 44 44 44 45 45 46 53 52 49 49 49 51 51 52 52 52 53 54 54 54 55
55 54 54 53 52 52 52 51 50 48 46 45 44 43 44 44 45 41 38 37 35 41 41 42 43 43 49 45 45 51 51 48 48 49 50 50 50 50 51 52 52 53 54
54 54 53 52 52 52 51 50 49 47 47 44 44 43 43 44 46 42 39 34 33 36 39 38 42 42 43 45 46 49 44 47 47 47 48 48 48 49 49 49 50 51 52
57 54 52 52 51 51 50 49 47 47 46 45 43 43 42 44 45 41 41 40 36 29 32 38 38 43 43 42 43 43 42 46 46 45 46 46 47 47 48 48 49 49 50
55 53 52 51 51 50 50 48 46 45 44 43 44 42 43 42 41 41 41 41 39 37 32 38 40 39 40 45 44 42 42 45 44 44 45 45 46 47 47 47 47 48 48
54 53 53 51 51 50 49 47 45 45 44 42 41 43 43 43 39 39 40 38 37 36 33 36 39 39 37 36 39 40 41 41 41 44 44 44 44 44 45 45 45 46 46
54 53 52 51 51 50 48 46 44 44 44 43 42 43 42 46 39 38 36 35 34 36 33 31 34 34 34 36 36 36 41 44 41 44 44 44 44 43 43 43 43 43 43
53 53 52 50 50 49 47 46 45 43 42 42 41 40 40 39 35 34 33 32 33 36 33 30 30 33 33 35 34 36 37 37 42 44 44 44 44 43 42 42 43 43 43
52 51 50 50 49 49 48 47 46 43 41 42 41 40 40 38 34 32 33 30 32 29 30 28 29 29 31 33 33 31 31 34 34 42 43 42 42 42 42 42 41 42 43
52 51 50 49 48 49 47 42 42 39 38 38 39 41 39 38 39 35 33 29 28 27 27 27 27 27 28 29 28 30 29 31 32 35 35 34 37 37 37 39 41 43 42
50 50 49 48 47 49 37 37 37 35 37 37 35 36 37 40 38 37 37 36 33 26 25 25 26 25 27 29 29 29 28 27 25 33 31 31 34 34 36 35 39 41 37
49 48 47 46 44 37 37 37 35 35 34 35 35 34 36 41 34 31 33 33 33 34 32 29 27 27 27 28 29 27 26 26 26 31 30 28 30 31 37 43 40 41 40
47 46 45 45 44 41 36 36 35 32 33 34 35 34 33 32 28 29 27 27 29 30 32 34 28 28 29 30 30 30 28 29 30 31 33 26 27 30 32 33 40 42 41
45 45 45 44 42 35 36 35 33 32 32 33 36 35 35 32 31 32 27 25 26 28 35 34 33 34 35 35 35 31 26 25 24 27 31 27 27 29 29 28 32 41 41
46 45 43 42 38 35 35 35 33 29 29 30 32 33 33 31 31 30 24 23 21 25 26 27 28 31 33 33 34 33 29 27 27 26 30 26 29 29 24 27 34 33 32

GFSMA_sfc_temp_033.txt.gz
Temp
62 61 61 61 61 62 63 61 63 61 61 62 62 62 62 61 61 60 57 64 64 67 68 67 66 66 65 64 64 64 64 64 64 64 65 64 64 65 65 65 65 65 65
61 61 59 60 60 61 62 60 62 60 58 59 60 60 60 59 59 59 58 56 62 64 65 65 65 65 64 64 63 63 63 63 63 63 63 63 63 63 64 64 64 64 64
59 59 57 58 59 59 59 59 57 57 56 59 57 58 57 57 57 57 57 57 56 61 62 64 64 65 64 64 64 63 64 63 63 63 63 62 62 62 62 63 63 63 63
59 58 57 57 57 58 57 56 55 55 54 53 52 52 52 54 55 56 57 57 54 57 59 62 63 64 63 64 64 64 64 63 63 61 60 60 60 60 61 61 61 62 62
61 58 57 57 57 56 55 56 53 52 50 50 53 52 50 50 51 56 55 56 55 55 55 60 60 60 61 62 62 63 63 63 62 61 60 58 59 59 59 60 60 61 61
61 58 57 57 56 55 53 53 52 51 50 48 56 52 48 49 49 48 49 54 53 53 53 56 55 56 59 60 61 61 62 61 60 59 59 59 58 58 58 59 60 60 61
60 57 55 55 54 53 52 51 50 49 48 47 45 45 46 47 50 47 48 48 49 51 51 51 52 52 51 57 58 59 60 60 58 58 58 58 57 57 57 58 59 60 60
59 59 56 54 54 52 50 49 48 46 46 45 43 41 38 42 45 48 46 47 44 47 49 52 50 50 49 47 50 58 59 57 57 58 57 57 56 56 56 57 57 58 59
60 57 55 54 52 51 49 48 47 46 43 45 45 42 36 34 38 43 45 43 43 43 43 45 48 49 48 46 48 50 54 54 55 55 56 55 55 55 55 56 57 57 57
59 59 56 52 51 50 49 48 50 46 44 42 43 48 42 39 35 33 39 42 43 45 42 42 43 45 46 45 49 50 52 51 51 52 53 54 55 55 55 55 55 56 56
58 55 52 50 49 48 47 47 46 45 44 42 41 41 40 39 39 35 30 35 39 41 42 41 41 41 44 44 43 46 51 50 50 51 53 54 54 54 54 54 55 56 55
51 52 52 49 49 48 47 46 45 45 43 43 45 43 40 38 37 35 32 32 34 37 39 40 40 40 41 41 49 50 50 48 49 50 51 51 52 52 52 52 53 55 55
49 49 51 50 47 47 47 46 45 44 44 42 41 41 41 40 40 40 39 34 31 34 36 38 39 40 44 41 42 48 48 46 47 48 49 49 50 50 50 51 52 52 53
52 51 50 48 48 48 46 46 44 43 43 41 40 40 40 40 41 41 40 35 30 30 32 34 37 38 39 39 43 47 40 45 45 46 46 47 48 48 48 49 50 50 51
54 50 48 48 48 47 47 46 42 41 41 40 39 40 39 41 42 42 40 39 36 28 30 33 32 38 37 38 40 39 38 43 45 44 44 45 46 47 47 48 48 49 49
52 50 50 50 48 47 46 44 42 42 40 39 40 38 38 39 41 40 39 37 36 33 26 32 32 34 36 40 41 38 38 44 43 43 43 44 45 46 46 46 46 47 48
52 50 50 48 48 47 45 43 42 41 40 39 39 38 39 42 39 39 36 33 31 30 26 29 32 32 32 32 36 36 37 37 38 42 43 43 43 44 44 44 44 45 46
50 49 48 48 48 46 44 42 41 41 40 38 38 39 41 43 35 33 30 29 29 29 27 26 27 29 29 31 33 32 37 41 38 41 42 42 43 43 43 42 43 43 43
50 48 48 47 47 46 44 43 42 41 40 39 38 38 37 36 31 29 29 28 28 32 27 25 26 28 28 30 31 32 33 32 38 41 41 41 42 42 42 41 41 42 42
48 47 47 48 47 46 45 45 43 40 38 38 38 37 37 34 31 30 31 28 29 26 26 24 26 26 28 30 29 27 28 30 30 37 38 39 40 40 41 41 40 40 41
48 48 49 48 46 45 45 41 41 37 36 36 36 37 36 37 39 34 31 27 26 24 24 24 24 25 26 26 26 28 26 28 29 30 31 32 33 34 35 38 38 38 39
47 48 46 45 44 46 38 39 37 35 37 35 32 34 34 37 36 37 36 34 31 25 22 19 24 23 25 27 27 25 25 23 22 28 27 27 31 31 33 34 38 38 37
46 44 45 45 43 39 37 38 37 35 34 32 32 32 34 36 32 30 31 31 30 32 29 25 24 25 23 25 25 25 25 23 23 28 27 25 29 27 31 39 39 39 40
43 43 43 43 41 39 37 37 35 32 31 31 32 32 30 28 28 28 27 26 26 27 28 30 25 25 26 27 27 28 27 27 28 29 31 25 27 27 28 31 36 39 39
42 42 43 42 39 35 36 36 34 31 31 31 32 32 32 28 31 32 27 25 24 25 31 33 32 32 33 34 33 30 27 26 24 27 28 26 24 25 25 25 30 38 37
44 43 41 40 39 34 36 36 34 28 28 28 29 30 33 29 31 30 24 22 19 23 25 25 26 27 30 30 32 30 27 24 24 24 28 28 26 25 22 25 28 30 31

GFSMA_sfc_temp_036.txt.gz
Temp
59 59 59 59 59 59 58 58 58 59 58 59 59 58 58 57 56 55 53 61 64 66 68 67 66 65 65 64 64 64 64 63 64 64 63 63 63 63 63 63 63 63 63
59 58 57 58 58 58 58 57 56 55 54 56 56 56 56 55 55 54 54 52 61 64 66 66 65 65 65 64 63 63 64 63 63 63 62 61 61 61 61 61 62 62 62
58 57 56 56 56 57 56 55 54 54 53 55 54 54 53 53 53 53 52 52 52 61 63 64 64 64 64 64 63 63 64 63 63 61 61 60 60 60 60 60 60 61 62
58 56 56 55 55 55 54 53 52 52 50 50 50 49 49 51 51 52 52 52 51 54 59 61 62 62 62 62 63 63 63 63 62 61 61 60 59 59 59 59 59 60 61
58 56 55 54 54 53 52 53 50 50 48 48 51 48 47 47 47 53 50 50 51 52 52 59 59 60 61 61 61 62 62 62 61 61 60 60 60 59 58 58 59 60 60
58 56 54 53 53 52 50 50 49 49 47 46 54 50 46 46 45 45 46 51 49 49 49 50 47 49 58 60 60 60 61 61 60 60 60 59 59 58 57 57 58 59 59
57 55 53 52 52 51 50 50 48 47 45 45 43 43 43 44 46 45 45 44 46 47 47 47 46 45 47 55 58 59 60 60 60 60 59 58 58 57 57 57 57 57 59
56 55 53 52 51 50 49 48 47 44 44 43 42 38 37 40 42 46 43 45 42 44 46 47 46 46 44 44 48 55 57 58 58 58 58 57 57 56 57 57 57 56 57
57 55 53 52 50 49 48 46 45 45 42 42 42 41 35 33 35 40 42 41 41 41 41 42 45 45 45 43 45 47 53 53 54 55 55 56 56 56 56 56 56 56 56
55 54 52 50 49 48 47 47 48 44 42 41 41 45 40 39 34 32 37 40 40 43 40 39 40 42 43 42 47 49 51 51 52 53 54 54 54 55 55 56 56 56 56
52 52 50 48 47 46 46 46 46 42 41 40 40 39 40 38 37 34 31 34 37 39 40 39 39 39 42 42 40 45 50 50 50 51 52 53 53 53 54 54 54 54 55
49 50 49 48 47 47 47 46 44 43 41 41 41 40 39 37 36 34 30 31 32 36 38 40 38 39 39 40 46 48 48 47 48 49 50 51 51 52 52 53 53 54 54
50 49 50 49 49 48 45 45 43 41 40 39 38 38 39 38 38 37 34 34 31 33 34 36 38 38 42 37 38 46 46 45 45 46 47 48 48 49 50 50 51 52 52
50 51 50 50 48 47 46 44 41 41 40 38 38 38 37 38 39 40 39 36 32 29 30 32 35 35 36 36 40 45 38 42 44 44 45 45 46 47 47 48 49 49 50
52 50 50 47 49 47 45 42 40 41 39 38 37 37 36 37 38 39 40 38 34 28 26 29 30 35 34 35 37 36 36 41 43 43 43 43 44 45 46 46 47 47 48
51 50 50 49 48 47 45 42 41 41 39 37 38 36 36 37 40 39 38 37 35 33 25 28 29 30 32 37 38 36 35 41 40 41 42 42 43 44 44 45 45 46 46
51 51 50 47 47 46 45 41 40 40 39 38 38 38 38 39 37 36 34 34 33 30 25 27 29 29 28 28 32 33 34 34 34 40 41 41 42 42 43 43 43 44 44
52 49 48 46 46 45 43 41 40 41 40 39 38 38 38 42 36 33 30 30 29 28 26 24 25 26 27 29 29 28 34 38 33 38 40 40 40 41 41 42 41 42 42
48 46 45 45 45 44 43 41 41 40 39 40 38 36 36 36 33 30 29 29 28 32 26 25 25 26 25 27 28 29 30 30 35 38 38 38 39 40 40 41 41 41 41
46 47 45 45 45 45 44 44 42 40 39 39 38 37 36 34 32 31 31 28 28 26 25 24 25 25 25 28 27 25 27 29 29 34 35 35 37 38 39 39 40 40 41
47 47 45 45 45 45 45 42 42 38 36 36 36 36 35 36 39 34 30 27 26 24 23 23 23 24 25 25 24 26 25 26 27 29 28 29 30 31 32 35 37 39 40
47 45 45 45 44 45 41 40 38 36 37 36 33 33 33 37 36 36 36 34 30 24 21 18 21 21 22 23 24 24 24 22 22 27 25 26 29 28 30 31 35 38 40
43 42 43 42 41 41 38 39 38 35 34 33 31 31 33 35 33 30 33 32 30 31 27 22 21 21 22 24 24 23 24 23 24 27 26 25 27 26 31 35 37 38 38
42 41 41 41 40 40 37 38 36 33 32 32 31 31 30 29 29 29 27 26 26 26 27 28 24 24 24 26 27 28 27 27 27 28 27 23 26 26 29 29 36 37 38
40 40 41 39 38 37 37 37 35 31 30 31 33 33 31 29 31 33 27 26 25 25 31 32 32 32 32 32 32 29 24 23 22 25 26 26 26 26 28 29 29 37 38
40 39 38 38 38 34 36 37 35 30 29 29 30 30 34 30 32 31 25 23 20 24 25 25 26 27 28 28 31 27 25 22 22 22 27 25 27 28 22 24 25 28 28

GFSMA_sfc_temp_039.txt.gz
Temp
58 58 57 58 57 58 57 56 56 56 56 56 55 55 54 53 53 51 49 59 63 65 68 67 66 65 65 64 64 64 64 64 64 63 62 61 61 61 60 60 61 61 62
58 57 56 56 56 56 55 55 54 53 52 53 53 53 52 51 51 51 50 49 59 63 66 66 66 65 65 64 63 64 64 63 62 62 61 61 60 60 60 60 60 60 61
57 56 55 55 54 55 54 53 52 51 51 53 51 51 50 50 50 50 49 49 51 60 62 63 64 64 64 64 64 64 64 63 63 62 61 60 60 60 60 59 59 60 60
57 55 54 54 53 53 53 51 51 49 48 48 47 46 47 48 49 49 49 49 49 51 56 60 61 62 62 62 62 63 63 63 62 62 61 61 60 60 59 58 58 58 60
57 55 53 52 53 52 51 52 49 48 46 47 49 47 45 45 46 50 48 48 49 49 49 56 57 57 60 61 61 62 62 62 62 61 60 60 60 60 58 58 58 58 58
57 55 53 52 51 50 49 49 47 45 45 45 51 48 43 43 44 43 45 49 47 47 46 46 45 47 57 58 59 60 61 61 61 61 60 60 59 59 58 58 57 58 57
56 53 52 51 50 50 48 48 46 46 43 42 43 42 41 42 42 42 42 43 45 45 45 44 44 44 45 54 55 58 58 59 60 59 59 59 58 58 57 57 57 57 57
55 53 51 50 49 48 47 46 46 43 44 43 41 37 36 40 41 42 41 43 40 42 44 45 44 44 42 42 46 55 56 56 57 58 58 58 57 57 57 57 57 57 57
55 53 51 49 48 47 46 45 45 46 42 42 42 42 35 32 35 39 40 40 40 39 40 41 43 44 43 41 44 46 52 53 54 55 56 56 56 56 56 56 57 57 57
53 52 50 48 47 46 45 46 46 42 41 41 40 44 39 38 34 32 36 38 39 41 39 39 39 41 42 40 45 48 49 50 51 53 55 55 55 55 55 55 55 56 56
51 50 49 47 48 46 48 46 44 42 40 39 38 38 37 36 35 33 30 33 36 38 38 38 38 38 40 40 38 42 48 48 49 50 51 52 53 53 54 54 54 54 55
47 48 48 49 48 48 48 44 42 42 41 40 39 38 37 36 35 33 30 30 30 35 37 38 37 38 37 37 44 46 47 46 46 47 48 49 50 51 51 52 52 53 53
46 47 48 49 48 47 47 46 42 42 42 40 39 38 37 38 37 36 33 32 32 37 38 36 38 37 40 35 37 44 44 43 44 45 46 47 47 48 49 49 50 51 51
50 50 49 48 48 48 48 46 43 42 39 38 38 37 37 37 37 37 36 35 33 37 35 36 37 35 34 34 38 43 35 41 42 43 44 44 45 46 46 47 48 48 49
51 49 49 48 48 48 48 45 42 40 40 38 37 38 38 38 39 39 40 38 34 30 29 31 31 32 33 33 34 34 32 38 41 41 41 42 43 44 44 45 46 47 48
51 49 49 49 48 48 46 42 39 40 39 38 38 37 37 37 37 38 37 36 35 32 25 29 29 30 30 35 34 32 31 38 38 39 40 41 41 42 43 43 44 45 46
51 50 50 49 48 46 42 40 40 40 40 38 37 37 37 37 36 36 33 33 31 30 26 29 28 28 27 27 29 29 31 30 31 38 39 39 40 40 40 41 42 43 44
48 50 50 48 46 45 42 40 39 40 38 37 37 36 37 41 35 33 31 30 30 29 27 25 25 25 26 27 27 26 32 35 31 36 38 38 38 39 39 40 40 41 41
49 48 46 45 45 43 42 41 39 38 37 37 37 36 37 35 33 31 30 29 28 31 26 24 24 25 25 25 27 28 28 29 33 37 37 37 37 37 38 39 39 40 40
47 46 46 46 45 44 44 43 40 38 37 37 37 36 36 34 32 30 30 29 28 26 25 23 23 24 24 26 25 24 26 28 28 33 34 34 35 36 37 37 37 38 39
46 47 46 45 44 45 46 42 40 37 36 36 36 35 35 35 38 34 30 27 26 24 23 22 22 23 23 23 22 24 23 25 26 28 28 28 30 30 31 33 35 37 37
45 45 43 43 43 44 42 40 39 35 35 35 33 33 33 37 37 38 37 34 29 24 22 18 20 20 21 21 22 22 22 21 21 26 25 26 29 28 30 30 34 36 37
42 40 41 41 40 39 40 40 38 34 33 33 32 32 32 35 34 31 34 34 33 32 27 22 19 20 20 22 23 22 23 24 23 27 25 25 28 26 31 33 35 37 38
39 38 38 39 37 38 39 38 37 32 32 32 31 31 30 31 30 30 28 27 27 27 28 28 24 23 24 25 25 26 26 26 26 26 26 22 26 26 29 30 34 36 37
37 37 38 36 35 35 38 37 35 30 30 30 33 33 31 29 32 34 28 26 26 27 31 32 32 32 32 32 31 23 22 22 20 23 26 24 24 26 28 28 30 35 37
37 36 36 35 36 34 37 37 35 27 28 30 30 31 34 31 32 33 26 23 21 24 26 25 26 27 28 27 30 26 23 20 21 19 26 21 25 26 23 24 24 27 28

GFSMA_sfc_temp_042.txt.gz
Temp
58 57 56 56 56 56 55 55 54 55 54 54 53 53 52 51 51 50 49 58 62 65 68 67 66 65 65 64 64 64 64 64 63 63 62 62 61 61 61 61 60 61 61
56 56 55 55 54 55 54 54 53 52 51 52 51 51 50 50 50 50 50 50 61 64 66 66 65 65 65 64 64 64 64 63 62 62 61 61 61 61 60 60 59 59 60
56 55 54 53 53 53 53 52 51 50 50 51 49 49 49 49 49 49 49 50 52 60 61 63 64 63 63 64 63 63 64 63 63 62 62 61 61 61 60 59 59 59 59
56 54 53 52 52 52 52 51 50 48 47 48 46 46 46 48 48 48 48 49 50 51 54 59 60 61 62 62 62 63 63 63 62 62 62 61 61 60 60 59 58 58 58
56 54 53 52 52 51 50 51 48 48 46 47 48 45 44 45 46 50 48 48 48 48 49 56 57 57 59 60 61 61 62 62 62 62 61 61 60 60 59 59 58 58 58
55 54 52 51 51 49 48 48 47 45 45 45 51 46 43 43 44 44 45 49 47 46 47 47 47 49 56 57 58 60 60 61 61 61 60 60 60 59 59 58 58 58 58
54 53 51 50 49 48 47 47 45 45 44 43 43 42 41 42 43 43 44 44 45 45 45 45 45 45 46 53 55 57 58 59 59 59 59 59 59 59 58 58 58 58 58
54 52 50 49 48 47 46 46 45 43 42 42 40 38 36 40 42 43 42 43 42 43 45 46 45 46 45 44 47 54 56 56 56 57 57 57 57 57 57 57 57 57 57
53 52 50 48 47 46 45 44 44 44 41 42 42 40 36 34 36 40 40 41 41 41 41 42 44 45 45 43 45 46 50 51 53 54 55 56 56 56 56 56 57 56 57
52 51 49 47 46 45 44 44 45 43 42 41 40 43 40 40 36 34 38 40 40 41 40 41 42 42 42 42 44 45 47 49 50 52 54 54 55 55 55 55 55 56 56
50 49 48 46 45 44 44 45 44 43 41 40 39 39 38 37 36 34 31 35 38 41 41 40 40 40 41 41 40 43 47 46 47 49 50 51 52 52 53 54 54 54 54
46 47 47 45 45 45 46 45 45 43 41 41 39 39 39 37 36 34 31 32 31 36 39 40 40 41 40 39 44 45 45 44 45 46 47 48 49 50 51 51 52 52 53
44 45 46 45 45 45 47 45 45 45 40 39 39 38 38 38 39 37 34 33 31 35 38 41 39 39 41 38 39 43 43 42 42 43 44 45 47 47 48 49 49 50 51
47 47 48 48 46 46 46 46 44 43 41 39 38 37 38 39 38 37 36 35 34 36 36 36 38 37 37 37 39 41 36 39 40 41 42 43 43 44 45 46 47 48 49
50 49 48 47 45 46 47 46 44 43 41 38 38 37 36 37 38 38 38 39 34 30 30 33 33 35 35 35 36 36 34 37 39 40 40 41 42 43 43 44 45 46 47
51 48 47 47 47 47 47 45 43 41 39 38 38 36 36 37 36 36 36 36 36 33 28 32 32 33 34 36 35 35 33 38 37 38 39 39 40 41 41 42 43 43 44
49 47 46 47 47 46 45 44 42 39 39 38 38 36 36 36 35 35 35 34 32 32 28 31 31 32 30 31 32 31 32 32 33 36 38 38 39 39 39 40 40 41 42
47 48 48 47 47 46 45 42 39 42 38 36 36 36 36 39 34 34 32 31 30 30 29 27 28 28 28 30 29 29 32 34 33 35 36 38 38 38 38 38 39 39 40
47 46 47 46 46 45 43 41 41 39 38 37 36 35 35 35 33 32 31 30 29 32 29 26 26 28 28 28 29 30 30 31 33 36 36 36 36 37 37 38 38 39 39
46 46 46 45 45 45 43 43 42 40 37 37 36 35 36 34 33 32 31 29 29 28 27 25 25 26 26 28 27 26 26 29 29 32 33 34 35 36 36 36 37 37 38
44 45 44 43 43 43 44 43 42 38 36 35 35 35 34 35 38 34 31 29 28 26 25 25 24 25 25 24 24 26 24 26 27 30 30 31 32 33 33 34 35 36 36
44 43 43 42 41 43 42 41 39 36 35 34 33 32 34 37 37 38 37 36 30 26 24 22 23 22 23 23 24 23 23 23 22 31 28 28 32 30 32 33 34 36 37
42 41 41 41 39 39 39 39 39 35 33 32 32 33 33 35 34 33 35 36 34 33 27 26 22 23 21 24 25 23 24 24 24 29 28 25 30 28 32 34 35 36 36
40 39 38 37 37 38 38 38 37 33 32 32 32 32 32 32 33 31 30 29 29 29 29 29 26 25 25 27 26 27 25 25 27 29 29 21 29 27 31 32 34 35 36
38 38 37 36 35 35 37 38 36 31 30 31 32 32 32 33 34 35 29 27 27 28 32 33 33 31 32 32 32 27 23 22 20 23 28 24 27 26 29 30 33 35 37
37 35 35 34 35 33 36 37 36 29 29 30 30 33 35 32 33 34 29 26 23 26 27 27 27 28 30 29 30 28 25 20 20 20 28 23 25 26 24 30 30 33 34

GFSMA_sfc_temp_045.txt.gz
Temp
66 67 67 69 69 68 68 67 67 67 66 65 65 64 64 64 64 68 68 60 63 65 69 68 67 66 65 64 64 65 64 64 64 63 62 61 61 62 61 60 60 60 60
68 68 67 67 67 68 68 67 67 66 65 65 63 63 63 64 64 64 68 66 61 64 66 67 66 66 65 64 64 64 64 64 64 63 63 62 62 61 61 61 60 59 60
66 66 65 65 66 66 64 64 64 65 65 64 61 62 63 62 64 63 65 66 66 60 61 63 64 63 63 63 63 63 64 64 63 63 63 62 62 61 61 60 59 59 59
65 65 65 65 64 65 65 61 64 63 63 64 62 62 63 63 62 62 63 64 64 66 62 60 61 61 62 62 63 63 63 63 63 63 62 62 61 61 60 60 59 59 59
64 65 66 64 64 64 61 64 62 63 61 62 62 61 62 62 61 63 61 61 61 63 66 58 58 58 59 60 61 61 62 62 62 62 61 61 61 61 60 59 59 59 59
65 65 65 63 61 59 61 62 60 61 61 62 62 61 60 60 61 61 60 62 62 60 62 61 64 63 56 57 58 59 60 61 61 60 60 60 60 60 60 59 59 59 59
65 64 63 62 62 62 61 60 59 59 60 59 60 59 58 56 57 60 59 60 59 59 59 61 61 62 62 53 55 57 58 59 59 59 58 58 58 58 58 58 58 58 58
64 61 61 62 62 61 59 59 59 58 59 58 57 55 53 53 56 57 58 57 56 59 59 58 57 57 58 59 56 54 54 55 56 56 56 56 57 57 57 58 58 58 58
62 59 61 61 60 61 59 59 59 58 57 56 54 54 52 52 53 55 54 56 55 57 57 57 56 55 55 56 54 53 50 50 52 54 55 55 55 56 57 57 57 57 57
60 59 60 60 59 59 58 58 59 58 56 54 54 54 54 54 51 49 54 55 55 54 55 56 56 54 53 54 50 47 48 47 48 51 52 53 54 54 54 55 55 56 56
59 59 59 58 58 59 57 57 55 55 50 47 53 53 52 53 52 49 47 50 54 55 55 54 54 54 52 51 51 49 46 45 46 47 49 50 51 52 52 53 53 54 55
59 58 59 58 57 57 56 56 55 51 49 51 54 54 53 52 51 49 47 48 47 50 52 53 53 53 53 52 48 45 45 44 43 45 46 47 48 49 50 51 52 52 53
56 56 57 55 56 56 54 52 46 46 50 48 50 53 53 52 53 51 48 46 45 48 49 51 52 51 51 51 48 43 44 41 41 42 43 44 45 46 47 48 48 49 50
57 56 55 55 54 51 50 46 47 49 52 53 51 51 52 53 52 51 48 45 42 45 47 45 51 50 50 50 45 42 46 41 40 41 41 42 43 43 44 45 46 47 48
53 54 54 54 54 50 48 47 50 52 52 51 51 50 50 52 51 51 49 48 42 36 41 47 45 48 49 48 46 45 45 42 39 40 39 40 41 42 42 43 44 45 46
54 53 54 53 50 49 50 48 52 51 51 50 50 49 49 50 50 49 49 48 46 40 38 47 47 47 47 47 45 44 44 39 40 38 38 39 39 40 41 41 42 43 43
54 54 54 50 49 48 49 47 47 50 49 50 49 49 48 49 49 48 48 48 46 44 39 45 46 46 44 43 44 44 43 42 43 39 38 38 38 39 39 39 39 40 41
52 51 50 48 47 48 51 47 47 46 50 49 49 48 48 48 47 48 47 46 46 46 42 40 44 43 41 42 42 40 41 42 42 40 37 37 37 37 38 38 38 39 39
52 49 49 47 47 47 48 46 47 50 50 49 49 48 48 47 46 47 46 46 46 44 43 40 40 43 41 41 40 40 40 40 41 39 38 37 37 37 37 38 38 38 39
50 50 48 48 47 46 48 48 50 49 48 48 48 47 47 46 46 47 46 45 44 43 42 40 40 39 40 40 38 36 36 39 38 40 39 37 36 37 37 37 37 37 38
47 48 45 46 45 45 45 45 47 48 48 48 47 46 46 46 43 44 45 45 43 41 41 39 38 38 37 37 35 36 34 36 38 39 39 40 40 41 41 39 39 38 38
46 48 45 43 43 43 40 41 42 47 47 46 46 46 46 40 40 38 38 38 41 41 38 38 37 36 36 36 35 34 33 32 30 41 36 36 40 39 40 41 39 37 37
44 43 43 43 41 43 40 40 39 46 46 46 45 46 45 43 40 44 39 37 37 35 33 39 35 36 34 36 35 33 33 32 32 36 35 32 37 36 40 41 38 37 37
42 42 42 43 45 45 39 38 37 45 45 45 44 45 45 44 41 41 41 37 40 41 39 37 38 38 38 37 36 35 33 33 35 37 37 28 36 34 38 39 38 38 37
43 45 45 45 44 45 38 37 39 44 43 43 45 44 43 43 39 37 36 36 38 39 37 35 35 34 33 32 33 34 31 30 28 32 36 32 33 32 35 37 41 38 37
44 45 44 44 41 43 40 37 39 41 39 41 43 43 36 40 37 35 36 34 33 37 38 37 37 36 35 36 32 34 34 28 28 28 36 29 31 32 28 36 38 38 39

GFSMA_sfc_temp_048.txt.gz
Temp
75 77 77 78 78 78 77 76 74 74 73 72 72 72 72 71 72 75 76 62 64 66 69 68 67 66 65 65 65 65 64 64 64 63 63 62 62 62 62 61 60 60 60
76 77 76 77 77 77 76 76 75 74 74 73 71 71 70 72 71 71 76 70 61 64 67 67 67 66 66 65 65 64 64 64 64 64 63 63 62 62 61 61 60 60 60
76 76 76 75 76 76 75 73 73 73 74 74 71 71 73 71 72 72 75 75 69 60 62 63 64 64 64 64 64 64 64 64 64 64 63 63 62 62 61 60 60 60 60
75 75 75 75 74 73 74 73 71 73 73 74 72 73 73 73 70 71 73 74 74 74 61 60 61 61 62 62 63 64 64 63 63 63 63 62 62 62 61 61 60 60 59
73 74 75 73 72 73 71 71 72 72 70 71 71 73 72 73 71 72 69 69 69 71 71 59 58 59 59 60 61 62 62 62 62 62 62 61 61 61 61 60 60 60 59
73 74 74 71 73 72 70 70 69 71 72 72 72 70 69 69 70 68 67 69 69 66 67 66 67 66 58 58 59 60 61 61 61 61 60 60 59 59 59 59 59 59 59
73 73 73 71 71 69 70 69 68 66 67 69 69 68 68 65 64 66 67 67 66 65 64 65 66 67 67 57 57 57 58 59 59 59 58 58 58 58 58 58 58 59 59
74 73 73 70 70 71 68 67 67 66 68 68 67 64 60 62 63 64 66 64 63 65 64 63 63 63 63 64 60 54 54 54 55 56 56 56 56 57 57 57 58 58 58
69 72 69 66 67 70 67 67 67 66 65 65 64 63 59 58 62 65 61 63 62 62 63 63 63 62 61 61 59 58 49 50 51 53 54 55 55 55 55 56 56 57 57
69 71 68 66 65 69 68 67 67 66 65 63 63 63 61 61 58 57 62 61 61 61 61 62 62 62 61 60 56 49 48 47 47 49 51 52 53 53 53 54 54 55 55
69 69 67 65 64 66 67 66 64 64 64 64 59 60 58 60 59 56 54 60 62 63 62 60 60 60 60 58 58 52 46 46 46 47 48 49 50 51 51 52 53 53 54
66 66 67 66 64 66 65 64 64 63 58 54 57 60 60 59 59 57 54 55 55 58 60 59 58 59 59 58 53 44 46 45 44 44 46 46 48 48 49 50 50 51 52
59 59 62 64 65 66 65 63 56 57 56 56 58 60 61 60 60 58 55 54 52 57 57 59 59 58 58 57 56 44 47 45 43 43 43 44 45 46 46 47 48 49 50
58 61 61 62 64 62 58 52 54 56 57 57 57 58 60 60 60 58 55 52 48 51 54 54 58 57 57 56 52 43 51 46 44 42 42 42 43 43 44 45 45 46 47
59 61 60 59 57 60 57 51 53 49 51 54 53 55 57 59 58 58 57 55 49 42 47 53 53 57 56 55 53 52 50 47 43 42 41 40 41 42 42 43 43 44 45
60 59 56 58 58 54 51 50 49 49 50 51 51 52 56 58 57 57 56 55 54 50 45 53 54 55 55 54 53 51 50 46 44 43 41 40 40 40 40 41 41 42 42
60 56 58 59 55 50 48 46 46 48 49 47 49 52 53 57 56 56 55 55 53 52 48 51 55 55 52 50 50 51 50 49 49 44 42 40 39 39 39 39 39 40 40
56 56 55 51 50 47 46 46 46 45 46 47 50 53 53 57 55 54 55 51 50 52 50 47 51 51 51 51 49 47 48 49 49 46 42 40 39 39 38 38 38 39 39
52 51 50 51 49 47 45 45 46 46 46 50 51 52 53 54 53 53 52 49 52 53 50 48 47 51 51 51 48 48 47 47 49 45 42 41 40 39 39 38 38 38 39
51 50 49 47 46 45 48 47 46 46 48 50 50 51 53 53 52 52 52 49 49 49 49 48 47 47 48 49 48 44 44 47 46 48 45 42 40 40 39 40 40 39 39
52 51 48 44 46 47 46 46 45 45 46 47 50 54 54 51 47 48 53 52 49 47 47 46 45 45 45 45 44 45 42 43 44 46 45 46 46 46 46 44 43 41 40
50 48 50 48 46 47 40 39 41 44 46 51 50 52 54 49 46 41 40 40 44 47 45 43 42 40 43 45 45 43 41 39 36 46 43 41 45 44 45 46 42 39 39
48 47 46 45 45 45 40 40 39 49 50 51 51 52 52 54 47 50 41 38 37 37 35 43 40 42 42 44 44 41 40 39 38 42 41 37 42 41 45 46 41 39 39
46 45 44 46 47 48 41 39 38 48 50 51 51 51 51 51 51 49 48 48 47 48 44 43 43 45 46 46 44 42 40 39 40 42 43 34 41 39 43 44 41 40 39
43 47 50 51 51 52 41 39 39 48 49 49 51 51 51 50 45 40 44 44 45 44 43 39 38 37 36 34 35 39 35 35 33 38 42 38 38 37 39 40 43 40 39
53 53 51 51 46 49 43 39 40 46 45 46 48 49 42 44 40 37 42 41 39 43 43 43 42 38 36 39 33 37 38 33 34 33 41 36 37 37 32 39 41 42 41

GFSMA_sfc_temp_051.txt.gz
Temp
73 78 78 79 79 80 78 78 76 76 75 74 75 74 74 73 74 77 72 63 65 66 69 68 67 66 66 65 65 65 65 65 64 64 64 63 63 63 62 61 61 61 61
76 78 77 78 79 79 80 78 77 76 76 75 72 73 72 74 73 73 77 68 62 65 67 68 67 67 66 65 65 64 64 65 65 65 64 64 63 63 62 61 61 60 60
76 77 77 78 79 79 77 77 75 76 75 76 73 73 73 72 74 73 75 74 67 61 63 64 65 64 64 64 64 64 64 64 64 64 64 63 63 62 62 61 61 61 60
77 77 78 77 77 76 76 75 74 74 74 75 73 74 74 73 72 71 74 74 74 72 61 62 62 61 62 62 63 63 64 63 63 63 63 62 62 61 61 61 61 61 61
76 75 77 77 75 75 75 74 73 74 72 72 73 73 72 73 71 74 71 70 70 70 72 61 61 60 60 60 61 62 62 62 62 62 62 61 61 60 60 60 60 60 60
76 76 77 75 74 75 74 73 72 73 73 72 74 72 71 71 71 70 69 70 70 68 68 67 66 65 59 60 60 60 61 61 61 61 61 60 60 59 59 59 59 59 60
76 75 77 75 74 74 72 71 70 68 69 71 69 69 69 68 67 68 69 69 68 67 67 66 66 67 65 59 59 59 59 59 59 59 59 58 58 58 58 58 58 59 59
77 76 76 74 73 73 70 69 69 67 69 69 66 67 62 66 65 65 67 67 65 67 66 66 64 64 64 64 60 57 56 55 55 56 56 56 56 57 57 57 57 57 58
77 76 75 75 72 71 69 68 68 68 66 67 66 64 60 57 62 65 63 65 64 64 64 65 64 64 64 63 61 59 51 50 51 53 54 54 54 55 55 55 55 56 56
71 73 74 72 70 70 67 67 70 68 67 65 66 66 64 60 56 57 65 63 63 62 62 63 63 63 63 63 60 51 49 47 47 49 50 52 52 53 53 53 54 54 55
72 74 74 70 68 69 68 66 67 67 67 66 65 59 56 60 61 56 54 60 62 64 65 63 62 61 61 61 60 50 47 46 46 47 48 50 50 51 51 52 52 52 53
73 71 70 68 67 67 67 67 67 65 66 62 56 56 58 58 58 57 56 57 58 61 63 63 60 60 61 60 56 48 47 45 46 46 47 47 48 48 49 50 50 50 51
70 69 68 65 62 62 63 67 65 60 57 54 53 57 58 60 59 59 57 56 54 58 59 61 61 61 61 59 58 49 49 47 47 45 45 45 46 46 47 47 48 49 49
70 66 61 60 62 62 62 58 54 55 57 54 53 50 50 53 56 58 56 54 49 52 55 55 61 61 60 59 53 47 53 48 46 45 44 44 44 44 44 45 45 46 47
63 60 58 61 62 63 56 52 52 53 49 53 48 49 51 53 54 58 58 56 50 43 46 54 54 59 59 59 56 55 53 50 46 44 44 44 43 43 43 43 43 44 45
63 61 61 61 60 55 54 55 50 49 48 46 48 47 48 52 56 57 56 56 54 49 46 54 55 56 57 59 56 54 53 49 47 45 44 43 43 42 42 41 41 42 42
64 62 62 59 55 56 54 48 49 47 46 46 45 46 48 53 54 55 56 55 54 53 48 52 55 57 55 54 55 54 53 52 51 46 44 43 42 41 41 40 40 40 40
58 57 54 53 50 48 47 44 45 47 45 44 47 46 47 52 52 54 54 52 53 53 49 46 52 53 53 54 53 52 52 53 51 49 45 43 42 41 40 40 39 39 40
53 52 51 49 47 46 45 46 45 45 44 45 45 46 49 49 49 51 52 52 53 52 51 49 48 53 53 53 51 52 50 50 51 49 45 43 43 42 41 41 40 40 40
51 50 50 48 46 45 46 46 45 44 45 46 46 47 48 48 49 50 51 53 53 50 49 48 48 49 50 52 51 48 46 49 48 50 48 45 44 44 43 42 41 40 40
52 51 48 47 46 46 46 45 46 46 44 44 45 47 49 49 47 47 52 51 52 50 49 46 45 47 47 48 46 48 45 46 47 47 47 47 47 47 47 45 45 43 41
56 54 52 51 50 51 41 41 43 44 44 44 46 48 53 50 50 43 43 42 44 46 47 46 46 43 45 45 46 44 43 41 38 47 44 43 45 44 45 46 43 41 40
55 52 50 50 50 48 40 40 39 47 49 51 52 52 53 55 50 54 46 40 39 38 35 43 43 44 43 45 44 42 42 41 40 44 42 38 43 41 45 47 43 41 40
53 51 49 46 48 50 41 40 39 49 50 51 52 52 52 52 52 50 50 50 50 49 46 45 44 45 45 47 45 44 42 41 41 42 43 35 42 40 43 44 42 41 40
46 50 51 51 52 54 42 40 41 49 49 49 52 52 52 52 47 43 47 46 47 47 48 41 42 41 37 36 37 41 37 35 33 37 42 39 40 38 40 40 43 41 39
54 56 54 54 44 51 42 40 42 45 43 45 47 49 43 45 42 40 44 44 41 44 46 47 45 41 38 40 34 38 38 33 34 33 41 37 37 37 32 39 40 41 41

GFSMA_sfc_temp_054.txt.gz
Temp
67 67 67 68 68 68 67 67 66 67 66 67 66 66 65 64 65 63 58 64 65 67 69 68 67 67 66 66 65 65 65 65 65 65 64 64 63 63 62 62 61 61 61
67 68 68 69 68 69 69 68 66 66 65 65 64 65 64 63 64 63 60 58 63 65 68 68 67 67 66 65 65 64 64 64 64 64 64 64 63 63 62 62 61 61 61
69 69 68 67 68 69 69 67 66 66 65 66 63 63 63 64 64 64 63 60 58 62 64 66 66 66 65 64 64 64 64 64 64 64 64 63 63 62 62 61 61 61 61
69 68 67 68 68 67 67 65 64 63 63 63 61 60 62 63 63 63 63 62 60 61 60 62 63 63 62 63 63 63 63 63 63 63 63 62 62 61 61 60 60 60 60
69 67 68 68 68 66 65 65 63 63 62 61 62 60 60 60 61 67 62 62 60 60 58 60 61 61 62 62 62 62 62 63 62 62 62 62 61 60 60 60 59 59 60
69 67 67 67 66 65 64 64 62 63 62 61 69 64 59 59 59 58 59 63 60 60 58 57 53 55 60 61 61 62 62 62 61 61 61 61 60 59 59 59 59 59 59
69 68 66 66 65 64 64 63 62 61 59 60 57 57 57 57 57 57 57 57 59 59 57 57 55 54 54 60 60 61 60 60 60 59 59 58 58 58 58 58 58 58 58
70 68 66 66 64 64 64 62 61 57 58 58 55 54 50 52 54 57 56 57 56 57 58 58 56 56 54 53 53 59 59 58 57 56 56 56 56 56 56 57 57 57 58
70 69 67 66 65 64 61 60 60 58 55 58 57 53 49 47 49 53 55 54 54 53 54 55 57 57 55 53 54 53 53 52 52 53 53 54 54 54 55 55 55 56 56
68 70 68 66 64 63 62 60 61 60 60 56 57 58 55 51 47 49 50 52 53 55 52 52 53 55 54 52 55 50 50 49 49 49 51 52 52 53 53 53 53 54 54
67 67 66 65 63 62 61 60 59 60 59 57 56 55 50 52 53 49 43 50 51 52 52 52 51 51 54 53 47 48 48 47 47 48 49 50 51 51 51 51 52 52 52
66 66 67 64 62 60 60 59 59 59 58 56 54 53 52 51 51 50 46 46 47 51 54 53 50 49 50 50 54 49 47 46 47 48 48 49 49 49 49 50 50 51 51
65 65 63 62 61 61 59 58 57 57 55 51 50 49 51 50 51 50 48 47 45 49 51 52 51 49 53 48 47 47 47 46 46 48 48 47 48 48 48 48 48 48 49
66 65 62 63 60 58 58 57 54 51 50 49 49 47 48 48 49 50 49 46 42 45 45 47 51 49 48 48 46 49 45 46 46 47 47 46 46 47 46 46 46 46 47
64 61 60 58 57 57 56 52 50 50 49 48 47 46 46 46 48 49 49 50 42 33 37 43 45 51 50 48 46 43 43 49 47 45 45 46 47 47 46 45 45 45 45
59 58 57 57 57 56 52 51 49 48 46 45 46 45 45 46 47 49 50 47 47 42 35 44 45 46 48 53 49 45 45 50 47 45 44 45 46 45 45 44 44 44 43
60 59 58 57 55 52 51 48 46 45 44 44 44 44 44 45 46 48 49 47 44 43 39 40 44 45 44 44 47 45 45 43 42 46 45 44 43 43 43 43 42 42 42
59 58 56 53 51 49 46 45 44 44 44 43 44 44 44 48 46 48 47 45 44 44 42 39 41 41 42 44 44 42 46 50 43 48 46 44 43 42 42 42 41 41 41
52 51 50 48 46 46 44 44 45 44 44 44 44 44 45 46 44 46 44 44 44 48 45 38 40 40 41 41 40 42 41 40 46 49 46 44 44 43 43 42 42 41 41
49 48 48 47 46 45 45 45 45 44 44 44 45 45 45 45 45 45 45 45 45 43 43 41 40 40 38 40 39 37 36 37 38 48 46 44 43 44 44 42 41 42 42
49 48 46 45 45 45 46 45 45 44 43 44 44 45 46 46 45 45 47 45 41 39 39 38 38 37 36 35 34 37 37 35 35 38 35 36 36 36 37 41 43 43 42
49 48 47 46 44 48 42 42 43 43 44 43 42 44 45 44 44 42 43 42 43 41 38 36 38 38 36 37 35 33 33 30 28 37 33 31 35 33 35 36 42 41 41
49 49 48 47 47 44 40 41 40 43 42 42 42 44 46 51 45 45 43 41 39 39 37 40 37 37 37 37 34 32 32 31 32 33 31 28 31 30 35 43 42 42 41
48 47 46 45 45 46 40 40 39 40 42 43 43 43 42 43 44 42 40 39 41 43 40 39 36 38 38 37 36 36 33 33 31 32 34 26 30 29 32 33 41 42 41
45 46 48 46 46 45 40 40 39 40 40 39 44 42 42 40 40 39 37 35 37 40 45 43 41 40 40 40 38 32 28 28 23 28 31 30 30 27 30 30 31 41 40
50 51 50 47 44 41 39 37 39 35 33 31 35 38 38 38 36 37 33 32 31 33 36 37 38 36 36 35 35 35 32 31 28 25 31 30 29 28 22 29 30 31 30

GFSMA_sfc_temp_057.txt.gz
Temp
63 64 63 63 63 63 63 62 63 64 63 63 62 62 62 59 58 57 54 64 65 68 69 68 68 67 66 66 65 65 65 65 65 65 64 64 63 63 62 62 62 61 61
63 65 63 64 63 64 63 63 62 62 62 62 61 61 61 60 58 57 55 57 64 65 68 68 68 67 66 65 65 64 64 64 64 64 64 63 63 62 62 62 61 61 61
65 65 64 63 64 65 64 63 62 61 60 62 61 60 60 59 60 58 57 56 58 63 65 67 67 67 66 66 64 64 64 63 63 63 63 63 62 62 61 61 60 60 60
66 65 63 63 64 64 63 61 61 60 59 58 56 57 57 58 60 60 57 56 55 58 61 63 64 64 64 64 64 63 63 63 63 63 63 62 61 61 60 60 60 60 60
66 64 63 64 64 61 61 62 60 60 58 57 57 56 56 56 57 63 58 56 55 55 55 61 62 62 63 63 63 63 63 63 62 62 62 61 61 60 60 59 59 59 59
66 64 63 63 61 61 61 60 60 59 58 57 65 60 55 55 55 54 56 59 57 55 54 54 53 54 60 62 62 63 63 63 62 61 60 60 60 59 59 59 59 59 59
66 64 63 62 60 61 60 60 58 58 56 56 54 53 52 53 54 53 53 54 55 55 53 52 50 50 53 60 61 62 62 62 61 60 59 58 57 57 57 57 58 58 58
67 64 62 61 60 60 59 59 58 55 55 54 52 52 50 50 51 53 52 54 54 54 54 54 53 52 50 50 52 61 61 61 59 57 56 55 55 55 56 56 56 56 57
66 65 63 61 62 61 59 57 57 56 53 53 54 54 47 45 46 49 51 55 54 50 51 53 53 53 52 49 53 56 57 55 55 55 54 53 54 54 54 55 55 55 55
65 66 65 61 61 61 58 58 58 55 54 54 52 58 55 52 47 47 50 50 53 51 49 49 51 52 52 49 50 50 52 51 52 53 52 52 53 53 53 53 53 53 53
66 66 65 62 60 61 58 57 56 55 58 55 53 53 51 50 52 48 44 49 51 52 50 50 48 48 51 48 45 48 50 49 50 51 51 51 52 51 51 51 51 52 52
64 64 63 60 59 58 57 57 57 57 56 53 52 51 50 49 48 46 46 46 47 50 50 49 46 47 50 48 50 49 48 48 49 50 50 51 51 50 51 51 50 50 50
60 62 62 59 57 57 59 58 56 55 54 51 50 49 49 47 48 48 46 44 43 48 49 50 50 48 51 45 46 48 48 46 47 49 50 50 50 50 50 50 49 49 49
63 63 61 60 59 59 57 56 55 52 50 49 49 47 46 46 47 48 46 44 41 43 44 47 49 48 46 44 45 48 45 46 46 47 48 49 49 49 49 48 48 48 48
60 60 59 59 57 57 56 54 51 49 49 47 46 46 45 46 46 47 47 46 43 38 35 42 43 48 45 44 44 44 41 46 46 46 46 47 48 48 48 48 47 47 47
56 56 55 56 56 55 52 51 49 48 47 46 45 45 45 46 46 46 46 46 46 43 38 39 41 43 44 49 45 43 42 46 46 45 45 45 46 47 48 47 47 46 46
57 56 56 55 54 52 50 48 47 46 46 45 45 45 45 45 45 45 46 46 46 43 42 37 40 42 40 41 44 41 42 42 43 44 44 44 44 45 45 45 45 45 45
57 56 55 54 51 49 48 46 46 45 45 44 44 44 44 47 45 46 46 45 45 44 41 37 37 38 40 41 40 39 44 48 43 45 46 45 44 43 43 43 43 43 43
52 52 51 50 48 47 46 45 45 45 44 45 44 44 44 44 43 44 44 43 44 46 42 40 40 37 41 38 39 38 39 39 44 47 45 44 44 43 43 42 42 42 42
49 49 48 47 46 45 45 45 45 44 44 44 44 44 44 44 44 44 44 44 44 42 43 41 41 41 36 42 39 40 37 35 39 45 46 43 43 44 44 43 42 42 42
48 47 46 45 45 45 45 44 45 43 43 43 43 44 45 45 44 43 44 40 39 38 35 35 36 34 32 32 33 37 34 33 35 35 34 35 38 35 35 41 42 43 43
47 46 46 45 44 45 40 41 42 43 43 43 42 42 41 42 42 41 41 40 41 39 36 35 36 36 36 31 32 32 30 32 31 34 34 31 33 32 34 33 40 41 41
44 43 42 42 41 41 41 41 40 43 42 39 38 39 40 45 39 38 37 37 37 38 35 37 36 36 35 36 33 31 30 30 31 32 30 28 28 28 32 40 41 41 41
43 43 44 45 44 44 40 39 37 37 37 37 37 37 35 35 36 36 33 32 34 35 36 38 37 37 38 38 35 38 36 35 32 32 32 25 27 28 29 31 38 41 41
45 45 45 41 41 41 38 38 38 35 34 32 36 35 35 33 35 36 31 28 29 30 37 38 38 38 37 37 38 36 32 28 27 27 29 29 27 27 28 28 30 39 39
45 45 43 40 38 35 37 37 35 29 28 28 30 33 34 33 34 34 30 27 26 27 28 29 31 33 35 35 36 35 36 31 29 23 28 29 28 25 22 27 29 28 28

GFSMA_sfc_temp_063.txt.gz
Temp
62 62 62 60 59 61 59 60 59 60 59 59 57 56 55 54 55 55 56 64 66 68 68 68 67 67 66 65 65 65 65 64 64 64 63 63 62 62 61 61 61 61 61
62 63 61 60 58 60 60 58 59 59 58 59 56 56 55 55 55 54 55 58 64 66 68 68 68 67 66 66 65 64 64 64 64 63 63 62 62 61 61 60 60 60 60
63 62 62 60 59 60 59 58 58 57 57 59 58 56 55 54 55 56 55 55 57 63 65 67 67 67 66 66 65 64 64 63 63 63 63 62 61 61 60 60 60 59 60
63 62 59 58 59 59 58 57 57 56 56 56 55 54 55 55 55 55 55 55 55 57 61 64 66 66 66 66 65 64 64 63 63 62 62 61 61 60 60 59 59 59 59
62 61 60 59 59 57 58 59 57 56 55 54 54 53 53 54 54 57 54 54 53 54 55 61 63 63 64 65 65 65 65 64 63 62 61 61 60 59 59 58 58 59 59
63 60 59 59 59 58 57 57 57 55 55 54 60 56 53 52 52 51 52 55 53 54 53 55 55 56 61 63 64 65 65 65 63 62 61 60 59 57 57 57 57 57 57
63 61 59 59 59 58 58 57 55 55 54 53 52 51 50 50 50 50 50 51 52 52 51 52 51 50 53 61 63 64 65 65 64 63 61 59 58 56 56 56 56 56 57
62 61 60 59 59 58 57 56 55 53 53 52 51 48 47 49 49 50 48 50 49 50 51 51 50 50 49 49 53 63 64 64 64 63 61 59 57 56 55 55 55 56 55
62 62 61 60 59 58 57 55 55 54 53 51 52 53 46 45 45 47 47 47 51 49 50 51 50 50 50 51 52 55 59 59 62 63 60 58 57 56 55 55 55 55 54
61 62 61 60 59 58 56 56 57 56 54 52 52 54 53 52 49 48 48 51 49 52 51 52 51 53 53 50 52 51 52 54 57 61 60 59 57 56 55 55 54 54 54
59 60 60 59 59 58 58 57 55 54 55 54 53 50 50 48 49 48 48 48 50 51 52 51 52 52 52 51 49 48 52 52 54 58 59 59 58 57 56 55 54 54 54
57 58 59 59 59 59 58 58 58 56 56 56 53 52 50 48 47 45 45 46 47 50 51 50 50 50 50 49 51 51 51 51 52 55 57 57 57 57 56 55 55 54 54
57 58 58 59 59 59 59 58 57 57 55 54 53 54 52 51 50 48 46 45 44 47 48 50 50 49 50 48 49 51 51 48 50 52 54 55 55 55 56 55 55 54 54
61 59 58 59 60 59 57 57 56 55 54 54 53 51 51 50 49 48 48 46 42 43 45 47 49 47 50 49 48 50 49 48 48 49 51 52 53 53 54 54 54 53 53
59 57 58 58 59 58 58 57 57 56 54 52 52 51 50 48 48 48 48 48 45 39 41 44 45 48 48 43 45 45 45 46 47 47 48 49 51 52 52 52 52 52 52
58 58 57 58 59 58 57 58 57 53 51 49 48 48 47 46 47 47 46 46 45 43 39 44 45 45 46 45 45 42 41 46 46 45 45 46 48 49 50 50 50 50 50
58 57 57 58 58 57 55 55 52 50 49 47 46 47 45 46 45 45 45 45 44 43 40 43 44 43 42 44 42 40 41 39 39 44 44 45 45 46 47 48 48 48 49
58 57 56 56 55 54 53 51 49 48 47 46 45 46 45 47 45 45 44 43 43 43 41 39 42 41 41 39 39 39 44 46 40 45 44 44 45 44 45 45 45 45 46
58 55 55 54 53 51 50 49 48 47 46 46 46 45 45 45 43 43 43 42 42 44 41 39 39 40 37 38 37 37 37 39 42 46 44 44 44 44 44 44 44 45 44
57 56 55 53 50 48 48 47 46 45 45 45 45 45 45 44 43 43 42 41 42 40 37 35 38 38 36 37 34 33 35 37 37 43 44 43 43 44 43 44 44 44 43
55 54 50 47 47 47 47 46 46 44 44 43 43 44 44 44 43 41 42 40 38 37 36 35 35 35 35 36 30 32 33 35 36 33 36 38 37 39 40 43 43 43 41
50 48 47 46 46 46 40 41 43 43 43 43 42 42 40 39 38 37 37 37 34 29 28 27 27 27 28 29 29 29 31 32 30 35 32 34 33 35 36 34 40 41 41
48 46 45 45 45 44 39 40 40 44 43 41 39 39 38 37 33 32 34 34 33 34 30 28 25 26 25 27 27 27 28 28 27 32 33 31 31 32 36 39 40 40 41
45 44 45 45 44 42 39 39 38 39 37 35 34 34 31 30 32 31 29 28 29 29 30 30 27 27 27 28 27 29 28 29 32 34 34 28 33 32 34 36 39 40 40
44 43 44 43 42 40 37 37 37 33 32 31 31 30 30 30 33 34 29 28 28 29 34 34 34 35 34 34 34 30 28 28 26 28 30 29 32 31 27 31 33 39 39
44 43 40 41 39 37 36 36 34 30 28 28 30 30 32 31 32 32 28 27 26 27 26 27 27 29 31 30 32 30 28 25 26 25 30 25 30 30 27 27 30 31 34

GFSMA_sfc_temp_066.txt.gz
Temp
59 59 59 59 59 57 59 57 58 59 58 56 56 56 55 55 56 57 58 65 66 68 68 68 68 67 66 66 65 65 65 65 65 64 63 63 62 61 61 61 60 60 60
60 60 60 60 59 58 58 59 59 58 56 56 55 55 54 54 55 55 57 60 64 66 68 68 68 67 67 66 65 65 64 64 64 64 63 62 62 61 60 60 60 60 60
60 60 59 59 59 59 59 58 57 57 55 57 55 55 54 54 54 55 56 57 60 63 65 67 67 67 67 66 65 64 64 63 63 63 63 62 61 61 60 60 59 59 59
61 60 57 57 59 59 59 58 56 55 55 55 53 53 54 54 55 55 55 56 57 59 62 65 66 66 66 66 66 65 64 63 63 63 62 62 61 61 60 59 59 59 59
61 61 60 58 60 58 58 58 56 56 55 55 54 53 53 53 54 57 55 55 55 56 57 61 63 64 65 66 66 66 65 64 63 63 62 61 61 60 59 58 58 58 58
62 60 59 59 58 57 57 56 56 55 56 56 59 56 53 53 53 52 53 55 54 55 55 56 59 59 62 64 65 66 66 65 65 63 62 61 60 59 58 57 57 57 57
62 61 59 59 59 58 57 57 56 55 54 54 53 52 52 52 51 50 51 51 53 54 53 54 54 55 57 62 64 65 66 66 65 64 62 61 60 58 57 57 57 56 57
62 61 60 59 58 57 57 56 56 53 54 53 52 49 49 51 50 50 49 50 50 52 52 53 53 53 53 54 56 63 65 66 66 65 63 61 60 58 57 57 56 56 56
61 61 60 59 58 58 57 55 55 55 53 51 52 54 48 46 47 49 50 49 49 49 53 53 53 53 52 51 55 57 59 59 64 65 64 62 60 58 57 57 56 56 56
61 61 61 59 58 57 57 57 56 55 53 51 51 52 51 50 48 48 50 51 51 52 51 52 54 53 52 52 52 53 53 54 57 62 63 63 61 59 58 57 57 56 55
60 60 59 59 58 58 58 56 55 54 54 53 52 50 50 49 49 50 47 48 49 50 52 53 52 51 53 51 50 52 52 52 54 58 61 62 61 60 59 58 57 56 56
56 57 58 57 57 56 56 57 56 55 55 55 53 52 51 49 48 47 46 47 48 50 51 51 50 50 50 50 52 52 51 50 51 55 57 60 61 60 59 59 58 57 56
54 54 56 56 56 57 57 57 55 54 54 54 55 53 54 54 52 51 48 47 46 48 50 50 50 50 51 49 49 51 51 48 49 52 55 57 58 59 59 58 58 58 57
55 56 55 56 56 57 56 55 55 56 56 55 55 54 54 54 52 50 50 47 43 44 46 48 49 49 49 49 49 50 49 48 48 49 51 54 55 56 56 56 56 56 57
55 55 55 55 56 56 56 57 57 56 56 55 54 54 53 52 51 50 49 49 48 41 42 46 46 49 49 47 47 47 47 48 47 47 47 49 51 53 53 53 53 54 54
55 55 55 55 55 55 56 57 57 57 57 55 53 51 50 49 49 48 48 47 47 45 41 45 46 47 48 48 48 46 45 47 46 45 45 46 47 49 50 51 51 52 52
59 58 59 58 58 58 56 56 57 55 53 52 50 50 49 48 47 46 46 46 45 44 41 43 45 45 45 45 45 46 44 43 43 44 44 44 45 45 46 47 48 49 49
61 60 60 59 57 57 57 56 54 51 51 49 47 47 47 47 46 45 45 44 44 44 42 39 42 43 42 42 42 40 43 45 42 44 44 44 44 44 44 44 44 45 46
60 60 59 57 57 55 54 54 53 51 50 48 47 47 46 46 44 44 44 43 43 44 42 39 39 41 40 40 40 39 39 40 42 45 44 43 43 44 44 44 44 44 44
60 59 59 58 55 53 52 50 50 47 47 46 46 46 46 45 44 43 43 42 42 40 39 38 38 38 38 40 37 35 35 37 37 42 43 42 42 43 43 44 44 44 44
60 59 56 52 50 50 49 48 47 46 45 44 44 45 44 44 43 42 42 40 39 37 37 36 35 33 32 32 32 32 31 33 34 36 37 38 39 39 40 41 42 43 43
58 55 53 52 48 48 45 43 45 45 44 43 42 40 40 39 38 37 37 36 36 32 30 29 29 28 29 30 30 29 28 28 27 34 32 32 35 35 37 39 40 40 41
52 50 48 48 46 44 42 42 41 44 43 42 39 38 38 37 35 35 34 34 34 34 30 30 27 28 27 29 28 26 27 27 27 32 32 29 34 32 36 38 39 40 40
48 47 47 45 44 42 40 40 40 40 38 37 37 36 34 33 33 32 31 30 30 31 31 32 29 29 29 30 30 31 30 30 31 33 34 27 33 31 35 37 38 39 40
45 44 44 44 41 39 38 37 37 36 34 33 34 34 33 32 34 34 30 30 29 30 33 33 32 32 33 33 33 29 26 25 23 28 32 29 30 30 33 34 37 37 38
43 42 41 41 38 37 36 36 36 33 31 31 32 32 32 31 32 32 29 28 27 27 27 27 28 29 30 30 30 29 27 22 22 23 30 27 29 30 28 35 32 32 34

GFSMA_sfc_temp_069.txt.gz
Temp
65 69 68 68 70 71 70 70 69 69 68 68 69 69 68 69 70 72 72 65 66 68 69 69 68 67 67 66 66 65 65 65 65 64 63 63 62 62 61 61 61 61 61
67 69 68 69 69 71 70 70 69 68 69 69 66 67 68 69 69 69 72 71 65 66 68 69 69 68 67 66 65 65 65 65 65 64 63 62 62 61 61 60 60 60 60
68 69 69 68 68 69 68 68 67 67 67 68 66 66 67 67 68 69 70 71 70 63 65 67 68 67 67 67 66 65 65 64 64 64 63 62 62 61 60 60 60 60 60
68 68 68 68 68 68 69 68 66 66 66 67 66 66 66 67 66 67 69 69 70 71 65 65 66 67 67 67 66 65 65 64 64 63 63 62 62 61 60 60 59 59 59
67 68 68 67 67 66 67 67 66 66 65 65 65 64 65 66 66 68 67 66 67 69 71 65 64 64 65 66 67 66 66 65 64 64 63 62 62 61 60 59 58 58 58
67 66 66 65 66 65 66 66 65 65 66 66 66 64 64 65 66 66 66 67 68 67 68 69 69 68 62 65 66 67 67 66 65 64 63 62 62 60 59 58 58 58 58
66 64 64 65 64 64 65 65 65 62 64 64 63 64 64 63 64 66 66 67 66 65 66 67 69 70 69 63 65 66 67 67 67 65 64 62 61 60 59 59 58 58 58
66 65 63 65 65 63 63 61 62 62 62 62 62 62 61 63 64 64 65 64 63 66 65 65 60 66 64 63 63 64 66 67 67 66 65 63 62 61 60 59 58 58 58
65 64 63 64 63 63 62 61 61 62 62 60 62 64 58 59 62 63 61 63 61 58 56 59 58 58 60 62 58 60 59 60 64 66 66 64 63 61 60 59 58 58 58
62 64 64 63 61 63 62 61 63 63 64 61 60 61 62 63 61 60 63 61 54 60 57 60 59 59 58 60 59 57 54 54 57 62 64 65 64 63 61 60 59 58 58
61 62 64 62 63 61 62 64 62 62 62 63 61 61 60 59 60 61 58 57 57 60 57 56 62 62 56 55 54 53 53 52 53 57 60 63 64 64 62 60 60 59 58
62 62 63 65 65 66 65 64 64 64 63 63 63 62 61 60 57 52 51 54 55 57 54 56 56 60 54 53 53 53 51 51 51 54 56 59 61 62 62 61 59 59 59
62 63 65 65 65 65 65 66 64 64 63 62 62 61 59 58 54 55 52 52 51 52 51 54 62 63 61 60 56 53 52 49 49 51 53 55 57 59 60 61 60 60 60
66 66 65 66 66 66 66 65 65 64 64 62 62 61 56 56 56 56 53 51 45 48 48 52 60 60 60 56 53 50 55 48 48 49 50 51 53 55 56 58 58 58 59
65 65 65 65 65 65 66 66 64 64 63 63 62 57 58 60 59 55 55 53 52 44 45 56 56 56 54 56 53 56 56 51 48 47 47 48 50 51 52 52 53 55 56
64 65 65 65 66 66 65 65 64 65 63 62 61 56 59 59 56 54 54 53 53 50 46 55 56 55 53 52 52 51 54 48 47 45 45 46 46 48 49 49 50 51 52
63 62 64 65 65 65 65 64 64 64 61 60 56 56 56 56 53 50 51 49 49 52 47 47 49 49 51 55 52 54 54 54 55 46 44 44 44 45 45 46 46 47 49
63 63 62 63 66 65 64 61 57 56 56 55 54 53 54 51 49 48 49 47 47 46 48 45 46 52 49 48 50 50 52 53 53 49 45 44 44 44 44 44 44 44 45
64 63 62 63 62 59 58 57 57 56 54 55 54 51 50 49 47 46 46 45 46 46 47 45 42 45 45 46 49 50 50 50 51 47 44 43 44 44 44 44 44 44 44
63 64 61 62 63 62 58 57 56 55 53 52 50 50 48 47 46 46 46 45 46 44 42 41 41 42 44 50 48 46 45 48 46 48 46 43 42 43 42 42 42 42 42
64 64 62 62 61 58 55 54 53 52 49 47 47 47 47 47 44 45 45 44 43 42 40 39 42 41 43 45 43 45 41 43 44 45 45 45 46 45 45 43 44 43 42
64 64 61 60 53 53 45 45 48 49 47 46 44 42 42 40 39 38 38 38 41 40 38 42 41 42 43 42 42 40 39 38 38 45 41 40 45 43 44 45 42 40 39
62 62 59 56 53 52 42 43 44 47 45 44 40 38 38 37 36 37 35 35 35 34 34 41 42 41 39 41 38 36 36 36 37 41 40 37 42 40 45 45 41 40 39
57 55 52 50 47 44 41 41 41 44 41 40 38 37 35 35 35 35 35 34 35 36 38 39 41 40 39 39 38 38 37 36 38 40 40 32 40 39 42 44 41 40 39
48 47 47 45 42 41 38 38 39 38 35 34 35 35 35 34 34 36 35 34 36 37 34 33 33 32 32 32 34 36 34 32 30 35 38 35 38 37 38 39 44 40 38
44 44 42 42 39 38 37 37 38 35 32 31 32 32 33 34 33 34 37 38 35 35 34 35 35 34 33 34 30 34 34 28 29 30 38 32 34 35 31 39 42 42 43

GFSMA_sfc_temp_072.txt.gz
Temp
73 73 75 79 78 79 78 78 77 77 76 76 77 76 76 77 77 79 76 66 67 69 70 69 68 68 67 66 66 66 66 65 65 64 63 63 62 62 61 61 61 61 61
72 73 72 76 78 80 79 79 77 77 77 77 76 76 76 76 77 77 77 73 65 67 68 69 69 68 67 67 66 66 66 65 65 64 63 63 62 61 61 61 61 61 61
72 72 73 75 77 79 78 78 76 77 77 77 75 75 75 75 76 75 78 77 72 64 66 68 68 68 67 67 66 66 65 65 65 64 63 63 62 61 61 61 60 60 60
71 71 74 75 77 76 76 76 75 74 75 75 73 74 75 75 75 75 77 77 77 76 66 65 66 67 67 67 67 66 65 65 65 64 64 63 62 62 61 60 60 60 60
73 75 75 76 74 75 76 75 74 74 72 73 73 74 73 74 73 76 75 74 75 76 77 65 64 64 66 67 67 67 66 65 65 64 64 63 63 62 61 60 60 59 59
71 74 74 72 73 74 73 73 71 73 73 72 74 72 72 73 75 74 74 75 75 74 75 76 72 70 63 65 67 67 67 67 66 65 64 63 63 62 61 60 60 59 59
73 73 74 72 71 71 72 71 71 68 70 71 70 69 70 71 71 74 74 74 74 74 74 74 75 76 70 63 65 67 68 68 67 66 65 64 63 62 61 61 60 59 59
73 70 67 68 69 70 71 69 67 65 68 67 67 69 64 68 71 71 74 73 72 75 73 72 68 72 74 75 67 65 67 68 68 67 66 64 63 62 61 61 60 59 59
71 68 64 64 64 69 69 68 67 67 66 66 68 68 64 64 68 73 70 72 71 69 71 65 67 66 66 70 65 65 60 61 65 67 67 66 64 63 62 61 60 60 59
65 66 63 63 64 67 69 68 66 69 70 65 66 68 70 70 66 62 69 69 69 68 61 68 70 67 68 66 66 61 56 56 58 62 64 65 66 65 63 62 61 60 60
62 65 63 63 63 65 66 67 66 68 71 68 67 68 66 67 67 65 64 66 68 68 63 57 61 63 65 67 69 63 54 53 54 57 60 62 64 64 65 64 62 61 60
60 61 65 66 68 65 68 68 66 67 68 69 70 69 68 67 66 65 63 64 60 63 62 57 56 62 62 66 65 55 52 51 52 54 56 59 60 61 62 63 63 61 60
60 61 63 63 66 69 63 66 67 67 71 70 68 70 70 69 69 66 60 55 55 55 53 55 57 61 65 63 67 55 53 49 49 51 53 54 56 57 58 60 61 62 62
67 68 66 65 66 67 65 67 68 71 70 69 69 69 70 70 69 65 60 54 49 51 54 54 59 66 63 67 62 52 60 49 48 49 50 51 52 53 54 55 56 57 58
71 69 69 68 68 69 71 70 70 70 71 70 69 70 69 69 68 64 61 60 54 48 48 58 59 63 57 61 58 61 62 51 49 47 48 48 49 50 51 51 52 53 54
72 71 71 70 71 72 72 72 72 72 71 71 71 70 68 68 65 63 62 58 59 52 50 61 56 54 60 58 54 58 60 50 49 47 46 46 47 48 48 49 49 50 50
71 71 70 71 72 72 72 71 71 71 70 70 70 67 64 65 58 58 58 57 54 54 50 49 55 54 54 56 56 60 59 58 59 46 45 45 45 45 45 45 46 47 47
71 72 71 71 71 72 71 71 70 70 70 69 67 63 58 57 56 55 53 51 50 53 51 47 48 52 52 56 58 55 54 60 60 51 46 45 44 44 44 44 44 44 44
70 71 71 71 70 70 70 69 70 69 68 65 62 57 56 56 53 50 50 49 49 49 49 48 47 52 55 50 49 50 54 55 58 50 45 44 44 44 44 43 43 43 43
69 69 70 70 69 69 67 67 61 59 58 58 57 57 56 55 54 49 48 48 47 47 48 51 52 45 48 48 50 51 52 55 54 56 51 46 44 46 44 43 42 43 42
69 70 69 70 69 64 61 61 64 62 57 55 53 53 53 51 47 48 49 48 47 45 45 49 43 44 43 44 45 53 50 51 52 53 52 51 52 52 51 47 46 44 43
68 69 69 69 68 66 52 47 58 58 55 52 49 47 47 45 44 41 41 42 45 43 43 42 42 41 44 47 49 48 47 45 44 55 48 47 50 49 51 51 45 42 41
68 67 68 68 68 67 44 45 44 57 53 50 46 43 40 39 39 38 35 35 35 35 36 44 43 43 44 46 47 45 44 44 44 48 47 42 48 46 51 51 43 42 41
67 66 66 66 64 59 43 43 41 49 44 43 42 40 37 36 36 36 35 34 35 37 40 42 43 43 44 47 45 45 44 43 44 46 47 38 46 45 47 49 43 42 41
61 59 58 55 53 47 41 41 42 40 37 36 37 37 36 34 34 36 34 33 34 34 34 34 33 33 33 33 35 42 38 38 35 41 46 41 43 42 43 44 47 43 40
51 46 43 44 40 40 39 39 40 37 33 32 33 33 34 34 32 35 35 34 34 35 36 36 38 33 34 36 31 37 39 34 35 36 45 37 39 40 36 43 43 43 45

GFSMA_sfc_temp_075.txt.gz
Temp
70 70 73 76 77 78 76 76 79 78 78 78 78 78 79 80 79 77 74 66 67 69 70 69 69 68 67 67 66 66 66 65 65 65 64 63 63 62 62 62 61 62 62
69 73 73 76 78 79 79 79 78 77 77 78 77 78 78 79 79 77 75 71 66 67 69 69 69 68 68 67 66 66 66 66 65 65 64 63 62 62 61 61 61 61 61
72 73 76 78 78 79 79 79 78 78 78 79 77 77 78 77 78 78 75 73 70 64 66 68 68 68 68 67 66 66 66 66 65 65 64 63 62 62 61 61 61 61 61
72 73 75 76 79 77 79 78 77 77 77 77 76 76 77 77 76 76 77 76 73 73 66 65 67 67 67 67 67 67 66 65 65 65 64 63 63 62 62 61 61 61 60
72 74 75 76 74 75 77 77 76 76 74 75 76 76 76 76 75 77 76 76 75 75 73 65 64 65 66 67 67 67 67 66 65 65 65 64 63 62 62 61 61 61 60
73 74 75 71 72 74 75 76 74 76 75 75 77 74 73 74 75 74 74 76 76 75 76 72 69 68 63 65 67 67 68 67 66 65 65 64 64 63 62 62 61 61 60
74 73 76 74 75 75 75 74 73 72 72 74 71 70 70 71 72 74 75 74 74 74 74 75 72 71 69 63 65 67 68 69 67 67 66 65 64 63 63 62 61 61 60
72 72 72 72 73 74 72 72 71 70 71 71 68 68 62 65 69 72 74 73 72 74 74 74 74 74 72 69 67 65 67 68 69 68 66 65 64 63 63 62 62 61 61
69 74 73 71 70 70 69 69 70 69 65 68 68 65 59 59 64 71 70 72 71 72 74 73 72 72 72 71 66 65 61 62 66 68 67 66 65 64 63 63 62 61 61
66 72 71 69 68 70 66 70 71 70 66 61 66 69 69 68 59 58 69 70 72 71 70 72 71 67 70 70 67 63 58 57 59 64 65 66 66 65 64 64 63 62 61
63 68 68 64 63 66 64 66 67 68 67 63 62 66 69 68 68 62 63 66 69 71 72 69 67 65 63 61 64 65 57 54 56 60 62 63 64 64 65 65 64 63 62
60 63 65 64 62 63 62 65 69 67 66 66 64 67 66 65 65 65 64 65 63 67 70 66 61 61 56 60 63 59 54 53 53 55 58 59 61 62 62 63 63 64 64
59 60 63 64 63 63 65 65 66 67 63 61 66 68 70 70 70 68 65 64 63 65 64 62 60 58 58 61 63 59 52 50 50 52 54 55 57 58 59 60 60 61 62
63 63 62 63 63 63 67 66 65 67 63 66 67 69 71 70 70 69 66 64 58 58 59 60 61 62 62 60 65 53 58 49 49 50 51 52 53 54 54 55 56 56 57
70 67 65 63 63 64 66 68 63 64 65 65 65 68 69 70 69 70 69 65 61 55 56 61 59 62 66 67 59 62 61 51 50 49 49 50 51 51 52 52 52 53 53
70 67 66 66 66 66 67 69 69 68 63 63 68 68 69 70 69 69 68 64 63 57 53 62 61 61 64 65 57 59 61 52 49 47 47 47 47 48 49 49 49 50 50
70 70 69 69 70 69 70 69 69 70 68 68 68 69 69 70 68 68 64 62 61 57 52 53 52 54 55 57 56 58 59 59 58 47 46 46 45 45 45 46 46 47 47
72 72 72 71 71 71 71 70 69 70 69 69 70 70 69 68 66 66 61 57 56 54 52 51 47 49 49 54 54 53 59 62 61 51 47 46 45 45 44 44 44 44 44
73 72 72 71 70 70 70 70 70 70 70 70 70 69 69 68 63 59 56 54 55 53 52 50 46 48 48 50 52 52 51 52 57 50 45 45 45 45 45 44 43 43 43
72 72 72 72 71 72 72 72 72 71 70 70 69 68 68 62 58 57 54 53 52 49 48 47 46 46 47 49 47 49 49 51 51 58 54 49 47 46 45 44 43 43 43
73 73 72 71 72 71 71 70 70 67 65 65 62 60 59 56 51 54 54 52 50 49 46 46 43 44 44 44 44 48 46 48 51 54 53 54 53 53 51 45 45 44 43
72 72 71 71 70 71 57 50 57 62 59 58 58 61 58 49 48 44 44 44 48 47 45 44 43 41 42 44 45 46 46 44 43 55 51 49 52 50 51 52 47 43 43
70 69 70 70 70 70 50 47 46 62 60 60 59 54 47 45 45 41 38 36 36 36 37 42 40 39 40 43 45 44 41 43 44 50 49 44 48 46 49 52 45 43 42
69 68 68 69 69 70 45 45 43 61 62 57 52 47 42 39 39 38 36 34 34 33 34 39 38 37 36 43 45 45 45 45 46 47 47 39 46 44 48 49 45 43 42
68 67 67 66 65 65 42 43 45 44 40 37 38 38 38 36 36 38 35 33 32 31 32 32 33 34 34 35 35 44 39 39 37 41 45 42 43 42 44 43 45 43 41
66 61 50 48 43 46 40 41 42 39 34 34 34 34 35 34 33 35 34 32 29 30 32 31 32 34 35 33 33 38 40 36 36 36 42 39 39 39 35 42 43 43 43

GFSMA_sfc_temp_081.txt.gz
Temp
64 64 63 64 64 64 63 62 61 64 64 65 66 66 66 64 64 64 63 65 67 69 70 70 69 68 67 67 66 65 65 65 65 65 64 64 63 63 63 62 62 63 62
64 64 64 64 64 64 64 64 64 63 63 64 64 65 66 64 64 62 62 63 65 67 68 69 69 68 67 67 66 66 66 65 65 65 64 63 63 62 62 62 62 62 62
64 65 65 63 64 63 64 65 64 63 62 65 64 64 66 64 64 62 61 59 62 64 65 67 68 68 68 67 66 66 66 65 65 65 64 63 63 62 62 62 61 61 61
65 65 66 65 65 63 65 64 65 62 61 62 61 61 63 64 63 63 62 61 59 62 63 65 67 67 67 67 67 67 67 66 65 65 64 63 63 62 62 62 61 61 61
64 65 66 65 65 65 64 65 64 64 62 60 61 60 61 63 62 65 62 61 59 60 60 63 64 64 65 67 67 68 67 67 66 66 65 64 63 63 62 62 62 61 61
65 65 64 62 64 62 63 64 64 61 62 63 69 64 59 60 63 62 62 63 62 62 62 63 62 63 63 65 67 67 68 68 67 66 66 65 64 63 63 62 62 62 62
65 66 63 62 62 62 64 64 61 62 60 61 59 57 58 58 58 58 60 62 62 63 62 63 62 62 62 63 65 67 68 69 68 67 66 66 65 64 63 63 63 62 62
65 64 63 62 62 63 62 61 62 59 60 60 57 56 52 56 57 58 57 60 61 64 63 63 62 62 62 62 62 65 67 69 69 68 67 66 65 64 64 64 63 63 63
64 66 64 64 63 64 63 62 62 61 58 58 62 55 51 51 52 55 56 56 58 57 61 63 63 62 62 61 62 62 61 62 66 68 68 66 65 65 64 64 64 63 63
63 66 63 64 62 62 63 63 64 64 58 56 56 60 58 57 51 50 54 56 57 58 58 57 61 62 62 62 61 59 57 57 60 64 67 67 66 65 65 64 64 64 64
61 61 62 61 61 60 60 61 62 61 59 58 56 55 55 55 55 53 50 54 57 58 58 60 60 60 62 61 60 60 56 55 56 61 63 65 66 66 65 65 64 64 64
56 58 62 63 63 60 59 60 60 60 60 59 58 58 57 55 54 53 52 52 53 57 62 60 58 58 56 57 59 57 55 54 54 57 60 62 64 65 65 65 65 65 64
59 60 59 61 62 62 60 61 60 60 59 59 60 59 58 58 59 58 55 55 52 54 55 55 58 58 56 54 56 56 55 52 52 54 56 58 60 62 63 64 64 64 64
61 63 60 61 62 62 61 60 60 60 59 58 58 58 58 59 59 59 58 56 51 53 54 54 54 54 55 54 55 53 56 51 51 51 53 55 57 58 57 58 59 60 60
62 62 62 58 61 61 61 60 60 58 58 59 59 57 59 59 58 59 57 57 55 51 52 52 53 55 56 54 55 55 55 55 51 50 50 51 53 54 54 55 55 56 56
61 60 61 61 61 61 61 61 61 60 59 59 59 58 58 60 60 59 59 59 58 56 53 52 54 56 55 57 56 55 55 53 49 48 48 49 50 51 51 52 52 52 53
62 61 60 60 60 59 60 59 60 61 60 61 61 59 59 60 59 59 59 59 58 57 55 58 55 54 51 55 56 55 55 53 50 47 47 47 47 47 48 48 49 49 49
63 61 62 61 60 60 59 59 58 61 60 60 60 59 58 59 57 58 58 59 59 59 57 54 57 49 51 52 54 52 53 55 52 47 46 46 46 45 45 45 45 45 46
64 63 62 61 61 60 60 59 60 60 60 60 61 60 59 59 57 58 58 58 59 58 58 56 56 51 53 48 48 48 50 51 52 50 45 45 44 44 44 44 44 44 44
62 62 62 62 61 61 61 61 60 59 60 60 60 60 60 58 58 58 58 58 58 57 56 55 55 53 48 47 49 48 44 46 47 52 49 46 44 44 44 44 43 44 44
64 64 62 62 62 61 61 60 60 59 58 58 59 60 60 59 54 56 58 58 58 56 55 54 53 52 44 42 45 47 46 46 43 44 43 43 42 43 43 44 44 44 44
64 63 62 62 61 63 54 49 56 60 59 58 58 60 60 52 52 48 48 49 52 56 54 54 54 51 49 47 47 45 41 37 36 41 38 38 41 39 40 42 43 42 42
63 62 62 63 62 62 49 48 47 61 60 59 59 59 58 57 50 55 41 39 37 38 35 50 52 52 43 41 39 35 34 34 33 36 36 33 35 35 41 46 44 44 42
62 62 62 62 62 63 48 46 45 58 60 59 59 58 56 51 48 43 38 35 34 34 35 37 38 36 36 38 38 37 36 34 34 35 35 31 33 33 37 39 42 43 42
62 61 62 62 60 61 47 46 45 55 57 58 44 43 51 45 39 40 37 33 31 31 35 35 35 35 35 36 36 36 32 32 30 31 31 31 32 32 33 34 37 41 39
62 62 61 61 56 61 45 45 46 55 46 36 35 35 36 38 36 37 35 33 30 29 30 30 30 31 32 32 32 33 32 30 29 28 30 29 30 30 28 31 31 32 32

GFSMA_sfc_temp_084.txt.gz
Temp
64 64 64 64 64 62 60 57 59 61 61 63 66 64 62 62 61 62 62 65 67 69 70 70 69 68 67 67 66 66 66 66 65 65 64 64 64 63 63 63 63 63 63
64 63 63 63 63 64 63 63 62 59 62 63 65 64 63 63 62 60 62 63 65 67 69 69 69 68 68 67 66 66 66 66 65 65 64 63 63 63 62 62 62 62 62
63 63 62 62 63 63 63 62 60 60 61 62 63 62 62 62 61 60 59 59 62 64 65 68 68 68 68 67 66 66 66 65 65 64 64 63 63 62 62 62 62 62 62
64 63 63 62 63 60 61 59 61 60 61 60 60 61 61 61 61 61 60 59 58 62 63 65 66 67 67 67 67 66 66 66 65 65 64 64 63 62 62 62 62 61 61
64 63 64 62 62 61 59 61 59 61 61 60 60 60 60 59 60 62 59 57 57 57 58 63 64 64 65 67 67 67 67 66 66 66 65 64 63 63 62 62 62 62 61
65 64 63 61 61 61 61 60 61 61 63 60 65 61 60 59 57 59 59 61 58 58 58 59 60 61 62 65 67 68 68 68 67 66 66 65 64 63 63 62 62 62 62
64 64 64 62 62 62 63 62 61 62 59 59 56 55 56 57 58 57 57 58 59 59 58 59 59 59 61 63 65 67 68 69 68 67 67 66 65 64 63 63 63 62 62
64 64 65 63 64 62 61 61 60 57 57 58 58 55 52 55 57 56 56 57 57 60 60 61 60 60 60 61 61 65 67 68 69 68 67 66 65 65 64 64 63 63 63
63 64 63 63 62 61 61 60 61 62 59 57 60 54 50 50 51 54 55 57 56 57 59 60 61 61 60 60 61 61 61 62 66 68 68 66 66 65 65 64 64 63 63
61 64 64 62 61 60 60 62 63 62 57 57 56 59 57 55 50 48 53 53 55 57 58 59 60 60 61 60 60 59 57 57 59 64 66 67 66 66 65 65 64 64 64
60 62 62 61 61 62 60 62 60 59 58 56 57 55 54 54 53 51 49 52 53 56 57 58 59 59 61 61 60 59 55 55 56 60 63 65 66 66 65 65 65 64 64
58 59 61 62 61 61 61 59 60 60 59 57 56 58 56 54 53 52 50 50 52 55 60 57 56 58 59 60 61 58 55 53 54 57 60 62 64 65 65 64 64 65 64
57 59 59 60 61 62 62 62 60 59 59 58 58 60 59 58 57 55 53 52 52 53 54 55 58 59 59 58 59 56 55 52 52 55 57 59 60 62 63 64 64 65 64
61 62 59 60 62 62 61 61 61 60 59 59 57 57 59 58 58 57 55 53 50 52 53 55 55 58 57 58 58 53 57 51 51 52 53 55 57 58 59 60 61 63 63
63 62 60 59 60 61 62 62 62 61 60 59 58 58 59 58 58 59 58 57 53 50 54 54 54 56 57 56 56 56 57 54 50 50 50 52 54 55 56 57 58 59 59
62 62 61 60 60 60 61 60 61 61 59 60 60 58 58 60 58 58 58 58 56 56 52 55 56 56 56 57 56 56 57 54 50 49 48 49 51 52 53 54 54 54 55
62 62 61 60 60 59 59 59 61 61 59 60 60 59 59 60 59 59 58 58 57 57 54 57 59 58 54 56 56 55 57 55 55 48 47 47 47 48 48 49 49 50 51
62 62 61 60 59 60 59 58 59 61 58 58 59 58 58 59 58 59 58 57 57 58 56 54 57 53 52 55 56 56 56 55 55 51 47 46 46 46 46 46 46 46 47
62 62 61 60 59 59 59 59 59 59 58 58 58 58 58 59 58 58 59 58 58 57 56 56 56 59 57 50 49 49 50 52 53 51 45 44 45 45 44 44 44 44 44
62 62 62 61 60 59 59 59 58 58 59 59 58 59 59 58 58 58 57 56 57 56 56 55 55 56 55 51 52 51 47 48 50 52 47 45 44 44 44 43 43 43 43
61 62 61 61 61 59 59 58 59 57 57 57 58 58 58 58 54 56 58 56 56 55 55 54 55 55 51 44 47 51 51 50 45 45 45 44 43 43 43 42 43 43 43
61 61 60 59 59 60 52 48 54 58 57 56 56 57 58 51 51 47 47 49 55 55 55 54 55 54 55 50 52 51 47 39 38 41 40 38 41 39 40 40 41 40 41
60 60 60 60 59 60 49 47 46 59 58 57 56 56 56 57 50 56 45 43 41 39 40 57 55 56 55 55 52 45 43 40 36 37 37 33 35 35 39 42 40 40 41
59 59 60 60 60 61 48 46 44 56 59 59 57 56 56 56 55 53 48 43 41 37 37 39 42 44 39 41 43 42 38 34 34 35 36 32 32 32 35 37 40 41 41
61 60 61 60 60 61 47 45 45 55 57 57 58 58 57 56 51 45 44 39 33 32 36 36 36 36 36 36 38 37 34 34 30 30 30 32 31 31 32 32 36 39 38
60 62 60 60 56 59 49 45 46 56 54 54 56 41 37 46 45 40 49 40 34 31 32 31 30 31 32 32 32 34 34 31 29 26 28 29 29 29 28 30 31 31 31

GFSMA_sfc_temp_087.txt.gz
Temp
64 65 65 64 62 62 62 61 59 61 62 62 62 61 62 62 60 62 62 65 67 69 70 70 70 69 68 67 66 66 66 66 66 65 65 64 64 64 64 64 63 63 63
64 64 64 62 63 63 60 61 60 60 61 63 60 61 62 61 60 58 61 63 65 67 69 70 69 69 68 67 66 66 66 66 65 65 64 64 63 63 63 63 63 62 62
64 64 63 62 63 64 63 63 59 59 61 64 60 60 61 61 59 58 58 59 62 64 66 68 68 68 68 67 66 66 66 65 65 65 64 64 63 63 62 62 62 62 62
63 62 62 62 62 62 62 62 62 60 60 61 59 60 60 60 58 57 58 58 58 60 63 65 66 67 67 67 66 66 66 65 65 65 64 64 63 63 62 62 62 62 62
62 62 62 61 60 61 61 62 59 61 58 58 59 57 57 57 57 60 57 57 57 57 58 63 64 64 65 66 67 67 67 66 66 65 64 64 64 63 63 62 62 62 62
61 60 60 59 61 59 59 57 59 58 58 59 62 59 56 56 57 56 57 59 57 57 57 58 58 59 62 65 66 67 68 68 67 66 66 65 64 64 63 63 62 62 62
61 60 59 59 60 61 60 59 59 58 54 56 54 53 54 55 55 55 56 56 57 57 57 58 57 56 60 63 65 67 68 69 68 67 67 66 65 64 63 63 63 62 62
62 61 61 60 62 61 60 57 59 57 55 56 55 53 50 53 54 56 55 57 57 58 58 58 58 58 58 59 60 65 67 68 69 68 67 66 65 65 64 64 63 63 63
62 61 60 61 61 62 60 60 59 59 56 56 60 54 49 49 51 53 55 55 55 56 58 59 59 59 59 59 60 61 60 61 66 68 68 66 66 65 65 64 64 64 63
61 62 61 60 61 61 60 60 61 62 57 57 55 57 57 54 50 48 52 54 56 56 57 58 59 59 60 59 59 58 57 56 59 64 66 67 66 66 65 65 64 64 64
60 62 61 60 60 61 61 60 59 58 57 57 55 54 54 53 53 51 49 51 52 57 59 57 58 58 59 59 59 58 55 54 56 60 63 65 66 66 66 65 65 64 64
58 59 61 61 61 60 59 60 58 57 56 57 59 58 57 55 53 52 51 51 53 55 58 58 57 58 58 58 59 57 54 53 54 57 60 62 64 65 66 65 65 64 64
57 57 58 60 61 61 60 59 59 57 57 56 58 59 58 57 57 55 53 52 51 54 54 57 58 58 59 59 59 56 55 52 52 55 57 58 60 62 63 64 65 65 64
59 57 57 59 61 61 61 60 59 59 59 58 57 58 59 59 57 57 55 53 50 50 51 54 56 59 59 59 59 54 58 51 51 52 53 55 57 57 59 60 62 63 63
60 61 59 59 60 60 60 60 60 59 60 59 59 58 59 59 57 57 57 56 55 50 50 53 53 56 58 59 58 57 57 55 51 50 51 52 54 55 56 57 58 59 60
58 57 57 59 59 60 61 60 60 61 60 60 61 58 58 60 58 59 57 57 55 55 52 57 56 57 57 57 58 57 55 53 50 49 48 50 51 52 53 54 54 55 56
59 58 59 59 58 59 60 60 61 61 59 61 61 59 59 61 59 58 58 58 56 56 53 58 59 56 54 56 57 56 57 56 58 49 48 48 48 48 49 50 51 52 53
61 61 59 59 58 59 58 58 59 60 57 58 60 59 59 60 58 59 59 58 58 59 57 55 59 57 54 56 59 57 56 57 58 54 49 48 47 47 47 47 47 48 48
61 61 61 60 59 58 58 57 57 58 58 58 59 58 58 57 56 57 57 57 56 57 57 55 56 58 57 54 53 54 55 56 56 53 48 46 46 46 46 45 45 45 45
61 61 61 61 60 60 59 59 58 57 58 59 57 58 58 57 56 57 55 55 56 55 56 55 55 56 57 56 51 52 51 50 53 54 49 47 45 45 45 44 44 44 44
60 61 60 60 60 60 60 59 59 57 57 57 58 57 57 57 53 55 58 57 55 55 55 55 54 55 55 51 50 55 52 54 53 51 49 47 45 44 44 43 44 43 43
59 59 59 59 58 59 51 48 54 57 57 56 55 57 57 51 51 46 47 49 55 55 53 54 54 53 54 55 54 53 53 49 46 44 45 41 42 41 43 43 42 40 40
59 59 59 59 59 59 48 46 45 57 57 56 56 56 56 56 50 55 47 44 44 44 47 56 54 54 54 56 56 52 52 52 50 39 38 33 36 36 39 40 40 40 39
58 59 59 59 59 61 49 47 45 55 57 57 57 57 56 56 55 53 52 51 48 51 48 48 51 55 56 50 50 52 53 41 34 34 36 32 33 32 35 37 39 39 38
49 51 58 59 59 59 48 45 45 53 55 56 58 58 57 56 52 46 51 50 48 34 36 37 36 35 35 36 39 39 35 36 31 30 30 32 31 31 32 32 34 35 35
45 47 49 47 40 41 36 37 43 55 53 53 55 55 47 53 47 43 49 51 47 36 32 30 30 30 30 31 31 32 35 36 29 26 27 28 28 29 27 29 29 29 31

GFSMA_sfc_temp_090.txt.gz
Temp
63 64 65 65 63 64 63 60 60 62 60 60 61 60 59 59 60 62 63 66 67 70 70 70 70 68 68 67 67 67 67 67 66 66 66 65 65 65 65 64 64 64 64
64 63 64 63 61 63 64 61 61 62 61 60 58 59 59 59 59 60 61 64 65 67 69 70 69 69 69 67 67 67 67 66 66 66 65 64 64 64 64 63 63 63 63
64 64 63 62 61 62 59 59 59 59 59 60 58 58 59 59 59 60 59 61 63 64 66 68 68 69 68 68 66 66 66 66 65 65 65 64 64 63 63 63 63 63 63
64 64 62 61 62 62 61 59 59 59 59 59 57 59 57 58 58 59 59 59 59 62 64 65 67 68 67 67 67 67 66 66 65 65 64 64 63 63 63 63 63 63 63
63 62 61 60 61 62 62 61 59 60 58 58 58 57 56 57 58 60 58 58 59 59 60 64 64 64 66 66 67 67 67 66 66 65 65 64 64 63 63 63 63 63 62
61 61 60 58 60 61 60 60 60 59 59 59 61 55 54 56 57 57 57 59 58 59 59 60 61 61 62 65 66 67 68 68 67 66 65 65 64 64 63 63 63 63 63
60 60 59 59 59 60 60 59 57 57 55 58 55 52 53 54 56 56 56 57 57 58 58 59 59 59 61 63 65 67 68 69 68 67 66 66 65 64 64 63 63 63 63
60 59 59 59 60 59 59 59 57 55 55 58 54 53 49 52 55 55 56 57 56 58 59 59 59 59 59 60 61 65 67 68 69 69 67 66 65 65 64 64 64 63 63
60 60 59 58 57 59 59 59 56 56 56 56 60 54 48 49 51 54 54 56 56 56 59 59 59 59 59 59 60 61 60 61 66 68 68 67 66 66 65 65 64 64 64
60 60 59 58 58 58 59 60 60 57 57 55 55 57 57 54 51 49 53 55 57 56 57 58 59 59 59 59 59 58 57 56 59 64 66 67 67 66 66 65 65 65 64
60 60 59 58 59 59 59 60 59 57 57 57 56 54 54 54 54 51 49 51 54 57 58 58 59 59 59 60 60 58 55 54 55 60 63 65 66 66 66 66 65 65 64
59 59 59 59 59 59 58 58 58 57 57 57 59 56 55 54 53 52 51 51 53 55 59 59 58 58 59 59 59 57 54 53 54 57 59 62 64 65 66 66 66 66 65
57 58 59 59 59 60 61 59 58 57 58 56 57 58 57 58 57 56 54 53 52 53 54 57 58 59 59 58 59 56 55 52 52 54 57 58 60 61 63 64 65 66 65
59 59 59 59 60 61 61 60 59 59 57 57 56 56 56 59 58 57 56 54 51 52 52 55 57 58 60 60 59 54 59 51 51 52 53 55 56 57 58 60 61 63 64
58 57 58 58 59 59 61 59 60 58 58 57 57 56 57 57 57 59 57 57 56 51 53 55 55 57 60 60 58 59 59 56 50 50 51 52 54 55 56 56 57 59 60
57 56 56 56 57 58 59 60 60 59 59 59 59 57 56 58 57 57 56 56 58 59 55 58 56 57 57 58 59 59 59 55 51 49 49 49 50 52 53 54 54 55 56
56 56 56 57 57 57 59 57 59 59 57 59 59 58 58 59 58 58 58 58 57 57 56 59 57 57 55 57 58 58 59 57 58 48 48 49 48 49 50 50 51 52 53
56 57 56 56 57 57 57 57 57 58 57 57 58 58 58 60 58 59 59 58 59 59 57 55 59 58 55 59 60 59 57 59 59 54 49 48 48 48 47 47 48 48 49
60 58 58 57 56 57 57 58 58 58 57 57 58 58 58 58 57 58 58 58 58 58 57 56 57 60 59 54 56 56 58 59 57 55 50 48 47 47 47 46 46 47 47
60 60 60 59 59 58 57 57 57 57 57 57 57 58 59 58 57 58 56 56 57 57 56 55 55 56 57 57 55 55 55 53 56 57 52 50 50 48 46 46 45 45 46
58 59 59 58 59 59 59 57 58 57 56 56 57 57 57 57 52 55 58 57 56 54 55 54 54 54 54 55 52 55 52 55 56 54 55 53 50 50 49 45 46 45 45
60 59 58 58 57 58 50 47 54 58 57 57 56 57 58 50 51 46 46 48 57 55 54 54 54 54 56 57 57 56 54 52 50 54 51 52 47 48 47 46 44 43 42
57 58 59 59 58 58 47 46 45 57 59 57 56 56 56 57 50 55 47 43 44 44 46 57 54 54 55 57 57 55 54 53 52 54 46 42 38 37 40 42 41 40 40
48 50 51 56 58 59 42 43 43 53 57 58 57 57 56 57 57 55 54 53 49 51 50 50 53 56 57 58 56 55 54 52 38 34 38 37 34 32 36 38 40 40 39
45 46 45 40 39 41 36 37 39 51 53 55 57 57 57 56 52 47 52 51 50 48 37 39 37 35 35 35 36 45 41 37 33 31 29 32 31 31 31 31 33 34 34
42 42 38 36 34 36 35 36 37 42 48 52 54 54 43 38 35 39 49 51 49 48 33 30 30 30 31 31 31 30 34 42 33 28 27 29 28 29 26 28 27 28 29

GFSMA_sfc_temp_093.txt.gz
Temp
67 70 67 69 65 63 62 65 69 71 70 70 70 71 71 72 73 75 75 66 67 70 71 71 70 70 68 68 68 67 68 68 68 67 66 66 66 66 65 65 65 64 64
68 68 67 66 66 63 61 63 71 71 71 71 70 70 71 72 72 73 75 72 66 67 69 70 70 69 69 68 67 67 68 67 67 67 66 65 65 65 65 64 64 64 64
67 67 64 64 65 64 60 62 69 70 70 71 69 70 71 71 72 71 73 74 69 64 66 68 68 68 68 68 68 67 67 67 66 66 66 65 64 64 64 64 63 63 64
65 64 63 63 62 60 59 63 68 68 68 69 69 70 71 71 71 71 73 73 73 71 66 66 67 68 68 68 68 68 67 66 66 66 65 64 64 64 64 63 63 63 63
64 64 63 62 61 60 60 66 66 68 67 68 69 69 69 70 70 71 71 71 71 71 69 65 65 65 66 67 68 68 68 67 66 66 65 64 64 64 63 63 63 63 63
63 63 62 61 61 60 63 65 65 66 68 68 68 67 68 69 70 69 70 71 71 70 71 71 71 69 63 66 67 68 68 68 67 66 66 65 65 64 64 63 63 63 63
61 60 60 61 63 62 65 66 64 65 65 68 64 63 64 65 65 67 69 70 68 68 69 71 71 72 69 64 66 68 69 69 68 68 66 66 65 64 64 64 63 63 63
60 61 61 62 63 62 61 63 65 65 65 65 65 63 56 60 62 64 67 66 66 68 68 68 69 69 69 70 68 65 67 69 69 68 68 66 65 65 64 64 64 64 64
61 60 62 62 63 63 62 64 64 64 60 64 65 66 57 58 58 63 63 65 65 65 67 67 67 67 67 69 67 65 60 61 66 68 68 67 66 65 65 65 64 64 64
60 60 60 59 60 62 61 62 64 65 64 61 64 65 66 65 61 54 59 61 63 63 64 64 65 65 68 68 65 62 58 57 59 64 66 67 67 66 66 65 65 64 64
60 60 59 58 57 59 60 60 61 63 64 65 63 60 61 60 60 60 56 57 60 63 64 64 66 66 67 68 68 64 56 55 56 60 63 65 66 66 66 66 66 65 65
59 59 58 58 58 57 58 58 59 60 62 65 65 64 62 61 60 60 59 59 61 62 62 65 64 65 67 67 64 59 55 53 54 57 60 62 64 65 66 66 66 66 66
58 58 58 57 57 57 58 58 59 59 60 62 63 65 66 67 66 64 62 61 60 62 62 65 64 64 64 65 65 57 56 52 52 55 57 58 60 61 63 64 65 66 66
59 59 59 58 57 59 58 58 61 60 60 61 60 62 64 66 67 67 66 64 60 61 63 65 63 63 65 66 64 55 62 51 51 52 53 55 56 57 58 60 61 63 64
60 59 59 59 58 59 59 58 62 59 59 61 60 59 62 64 66 67 64 65 62 57 61 64 62 62 61 62 62 63 62 58 51 50 51 52 54 55 56 56 57 59 60
61 60 58 59 59 59 59 59 62 66 61 59 60 59 62 64 61 63 61 58 59 60 59 67 66 65 60 59 59 59 60 56 52 49 49 50 51 52 53 54 55 55 56
63 64 63 60 59 61 62 61 64 64 59 60 61 59 59 59 58 57 57 57 57 58 54 59 64 69 64 64 66 63 62 62 62 51 49 49 48 49 49 50 51 52 53
64 64 64 64 64 64 65 64 62 61 60 61 62 62 60 61 58 59 58 58 62 64 58 55 60 67 64 66 60 60 60 61 62 58 51 49 49 48 48 48 48 49 49
63 63 64 62 62 63 63 62 61 61 61 61 62 62 64 65 64 65 65 64 62 61 60 59 62 68 69 68 66 61 61 62 65 60 52 49 49 49 49 48 47 47 48
62 60 60 62 63 63 63 63 62 61 61 62 64 65 66 65 65 66 65 65 65 64 62 59 59 63 65 68 67 64 64 66 65 68 61 55 54 50 48 48 46 46 47
64 64 63 62 62 62 63 62 63 63 62 61 61 62 62 62 55 60 66 65 64 61 60 59 57 61 62 62 61 64 61 63 65 67 66 66 64 62 60 48 50 46 46
60 61 62 63 63 64 50 46 55 62 62 62 62 63 63 53 54 47 47 49 60 62 59 58 57 56 57 59 60 59 59 57 53 62 61 61 64 62 61 61 48 44 43
51 52 54 56 58 51 37 39 42 57 58 58 58 59 59 60 53 62 49 44 45 45 47 59 56 55 55 57 58 57 56 55 54 59 56 54 44 41 40 41 41 42 42
47 47 43 42 44 39 36 37 36 46 54 58 58 58 58 58 58 56 56 55 54 55 52 51 53 56 54 47 47 52 54 55 55 40 39 46 35 32 34 34 38 38 38
44 41 39 37 38 36 35 36 37 45 49 52 55 49 39 42 37 40 49 52 51 51 36 39 35 33 33 33 34 39 42 39 45 33 30 33 32 29 28 28 32 34 34
40 39 36 35 34 35 35 35 37 43 43 39 36 35 33 35 35 36 41 43 45 44 33 32 30 30 31 30 30 30 32 34 35 32 28 30 29 30 25 28 28 29 30

GFSMA_sfc_temp_096.txt.gz
Temp
71 73 76 76 74 73 69 68 66 70 73 76 78 77 78 79 80 83 79 67 68 70 72 72 71 70 69 69 68 68 68 68 68 67 67 67 67 67 66 66 65 65 65
72 72 74 73 70 70 67 65 67 70 73 77 77 77 77 78 78 79 80 73 66 68 70 71 71 70 70 69 68 68 68 68 68 67 67 66 66 66 65 65 65 65 65
73 70 70 70 67 65 67 65 68 70 74 77 77 77 78 78 79 79 80 76 72 64 67 69 70 70 70 69 68 68 68 68 67 67 67 66 66 65 65 64 64 64 64
72 69 67 69 66 64 65 63 67 69 74 76 75 77 78 78 77 78 80 79 78 75 66 66 67 68 68 68 68 68 68 68 67 67 66 65 65 65 64 64 64 64 64
68 67 65 65 63 62 63 63 68 70 72 73 76 77 77 77 77 78 74 78 77 75 74 65 65 65 66 67 68 68 69 68 67 67 66 65 65 65 64 64 64 64 64
67 64 64 63 61 60 60 61 67 69 72 74 76 74 75 76 77 73 72 76 78 75 74 72 72 70 64 66 67 68 69 68 68 67 67 66 65 65 64 64 64 64 64
63 63 63 62 61 60 60 62 68 69 68 73 70 67 68 70 71 72 72 76 77 76 76 76 77 77 72 64 66 68 69 69 68 68 67 66 65 65 64 64 64 64 64
61 62 62 62 61 60 60 62 68 68 68 70 66 67 57 61 66 70 70 74 74 77 76 76 76 76 77 75 70 66 68 69 69 68 68 66 65 65 65 64 64 64 64
61 61 61 62 61 61 61 66 69 68 66 69 71 70 61 61 66 70 68 72 72 73 74 74 74 74 74 75 70 66 61 62 66 68 68 67 66 65 65 65 64 64 64
61 62 60 61 61 62 65 66 69 71 70 67 71 75 75 74 66 60 68 70 71 70 69 73 73 73 73 72 68 63 58 57 59 64 66 67 67 66 66 65 65 65 65
63 60 61 62 63 64 65 69 69 70 71 70 67 67 67 68 71 69 63 65 69 70 71 71 71 71 71 72 73 68 57 55 57 60 63 65 66 67 66 66 65 65 65
59 60 59 59 61 63 63 64 63 63 64 68 69 70 70 66 66 66 68 66 65 68 70 70 68 68 69 70 68 61 56 54 55 57 60 62 64 65 66 66 66 66 66
59 58 58 58 58 59 60 60 60 60 60 61 64 68 72 71 71 70 71 70 67 71 69 70 69 70 71 72 72 60 58 52 53 55 57 59 60 62 63 64 65 66 66
60 60 59 58 59 59 59 59 59 59 60 62 68 69 70 72 74 72 70 69 65 68 71 70 73 72 73 73 69 57 64 52 51 52 53 55 57 58 59 60 61 63 64
61 59 59 58 58 57 58 58 58 60 63 61 64 68 69 68 69 72 72 72 68 61 65 69 69 70 73 74 68 69 68 60 52 50 50 51 54 55 56 56 57 58 60
63 61 60 58 57 56 57 59 58 58 61 61 62 66 68 69 68 68 69 70 66 65 61 71 70 74 73 73 69 70 71 59 53 50 49 49 50 52 53 54 54 55 56
64 62 61 59 57 57 57 57 58 59 59 65 65 61 63 68 64 65 62 63 61 57 55 59 68 68 70 73 73 73 69 66 62 50 49 48 48 49 50 50 51 52 53
65 63 63 59 59 58 58 59 60 62 62 67 67 61 61 64 63 60 61 63 60 58 56 54 59 65 71 72 70 69 75 77 76 64 52 50 50 49 49 49 48 49 50
66 66 67 63 62 61 60 61 63 63 66 67 63 61 63 62 62 62 60 59 60 63 63 62 65 68 70 73 72 72 72 72 75 62 51 49 49 50 49 49 48 48 48
67 67 67 67 66 66 66 66 66 66 66 64 63 62 62 62 63 65 67 68 68 68 67 63 67 68 69 72 71 70 69 72 72 74 66 61 58 53 49 49 48 48 48
64 65 65 64 65 65 64 63 64 63 62 61 62 63 63 61 56 59 67 68 68 66 65 63 62 65 67 68 67 70 67 70 70 70 68 70 70 72 68 50 53 48 47
59 62 63 64 64 50 37 38 47 64 64 63 64 67 68 56 56 47 47 48 58 63 61 60 61 59 63 66 67 67 66 60 56 65 62 63 71 69 55 43 41 42 43
50 47 47 43 40 39 36 37 37 53 60 63 64 64 63 63 54 64 50 45 45 44 43 59 58 58 58 59 59 58 59 59 58 63 58 56 43 34 35 37 39 40 40
43 41 41 42 39 37 36 36 36 47 50 53 50 43 45 47 43 41 51 56 54 53 52 51 52 47 37 36 38 43 43 45 47 36 38 38 33 29 31 33 35 37 36
40 38 38 37 37 35 35 36 41 48 43 39 37 36 37 37 35 36 43 47 49 44 35 35 34 33 32 32 33 40 39 36 41 35 34 35 32 29 29 28 31 34 35
39 38 36 36 35 36 34 35 42 44 38 36 33 33 32 33 33 34 38 40 40 34 33 31 29 29 28 28 29 29 29 33 36 34 28 31 32 30 25 28 30 32 32

GFSMA_sfc_temp_099.txt.gz
Temp
75 75 76 76 75 77 73 72 68 68 66 69 75 76 79 82 83 79 76 67 68 70 72 72 72 71 70 69 69 69 69 68 68 68 68 67 67 67 67 66 66 66 66
73 75 75 75 73 76 74 67 69 66 65 68 74 77 80 81 81 82 77 72 66 68 70 71 71 71 70 69 69 68 68 68 68 68 67 67 67 66 66 65 65 65 65
72 74 73 72 74 73 73 71 68 66 65 70 75 78 79 79 79 80 78 75 71 65 67 69 70 70 70 69 68 68 68 68 68 68 67 66 66 66 65 65 65 65 65
71 68 68 69 72 71 71 68 68 65 64 70 73 78 79 79 78 79 79 76 74 74 66 66 68 68 69 69 69 69 68 68 68 67 67 66 66 65 65 64 64 64 64
72 72 70 69 71 68 69 66 67 65 63 68 74 75 78 78 78 81 79 77 75 73 72 65 65 65 66 68 69 69 69 68 68 68 67 66 66 65 65 64 64 64 64
73 73 70 67 67 66 66 64 65 64 66 69 75 73 73 73 75 76 77 80 78 75 75 72 71 70 64 66 68 69 70 69 69 68 67 66 66 65 65 64 64 64 64
71 70 65 63 63 62 62 63 66 63 64 68 68 67 68 72 70 71 71 75 77 77 76 70 74 75 70 65 66 68 70 70 69 68 68 67 66 65 64 64 64 64 64
72 66 64 62 61 61 61 61 63 63 66 68 68 65 58 61 66 68 69 74 76 78 76 75 75 76 76 72 69 66 68 69 69 69 68 67 66 65 65 64 64 64 64
70 65 63 62 61 61 60 61 62 63 63 67 68 66 60 60 63 65 66 71 75 76 77 77 76 76 77 75 69 66 61 62 66 69 68 67 66 66 65 65 64 64 64
63 63 62 62 61 61 60 61 63 64 66 65 68 72 70 72 63 59 65 66 68 73 74 75 75 74 75 73 70 65 59 57 60 64 67 67 67 66 66 65 65 65 64
64 62 61 61 61 61 61 61 64 66 69 68 68 67 70 73 71 68 62 62 68 73 74 73 74 73 72 74 73 68 56 56 57 61 63 65 66 67 66 66 65 65 65
60 61 62 60 60 61 61 62 67 67 67 67 70 71 70 68 67 67 66 67 67 70 73 74 71 72 73 73 69 62 57 54 55 58 61 62 64 65 66 66 66 66 66
60 60 61 59 60 61 61 63 63 64 67 68 67 67 67 67 70 71 67 65 68 71 71 73 73 72 72 71 71 61 58 53 53 55 57 59 61 62 63 64 65 66 66
61 60 60 59 58 60 61 61 59 59 59 59 60 61 62 64 69 72 72 69 66 68 70 69 72 72 72 72 69 59 68 54 52 52 54 56 57 58 59 60 61 63 64
63 62 60 58 58 59 59 59 59 59 59 59 60 62 63 65 65 70 69 73 68 62 66 70 69 73 74 74 70 72 71 61 52 51 51 52 54 55 56 56 57 58 59
64 62 60 59 58 58 59 59 59 60 58 60 59 64 65 67 66 65 67 68 70 66 63 72 66 67 70 75 71 71 71 59 54 51 50 50 51 53 54 54 54 55 56
65 62 60 59 57 57 57 56 57 58 58 60 62 64 63 68 67 67 67 67 67 65 61 68 72 65 63 63 67 69 71 71 72 52 50 49 49 49 50 51 51 52 53
68 66 63 60 58 57 57 56 56 58 57 57 60 59 63 64 63 68 68 63 63 62 63 62 66 63 64 66 67 67 71 77 75 64 52 50 50 49 48 48 49 49 50
66 67 66 62 60 59 59 58 58 59 61 61 60 64 67 64 64 63 68 68 67 68 64 60 62 68 70 71 70 71 71 72 75 65 53 50 50 49 49 48 48 48 48
67 67 67 66 63 63 62 61 60 61 64 66 66 67 70 65 62 63 62 63 64 63 62 60 63 66 68 70 69 67 67 71 71 76 67 62 56 51 49 49 49 48 48
67 67 67 66 66 64 54 53 61 62 63 62 66 67 63 59 54 56 62 62 64 62 61 59 59 63 64 65 64 68 65 68 69 70 69 70 71 70 49 43 43 43 43
58 58 54 60 47 45 37 38 42 60 63 62 61 62 63 53 54 47 47 48 54 62 61 61 62 61 63 65 66 65 63 61 57 64 61 61 58 37 38 39 39 40 41
45 45 43 41 39 39 36 37 37 54 61 59 52 54 57 49 42 46 46 43 44 43 39 53 54 56 55 43 44 50 54 54 53 44 46 47 37 33 34 36 38 38 38
39 40 39 39 37 36 36 36 36 48 43 39 38 39 40 39 36 38 43 48 47 36 37 39 35 32 32 33 35 40 41 41 44 37 37 38 34 31 32 32 36 37 37
36 36 37 37 35 34 35 37 44 42 37 35 34 34 36 35 34 36 44 45 37 32 33 33 32 32 32 32 32 39 34 35 37 34 30 33 33 31 29 29 32 34 35
35 35 33 34 35 34 34 36 42 40 35 33 33 33 33 33 33 34 37 39 31 30 29 29 29 29 30 29 30 29 29 32 32 33 29 30 32 31 27 30 32 33 33

GFSMA_sfc_temp_105.txt.gz
Temp
66 66 65 66 65 66 64 64 63 63 62 63 64 66 67 65 67 66 68 66 68 71 72 72 72 71 71 70 70 69 69 69 69 69 68 67 67 67 66 66 66 66 66
66 66 65 66 66 66 64 65 64 63 62 63 63 66 66 65 66 67 66 66 66 68 70 72 72 72 72 70 69 68 68 69 68 68 67 67 66 66 65 65 65 65 65
66 66 65 65 65 65 64 64 64 63 62 63 63 65 66 65 66 67 66 66 65 64 66 70 70 71 71 70 69 68 68 68 68 68 67 67 66 65 65 65 65 65 65
66 66 65 65 65 64 64 63 64 62 61 62 62 63 64 64 66 66 66 64 63 65 65 66 68 69 69 69 69 69 69 68 68 68 67 66 66 65 65 64 64 64 64
66 65 65 65 65 63 64 63 62 63 61 61 62 62 63 62 66 68 65 64 63 61 61 64 65 65 67 68 69 69 69 68 68 68 67 66 66 65 65 64 64 64 64
66 65 63 63 63 63 63 63 62 62 62 61 64 63 62 61 68 65 64 66 64 63 62 62 64 63 64 66 68 70 70 70 69 68 68 67 66 65 65 64 64 64 64
66 65 64 63 62 63 63 63 62 61 59 61 60 59 59 61 62 65 64 64 64 64 63 63 61 61 62 64 67 69 70 70 70 69 68 67 66 65 65 64 64 64 64
65 64 63 63 63 63 62 62 63 61 61 61 59 57 54 57 59 61 63 64 63 64 63 63 63 62 61 61 61 67 69 70 70 69 68 67 66 65 65 65 65 64 64
65 64 63 63 63 64 63 63 63 62 60 61 61 59 54 54 54 57 59 62 64 63 63 64 64 64 62 62 62 63 62 63 67 69 68 67 66 66 65 65 65 65 64
63 64 62 62 64 63 63 63 63 62 61 59 60 61 62 60 55 51 56 59 61 63 63 64 63 64 64 63 62 60 58 58 61 65 67 68 67 66 66 65 65 65 65
63 63 64 62 62 62 62 62 62 61 61 61 61 59 59 60 59 55 51 54 56 59 60 63 63 63 64 64 62 60 57 56 57 61 64 66 67 67 66 66 66 65 65
60 62 61 61 62 61 61 61 62 61 61 61 62 60 59 59 58 56 54 54 57 57 59 60 61 64 61 61 63 59 56 54 55 58 61 63 64 65 66 66 66 66 66
60 59 60 60 60 61 61 61 61 61 61 60 60 59 61 60 61 60 57 55 54 56 58 59 59 61 63 59 61 58 56 53 53 55 58 60 61 62 63 64 65 66 66
60 60 60 59 60 61 61 61 61 60 61 61 60 60 59 60 61 61 60 57 52 54 55 58 60 61 61 62 61 56 60 51 52 52 54 56 57 58 59 61 62 63 64
59 60 60 59 59 60 60 60 60 60 60 60 60 60 59 58 59 59 58 58 55 50 54 56 57 62 63 63 61 59 59 55 51 50 51 52 54 55 56 57 58 59 60
60 59 59 59 59 59 60 59 59 60 60 60 60 59 59 58 58 58 58 58 58 56 53 59 59 57 60 63 60 61 62 57 53 50 50 50 51 53 54 55 55 56 57
60 60 59 59 58 58 58 59 58 58 59 59 59 59 58 58 57 58 58 59 58 57 54 57 60 60 57 58 60 61 62 61 61 51 50 50 50 50 51 52 52 53 54
61 60 59 58 58 57 57 57 57 58 58 57 57 57 57 59 57 58 58 58 58 58 57 56 57 58 59 57 58 58 60 64 62 57 51 50 50 49 48 48 48 48 48
60 60 59 58 58 58 57 58 58 57 58 58 58 57 58 58 57 57 58 58 57 59 56 55 54 55 56 58 58 59 60 60 64 59 52 50 49 46 45 44 44 45 46
60 60 59 59 58 58 58 58 57 57 57 57 57 58 58 57 57 57 57 57 58 56 54 53 53 53 53 55 55 57 57 59 61 66 55 46 43 42 42 41 42 42 43
61 60 60 59 58 56 51 56 57 56 56 56 56 57 57 55 51 54 58 57 55 55 52 51 51 52 52 54 55 57 57 57 54 51 55 49 44 41 40 40 41 41 41
48 46 46 46 43 42 37 39 47 56 56 56 55 56 57 49 47 41 42 40 45 56 53 53 54 53 54 54 50 51 51 50 48 42 47 43 40 36 37 38 39 39 39
40 39 38 38 37 38 37 39 39 50 47 45 44 48 46 42 41 46 38 37 36 36 33 45 50 47 42 36 38 43 46 46 45 37 41 39 35 32 34 36 38 38 39
36 35 35 36 37 38 37 38 37 38 36 36 36 37 37 37 37 41 38 35 34 34 34 35 33 32 32 33 34 38 39 40 35 33 33 34 33 29 31 33 37 38 37
34 33 34 33 34 36 37 37 37 35 33 33 34 34 34 34 36 39 37 33 31 31 34 34 34 34 33 34 34 36 33 34 33 29 30 32 31 29 29 30 32 36 36
32 33 32 32 33 33 35 37 37 35 32 32 32 33 33 33 34 36 36 34 30 29 30 30 30 31 32 32 31 30 28 27 31 28 29 29 31 30 26 30 31 31 31

GFSMA_sfc_temp_108.txt.gz
Temp
65 65 65 65 65 64 63 62 61 61 61 62 62 64 66 65 65 65 66 66 68 71 72 72 71 71 71 70 69 69 68 68 68 68 68 68 68 68 67 66 66 66 66
65 65 65 65 65 65 64 63 62 62 61 61 61 63 65 65 65 65 66 66 65 68 70 72 72 72 71 71 69 68 68 68 68 68 67 67 67 67 65 65 65 65 65
66 65 64 64 64 65 64 62 61 62 60 62 61 62 64 64 64 64 65 66 65 65 66 69 71 71 71 71 69 68 68 68 68 68 67 66 66 66 65 65 65 65 65
66 65 64 64 64 63 64 63 63 63 62 62 61 61 62 64 64 64 64 65 64 65 65 66 68 69 70 70 70 69 68 68 68 67 67 66 66 65 65 64 64 64 65
66 65 64 64 64 63 63 63 63 64 62 61 61 61 61 62 63 64 64 64 62 60 61 64 65 66 67 68 69 69 70 68 68 68 67 66 66 65 65 64 64 64 64
65 64 64 64 63 62 63 64 64 63 62 62 62 61 60 61 61 62 62 65 63 61 60 61 64 63 64 66 68 69 70 69 69 68 68 67 66 65 65 64 64 64 64
65 65 64 63 62 62 63 63 62 61 60 61 60 59 59 59 59 60 61 63 62 62 59 61 60 63 64 64 66 69 70 70 69 70 68 67 66 65 65 64 64 64 64
65 65 64 63 62 61 61 63 62 60 61 61 60 59 55 56 57 59 59 61 61 62 61 62 61 61 61 62 61 67 69 70 70 69 68 67 66 65 65 65 64 64 64
65 65 64 63 62 62 62 62 62 61 59 61 61 58 53 52 55 57 58 60 60 61 61 62 61 62 61 61 61 62 62 63 67 69 68 67 66 66 65 65 65 65 65
64 64 62 62 62 63 63 63 63 62 61 59 59 62 60 59 55 52 56 58 61 61 60 61 61 61 61 60 61 59 57 57 61 66 68 68 67 66 66 65 65 65 65
63 64 62 62 62 63 63 63 62 62 62 61 60 59 57 59 58 57 53 54 57 62 61 61 61 60 61 61 60 59 56 55 57 61 64 66 67 66 66 66 65 65 65
63 63 63 62 63 62 62 62 63 62 62 62 61 60 59 59 57 58 55 55 57 55 58 61 60 60 61 61 61 58 55 54 55 58 61 63 65 66 66 66 66 66 66
61 62 62 61 61 62 62 62 62 62 62 61 61 59 61 61 63 60 56 55 56 55 56 57 60 61 62 61 62 57 55 52 53 55 58 59 61 62 64 64 65 66 66
61 61 61 60 60 60 61 61 61 61 61 60 60 60 59 60 61 60 60 56 52 53 54 57 58 59 62 63 61 55 60 52 52 52 54 56 57 58 59 61 62 63 64
60 59 60 59 59 59 60 60 60 60 60 60 60 60 59 59 59 58 59 59 56 50 53 55 56 59 62 62 60 59 60 54 51 50 51 52 54 55 56 57 58 59 60
59 58 58 58 59 59 59 60 60 60 60 60 60 60 59 59 58 57 57 58 58 55 52 58 56 59 61 63 60 59 60 54 50 49 49 50 51 53 54 54 55 55 57
59 58 58 58 58 58 59 59 59 60 59 59 60 59 59 59 57 56 56 56 56 57 54 56 59 59 58 58 59 59 60 59 60 49 48 48 48 49 50 51 52 52 52
59 58 58 59 58 58 58 58 57 58 59 59 58 59 58 58 57 57 57 56 57 58 56 54 57 57 58 58 59 57 59 62 59 55 50 49 49 48 46 46 46 46 46
59 59 59 58 58 57 57 57 58 57 58 59 59 58 58 58 57 57 57 57 57 57 56 55 55 57 58 57 57 58 56 56 60 56 51 43 44 43 43 43 43 44 44
60 59 59 59 58 58 57 58 57 57 57 57 57 58 58 58 58 57 57 57 56 56 55 55 56 55 55 56 56 55 52 54 57 56 44 43 42 42 42 42 42 42 43
59 60 58 58 57 56 50 54 57 57 56 56 57 57 57 56 51 53 57 56 54 54 53 53 52 50 50 51 51 53 53 55 50 50 48 44 41 40 39 40 41 41 41
46 46 45 44 44 43 38 39 44 56 56 55 55 55 56 49 44 42 41 39 47 54 53 52 53 49 50 52 49 52 53 52 49 41 47 37 39 36 37 38 39 39 39
41 39 39 40 39 39 38 39 41 48 45 44 44 48 45 42 43 41 37 36 36 35 34 49 51 46 44 39 40 43 45 46 43 35 39 34 33 32 34 37 38 38 38
35 35 35 37 37 37 36 37 37 38 36 36 36 38 39 38 38 40 38 35 34 34 34 35 35 32 33 34 36 39 40 38 34 33 33 32 32 29 31 33 37 37 37
32 32 34 34 34 35 36 36 36 35 34 33 34 35 36 36 37 39 37 33 31 31 34 35 34 34 34 34 35 37 34 34 32 30 30 32 30 28 29 30 32 36 36
32 32 32 32 34 33 35 36 35 34 32 32 32 33 34 34 35 35 34 32 29 29 30 31 31 31 31 31 31 30 32 33 31 28 29 31 30 29 26 30 30 31 28

GFSMA_sfc_temp_111.txt.gz
Temp
65 67 67 67 66 64 63 61 61 61 61 61 62 63 63 64 64 64 65 64 67 70 72 73 72 71 71 70 69 69 69 69 69 68 68 67 67 68 67 66 66 66 66
65 66 66 66 65 64 62 62 61 60 60 60 62 64 64 63 64 64 65 64 64 67 70 71 72 71 71 71 69 69 68 68 68 68 68 67 67 67 65 66 65 65 65
64 65 65 65 65 63 62 61 60 60 59 60 60 61 62 62 63 64 64 64 64 63 66 69 70 70 71 71 69 68 68 68 68 67 67 66 67 66 66 65 65 65 65
65 64 64 64 63 63 63 61 61 61 62 61 59 60 61 61 62 64 64 63 63 66 64 66 68 69 69 70 70 70 69 68 68 67 67 66 67 66 65 64 64 64 65
65 64 63 63 63 62 62 62 62 62 61 61 61 60 60 60 62 64 63 63 62 62 62 64 65 66 67 69 70 70 69 68 68 68 67 67 67 66 65 64 64 64 64
65 64 63 62 62 62 62 62 61 63 63 62 62 61 61 59 61 62 62 63 62 61 61 61 62 62 64 67 68 69 70 69 68 68 68 67 67 66 65 64 64 64 64
64 64 63 62 62 62 62 62 63 62 61 61 59 59 60 59 60 61 62 61 61 61 60 60 59 62 64 65 67 69 70 70 69 68 68 68 66 65 65 64 64 64 64
65 64 63 62 62 62 62 63 62 61 61 61 58 58 55 56 58 59 60 60 60 62 61 61 60 60 64 65 65 67 69 69 69 69 68 68 66 65 65 65 64 64 64
65 65 64 64 62 63 62 63 62 62 59 60 61 58 53 52 55 57 58 58 58 60 61 61 59 59 59 60 61 63 62 62 67 69 69 67 66 66 65 65 65 65 65
64 65 65 64 63 63 63 63 62 62 61 59 60 62 58 57 54 51 56 57 58 58 59 60 60 59 59 59 60 59 57 57 60 66 68 68 67 66 66 65 65 65 65
64 64 64 64 63 64 64 63 62 62 62 61 60 60 58 57 58 55 53 54 57 58 60 60 60 60 59 59 57 58 56 55 57 61 64 66 67 67 66 66 65 65 65
63 64 64 63 63 63 62 63 63 62 62 61 61 61 60 58 57 57 55 55 55 57 59 60 59 60 59 59 60 57 55 54 55 58 60 63 65 66 66 66 66 66 65
61 62 63 62 62 63 63 63 62 62 61 61 61 60 62 60 61 61 58 56 55 54 55 59 60 60 60 59 60 56 55 52 53 55 57 59 61 62 64 65 65 66 66
64 62 62 63 63 62 62 61 61 61 62 61 61 61 60 59 60 60 59 57 52 54 54 55 59 59 60 60 60 55 59 51 51 52 54 56 57 58 59 60 62 63 64
61 61 62 61 61 61 61 60 60 60 60 61 60 61 60 59 59 59 59 60 57 51 52 55 55 59 60 60 59 59 59 55 51 50 51 52 54 56 56 57 58 59 60
60 60 60 60 59 59 59 59 59 59 59 60 60 59 59 59 59 58 58 57 57 55 52 59 59 57 60 61 59 60 60 56 50 49 49 49 51 53 53 54 55 55 57
59 59 59 59 59 58 58 58 59 59 59 59 59 59 59 59 58 58 57 57 56 55 55 55 59 58 57 58 58 58 58 57 58 49 48 48 48 48 48 49 48 50 51
60 60 59 58 58 58 58 58 57 58 58 58 59 59 58 58 57 58 57 55 56 55 54 53 55 56 57 57 58 57 58 60 60 53 48 48 48 47 46 44 44 45 46
59 59 59 58 58 58 57 58 58 57 58 59 58 59 58 58 57 56 56 55 55 56 55 54 55 56 57 57 57 57 57 57 58 45 42 42 43 43 43 43 44 44 44
59 59 59 59 58 58 58 58 57 57 57 58 59 59 59 58 58 57 57 56 56 55 55 55 55 54 55 56 56 55 54 55 54 48 43 42 42 42 42 42 42 42 43
59 59 58 58 58 58 54 57 57 57 57 56 56 57 58 56 51 54 57 57 56 55 55 54 54 52 52 51 53 54 54 53 48 48 44 42 41 40 40 41 41 41 41
43 48 48 48 46 44 38 39 46 57 56 56 56 56 56 49 48 45 44 46 53 55 54 54 54 52 52 53 52 53 53 51 47 41 41 36 39 36 37 38 39 40 40
35 36 38 40 39 38 39 40 41 50 48 46 47 52 46 44 44 42 37 37 36 35 35 52 53 52 49 46 46 46 47 48 44 37 41 32 34 32 35 37 38 38 38
33 33 33 35 36 36 36 37 37 39 37 36 37 39 40 41 41 40 38 35 34 34 34 36 35 33 33 35 39 41 43 36 34 33 35 31 31 30 32 33 35 37 37
32 32 32 33 34 34 36 36 36 35 33 33 34 35 36 38 38 39 36 32 31 31 34 35 34 34 34 34 36 37 34 35 32 31 31 33 30 28 30 30 32 35 36
31 32 31 32 32 33 34 35 35 34 32 32 32 33 34 35 35 35 34 32 29 29 30 30 30 30 31 31 30 30 33 33 31 30 30 32 30 28 26 30 30 30 29

GFSMA_sfc_temp_114.txt.gz
Temp
67 67 67 65 66 65 64 62 61 61 61 61 62 63 63 63 64 65 65 65 65 70 73 73 72 72 71 70 69 69 70 69 69 68 67 67 67 67 67 67 67 67 67
66 68 67 66 66 65 62 62 61 60 60 60 61 62 63 63 63 64 64 65 63 65 69 72 72 72 71 71 69 69 69 69 68 68 67 67 67 67 66 66 66 66 66
65 67 66 65 65 64 61 61 60 60 60 60 60 61 62 62 63 64 64 64 64 62 64 68 70 70 71 71 70 69 68 67 67 67 67 67 66 67 66 65 65 65 65
65 65 66 65 65 63 61 60 61 60 60 61 60 60 61 62 62 63 64 64 64 64 63 65 68 69 69 71 70 70 69 68 67 67 67 67 67 66 65 65 65 65 65
64 64 65 65 64 63 63 62 61 60 59 61 61 60 60 60 62 64 63 63 63 62 62 63 65 65 67 69 70 70 70 68 68 68 67 67 67 66 65 65 64 64 64
64 63 63 62 63 63 63 62 62 62 60 61 62 61 62 61 62 63 63 63 63 62 61 63 64 63 64 67 69 70 70 69 69 69 68 68 67 66 65 65 64 64 64
64 63 62 62 63 63 63 62 62 62 61 62 60 59 60 60 60 62 63 62 62 62 61 62 63 62 64 65 67 69 70 70 70 68 68 67 67 66 65 64 64 64 64
64 64 63 62 63 63 62 62 62 61 61 61 58 58 55 56 59 61 61 62 61 61 60 62 62 62 64 65 65 67 69 70 69 69 68 66 66 66 65 65 65 64 64
64 64 64 63 62 63 62 62 62 62 59 60 61 59 54 53 55 58 59 60 60 60 60 61 61 61 62 64 64 64 62 63 67 69 68 67 66 66 65 65 66 65 64
65 65 64 63 63 63 63 63 63 62 62 59 60 61 60 58 54 51 56 58 59 59 59 59 61 61 61 60 61 60 58 58 61 66 67 67 67 67 66 66 65 65 65
65 65 65 64 63 63 64 63 62 62 62 62 60 59 60 57 57 54 52 54 57 59 59 59 60 61 60 60 60 58 55 55 56 61 65 67 67 67 67 66 65 65 65
64 64 65 65 65 64 63 63 63 62 62 62 62 61 60 58 56 55 54 56 56 57 59 58 59 60 61 61 60 57 54 53 54 58 60 63 65 66 67 66 66 66 65
62 63 63 63 64 64 64 64 63 62 62 61 61 61 61 61 62 61 58 56 54 55 56 58 59 61 61 60 61 56 54 52 53 55 57 59 60 62 63 65 65 66 66
63 65 64 63 64 63 63 63 63 62 62 61 61 61 61 61 62 60 59 57 53 53 54 55 59 60 61 60 60 54 60 51 51 52 54 55 57 58 59 60 62 63 64
62 60 63 62 63 63 63 62 62 60 60 61 61 61 61 62 61 60 60 60 57 52 52 54 54 61 61 61 59 60 59 54 51 50 51 52 54 56 56 57 58 59 60
60 60 61 62 62 62 62 61 61 61 60 60 60 60 60 61 59 59 59 59 58 57 53 56 55 56 60 61 59 60 60 55 50 49 49 49 51 53 53 54 54 55 56
60 60 61 61 61 61 60 60 59 59 58 58 59 59 59 61 58 58 58 58 57 56 54 54 57 57 56 58 59 58 59 59 59 49 48 47 47 47 48 49 49 50 51
61 61 60 60 59 59 59 58 58 58 58 58 59 59 59 58 58 58 57 56 57 56 54 53 54 54 56 58 59 57 58 60 59 50 47 46 46 46 46 45 45 46 46
60 60 60 59 59 58 58 58 58 57 58 59 59 59 58 58 57 57 57 57 57 56 56 54 53 55 56 57 56 57 57 55 49 45 43 43 43 44 44 44 44 44 44
54 59 59 59 59 59 58 58 57 57 58 58 59 59 59 58 58 57 57 57 56 55 55 54 53 53 54 55 55 54 53 53 47 47 43 42 42 43 42 42 42 43 43
42 44 54 58 58 58 55 57 57 57 57 57 57 58 58 57 52 55 57 57 56 56 55 54 53 54 53 51 53 55 55 52 47 44 42 42 41 41 41 41 42 42 41
39 38 38 41 41 42 38 40 51 57 56 56 56 56 57 50 48 45 46 47 53 55 55 54 54 53 54 55 54 54 54 49 45 45 40 36 39 37 38 39 40 40 40
37 36 36 36 36 36 37 37 40 52 52 48 48 52 49 47 46 43 37 37 36 36 37 55 55 55 54 54 53 50 51 51 46 38 38 32 35 33 36 37 38 38 38
33 34 34 35 35 35 35 36 36 38 37 36 37 39 42 42 42 41 39 36 34 34 35 36 37 35 35 38 45 46 46 36 35 33 37 30 32 31 33 35 37 37 37
31 32 32 33 33 33 35 35 35 35 33 33 34 37 38 38 38 40 37 33 32 31 33 34 34 34 34 35 37 41 37 38 32 31 33 32 30 29 30 31 33 35 36
31 31 31 31 32 31 33 34 35 33 32 32 33 33 34 34 35 35 35 33 30 29 30 30 30 30 31 31 30 32 35 35 32 30 30 30 29 29 26 29 29 30 31

GFSMA_sfc_temp_117.txt.gz
Temp
70 73 74 75 75 73 73 73 75 73 72 73 73 74 75 74 74 73 73 65 66 69 71 73 72 72 71 70 70 70 70 69 69 69 68 68 67 68 68 67 66 66 66
70 71 71 72 73 73 69 73 74 72 72 72 72 73 74 74 74 74 73 69 64 65 68 71 73 72 71 71 70 70 70 69 69 68 68 67 67 66 66 66 67 67 67
70 70 69 70 72 71 68 72 71 71 71 71 72 72 73 73 73 71 72 72 67 64 64 66 68 71 71 71 70 69 69 68 68 68 68 67 67 66 66 65 66 66 66
71 70 69 69 71 67 67 69 67 68 70 70 70 71 72 73 73 73 71 70 70 68 63 64 66 68 69 71 70 71 69 68 68 68 67 67 67 66 66 65 65 66 66
71 69 69 68 67 67 66 67 65 68 66 69 69 69 69 71 71 72 69 69 69 69 66 63 63 65 67 69 70 71 70 69 68 68 67 67 67 66 65 65 66 65 65
69 70 68 68 67 66 64 66 66 68 69 71 67 66 66 67 69 67 68 69 70 69 67 63 64 66 64 67 69 70 71 70 69 69 68 68 67 66 66 65 65 65 65
69 69 67 66 66 65 65 65 65 64 65 69 64 62 63 64 64 64 65 65 67 68 67 63 64 68 70 65 67 69 71 71 70 69 69 68 67 66 65 65 65 65 65
69 69 67 65 65 65 64 64 64 62 63 65 61 60 56 60 61 64 65 64 65 65 64 62 63 68 69 72 70 67 70 71 70 70 69 67 66 66 66 65 65 65 65
69 69 68 67 66 65 64 64 64 64 61 62 63 62 56 55 59 62 62 63 63 62 63 64 61 64 70 71 68 66 62 64 68 69 68 67 66 66 66 66 66 65 65
69 70 69 68 66 66 65 64 64 64 65 61 61 64 64 62 58 54 58 61 62 61 62 63 61 62 68 70 66 63 59 58 61 66 68 68 67 66 66 66 66 66 65
68 69 68 67 66 66 67 66 65 64 65 66 63 61 64 63 64 57 54 57 59 62 63 62 62 62 65 68 69 66 58 57 57 62 65 67 67 66 66 66 66 66 66
66 67 68 67 67 67 68 67 66 65 65 65 64 63 63 60 58 57 56 56 57 59 61 61 60 61 63 66 67 60 55 54 55 58 61 64 66 66 66 66 66 67 66
65 66 66 65 66 67 66 68 67 66 65 63 63 62 64 64 67 65 60 58 55 57 58 60 60 62 63 67 70 58 55 52 53 55 57 59 61 63 64 65 66 67 67
66 67 65 66 66 66 66 66 66 65 65 64 64 63 64 67 65 63 60 59 54 55 56 61 60 63 61 65 67 55 67 51 51 53 54 56 57 58 59 61 62 63 64
67 66 66 65 65 65 65 64 64 64 63 63 63 63 63 64 63 63 63 60 57 52 53 59 57 60 61 62 64 67 67 56 51 51 51 53 55 56 56 57 58 59 61
66 65 65 64 64 64 64 64 64 64 62 62 62 62 62 63 63 62 61 60 59 57 54 60 58 59 61 62 63 66 67 57 50 49 49 50 51 53 54 54 55 56 57
63 63 63 63 63 62 63 62 63 63 62 61 61 61 62 64 62 62 61 61 59 58 55 56 59 58 58 59 60 63 66 65 66 48 48 48 48 48 49 50 51 52 53
63 63 62 62 62 63 63 62 61 61 61 60 60 60 60 61 62 62 60 58 58 58 57 53 55 55 56 58 59 59 63 65 66 49 47 47 47 46 46 46 47 47 48
51 59 62 61 61 61 61 61 61 60 60 60 60 60 61 63 60 60 58 57 57 57 57 55 54 56 56 57 57 60 64 64 55 46 43 43 44 44 44 44 45 44 44
44 46 47 57 60 59 59 59 60 60 60 60 62 61 64 61 60 58 57 59 57 56 56 55 55 55 56 56 58 57 56 54 52 51 44 44 44 43 43 43 43 43 43
42 43 42 42 43 42 41 42 51 58 59 59 60 61 61 59 52 55 58 58 57 56 55 54 54 53 54 53 54 58 56 52 48 46 42 42 42 42 42 42 43 42 42
39 39 39 40 38 40 37 38 40 51 58 58 57 59 60 51 51 45 45 47 55 56 56 55 55 54 54 55 55 54 54 48 46 44 41 38 41 39 40 41 40 40 41
36 36 36 37 36 36 36 37 39 40 44 49 50 52 54 50 49 47 38 38 37 37 38 57 55 55 55 56 55 53 54 53 51 43 39 33 36 34 37 38 39 39 39
33 33 33 34 34 34 35 36 36 36 35 35 36 38 41 43 42 43 41 37 35 35 36 37 39 38 37 41 52 55 55 46 36 35 38 32 33 32 34 36 38 38 37
32 32 32 32 32 32 35 35 37 36 35 33 33 34 36 36 36 40 38 34 32 32 34 35 34 35 35 35 35 42 39 40 33 33 34 32 31 30 32 32 34 35 35
32 33 32 32 32 32 33 34 34 34 33 32 32 32 33 33 34 35 36 35 31 31 31 31 30 30 31 31 31 32 36 39 33 32 32 30 30 30 27 29 30 31 30

GFSMA_sfc_temp_120.txt.gz
Temp
78 82 83 81 79 82 82 82 82 81 81 81 82 81 82 80 81 78 80 65 67 69 71 71 72 72 72 71 70 70 70 70 70 69 69 68 68 68 68 68 67 67 67
77 82 81 82 80 82 83 81 81 82 81 82 80 81 81 81 80 80 79 74 65 67 69 70 70 72 72 71 70 70 70 69 70 69 69 68 67 67 67 67 66 67 67
75 80 78 81 80 79 78 79 80 82 81 81 80 81 82 81 81 79 78 79 72 63 65 68 68 69 71 71 70 70 70 69 69 69 68 68 67 67 67 66 67 66 66
75 74 75 74 78 74 75 78 78 79 80 80 80 81 81 82 81 79 79 77 77 78 66 65 65 66 69 71 71 71 70 69 69 68 68 67 67 66 66 66 66 66 66
72 73 73 74 74 72 71 75 75 78 77 78 80 80 80 81 80 80 79 78 77 75 75 64 63 64 65 68 71 71 71 70 69 69 68 67 67 67 66 66 66 66 66
72 72 72 72 71 71 70 69 71 77 77 77 77 77 77 77 79 77 77 78 76 75 74 72 66 64 62 65 68 71 71 71 70 69 68 68 67 66 66 65 66 66 66
71 72 71 70 70 70 69 68 69 71 72 75 69 69 69 71 69 70 73 74 73 74 71 71 69 66 64 63 66 70 71 71 71 70 69 68 67 66 66 66 66 65 65
71 72 71 70 69 69 69 68 66 67 69 70 68 67 64 67 66 70 70 70 73 74 71 72 69 66 65 67 70 67 70 71 71 70 69 67 66 66 66 66 66 65 65
72 71 71 70 69 69 68 68 67 67 66 66 70 73 64 67 73 74 72 74 72 71 72 71 68 67 65 68 70 67 62 64 68 69 68 67 67 66 66 66 66 66 65
77 72 72 70 69 68 69 68 69 67 69 63 66 73 75 75 69 65 64 70 71 69 70 68 68 66 70 66 67 65 59 58 61 67 68 68 67 66 66 66 66 66 66
75 75 73 71 70 70 70 69 66 66 67 68 68 67 70 72 72 69 63 61 64 69 72 69 67 68 69 65 68 70 57 57 58 62 66 67 67 67 66 66 66 66 66
69 70 76 72 71 71 70 69 68 68 67 68 68 70 71 68 67 66 66 68 63 62 65 68 68 66 68 64 65 61 56 55 56 59 62 64 66 66 66 66 67 67 66
66 68 71 70 70 70 71 69 68 69 69 69 70 70 72 72 69 66 65 67 65 69 64 64 65 64 65 62 65 59 55 53 54 56 59 60 62 64 65 65 66 67 66
69 70 69 69 70 70 70 72 70 71 71 70 69 68 69 68 68 67 67 66 63 57 59 64 63 62 64 65 64 56 64 52 52 53 55 57 58 59 60 61 63 64 65
69 70 67 66 66 67 68 69 70 67 69 69 70 69 67 67 66 68 70 70 61 56 55 63 61 64 64 67 63 64 65 57 52 51 52 53 55 57 57 58 59 60 61
64 67 66 65 67 66 66 65 67 66 65 66 66 66 66 65 65 66 67 66 64 59 55 61 61 62 62 64 62 63 66 59 50 49 50 51 52 54 55 55 55 56 57
56 64 65 65 65 65 63 62 63 64 64 64 65 65 65 65 63 66 65 67 63 60 56 59 61 62 59 59 60 61 63 67 70 48 48 49 49 50 51 51 52 53 54
53 57 64 65 64 64 64 62 62 63 63 62 64 63 64 64 62 65 64 63 62 62 59 56 57 57 58 60 60 59 61 67 71 54 48 48 48 47 47 48 48 49 49
49 50 50 53 61 62 63 63 62 62 62 63 63 63 64 62 61 62 63 62 67 65 60 57 55 57 58 58 58 58 58 60 56 46 45 46 46 46 46 45 46 46 46
45 45 45 45 45 45 44 45 51 60 62 62 62 63 63 61 62 64 63 66 64 59 57 56 56 55 57 57 57 56 55 53 52 53 46 46 45 46 44 44 43 44 44
42 42 43 41 41 41 40 40 44 49 57 60 60 60 61 59 54 59 65 64 61 57 56 55 54 55 54 53 53 56 56 52 50 48 45 46 46 46 44 43 43 43 43
39 39 39 38 37 38 36 37 40 49 47 53 57 59 60 52 53 45 45 46 54 57 56 55 54 54 55 55 56 55 54 48 45 47 46 43 45 43 43 44 41 41 41
36 36 36 37 36 35 36 37 37 41 39 38 40 42 45 50 47 55 40 38 37 37 38 57 55 57 55 57 56 55 55 53 53 45 41 34 38 36 38 39 40 40 40
34 33 33 35 35 35 35 35 37 40 37 36 35 36 37 38 38 43 45 40 37 35 36 37 39 38 39 43 55 57 56 48 38 40 40 33 34 32 34 36 38 38 37
34 33 33 33 33 32 34 34 36 37 35 33 34 35 35 35 35 38 39 34 32 32 34 35 34 34 34 34 36 47 42 43 35 35 34 33 32 31 32 32 34 35 35
33 35 33 32 33 32 34 34 34 34 31 30 32 32 33 33 34 34 35 35 31 30 32 32 31 30 30 30 31 31 36 48 34 33 33 32 31 30 26 30 31 31 31

GFSMA_sfc_temp_123.txt.gz
Temp
81 82 82 82 79 80 82 79 81 79 77 78 81 81 79 77 80 82 76 66 67 69 71 72 70 70 71 71 71 71 71 70 70 70 69 69 68 68 68 68 67 68 68
81 81 82 82 81 80 80 80 77 77 81 81 77 79 80 79 78 79 77 74 66 67 69 71 71 71 72 72 70 70 70 70 70 70 69 68 68 67 67 67 67 68 67
81 84 79 80 77 81 77 77 77 79 77 78 78 78 79 77 77 78 78 76 74 63 66 69 69 69 69 72 70 70 70 69 69 69 69 68 68 67 67 67 67 67 67
78 81 83 82 79 76 79 77 78 78 76 75 76 77 80 77 76 76 76 77 75 78 66 65 67 68 68 70 71 71 70 69 69 69 68 68 68 67 67 67 66 66 66
75 78 83 80 81 79 77 77 78 77 75 74 75 77 77 78 76 78 76 76 75 76 75 65 64 65 66 68 70 71 72 70 70 69 68 68 67 67 66 66 66 66 67
74 74 75 74 76 75 71 76 75 77 76 74 77 75 75 74 75 73 74 77 78 75 75 72 70 68 63 65 68 70 72 71 70 70 69 68 67 67 66 66 66 66 67
72 73 74 74 73 73 73 72 73 75 74 76 74 70 75 76 75 78 79 79 78 76 75 73 70 71 67 63 66 69 71 72 71 70 69 68 67 66 66 66 66 66 67
72 74 72 72 71 72 70 71 71 71 73 74 71 68 64 67 72 73 75 75 75 78 75 72 71 69 71 69 67 66 68 70 71 71 69 68 66 66 66 66 66 66 66
72 72 73 71 70 71 70 71 70 70 70 73 72 71 65 67 75 75 71 73 74 73 75 73 70 71 71 71 66 64 61 63 68 70 69 67 66 66 66 66 66 66 66
74 72 72 71 70 70 69 71 72 71 70 65 66 72 76 77 72 70 74 75 74 72 73 73 70 70 72 70 67 64 59 58 61 67 68 68 67 66 66 66 66 66 66
79 74 72 71 69 69 70 71 70 71 72 69 66 69 70 75 75 70 68 67 74 75 74 73 71 72 71 71 69 68 57 57 58 63 66 67 67 67 66 66 66 66 66
78 78 75 72 71 70 69 70 70 70 70 70 69 72 72 71 71 69 68 70 67 71 74 76 72 71 71 68 68 62 56 54 56 59 62 65 66 66 66 66 66 67 66
71 76 77 74 71 70 70 70 69 68 70 67 68 70 75 74 75 73 70 71 68 72 69 72 73 73 71 70 70 59 56 53 54 57 59 61 63 64 65 65 66 66 66
69 72 73 73 72 71 70 69 69 68 69 67 69 71 74 74 75 73 72 67 63 67 70 66 72 72 71 70 67 56 63 51 52 53 55 57 59 60 61 62 63 64 65
64 70 71 69 69 68 68 69 67 71 70 69 70 71 71 73 74 74 72 70 67 60 64 70 68 73 70 65 63 63 66 57 51 51 52 54 56 57 58 58 59 61 62
59 59 68 70 67 66 67 67 67 68 67 67 68 70 70 72 72 72 70 69 66 64 63 72 69 72 68 63 63 64 65 58 51 50 50 51 52 54 55 56 56 57 58
54 55 61 66 66 66 64 64 64 65 65 64 64 66 66 69 68 66 66 68 65 64 61 67 70 70 67 65 64 62 63 63 61 50 49 49 49 50 52 52 53 54 55
51 50 52 52 59 64 65 63 62 63 64 65 65 64 65 65 64 65 65 64 64 65 65 58 64 62 63 64 62 60 61 62 62 52 48 49 49 48 49 49 49 50 50
45 46 46 45 45 45 45 46 48 59 62 63 64 63 64 63 63 63 63 63 64 63 65 60 61 63 62 62 59 59 59 60 59 49 47 46 47 47 47 47 48 48 48
41 41 43 42 42 41 41 42 45 48 51 58 62 62 63 63 62 62 62 62 63 63 65 61 60 57 57 59 58 57 55 57 50 50 45 46 45 45 46 46 45 46 46
40 40 41 39 39 39 39 39 43 48 50 50 53 61 62 60 53 56 61 61 61 60 60 58 56 55 55 54 54 56 56 52 48 47 44 45 45 45 44 45 45 45 44
38 38 38 38 37 38 36 38 40 42 42 41 41 45 47 50 46 45 47 45 53 59 58 56 56 54 55 56 56 55 54 48 46 47 45 41 45 42 43 44 43 42 43
36 35 35 36 35 36 36 36 38 38 37 36 36 37 40 42 40 42 44 39 37 36 35 52 56 56 56 57 56 54 54 52 52 45 42 35 38 36 39 40 40 40 40
35 35 34 34 34 34 35 36 36 37 35 34 34 34 34 36 37 38 43 38 35 34 35 37 37 35 35 36 47 58 56 50 40 43 41 33 34 32 35 38 40 40 39
35 34 34 34 34 34 35 34 38 35 33 32 33 33 33 33 34 36 38 34 33 32 33 34 34 34 33 34 34 45 43 44 35 36 35 34 32 31 32 32 34 37 37
34 36 34 33 34 33 34 34 35 35 33 32 32 31 32 32 33 33 34 34 32 30 31 31 31 31 31 30 31 31 32 44 35 33 33 32 31 31 27 31 31 32 33

GFSMA_sfc_temp_126.txt.gz
Temp
73 75 74 75 75 74 73 72 73 73 73 72 73 75 75 73 74 72 66 66 67 70 70 71 71 71 71 71 71 70 71 71 70 70 69 68 68 68 69 68 67 67 67
74 74 74 74 74 74 73 74 73 72 72 73 73 75 76 75 75 71 68 66 66 67 70 72 72 72 71 71 70 70 70 71 70 70 69 69 68 68 67 67 67 68 67
75 75 74 73 74 74 73 73 72 72 72 73 72 74 75 75 74 73 70 68 65 64 66 69 70 71 72 72 70 70 70 70 69 69 69 69 68 68 67 67 67 67 67
75 75 75 74 74 73 73 71 71 70 70 70 71 71 73 74 73 73 71 69 69 69 64 66 68 69 70 71 71 71 71 70 69 69 69 68 68 67 67 68 68 67 67
75 75 74 74 74 72 72 72 70 69 68 70 71 70 71 71 72 74 72 70 68 67 68 65 65 65 67 68 71 71 72 71 70 70 69 68 68 67 67 67 67 66 67
74 74 75 74 73 72 71 71 69 70 69 68 72 71 70 71 71 70 71 72 71 68 67 66 64 64 63 66 68 71 72 72 71 70 69 69 68 67 67 67 67 67 67
73 73 73 71 71 71 70 69 69 68 67 68 65 66 67 69 69 67 67 69 71 71 67 66 66 66 64 64 66 69 72 72 71 71 69 68 67 67 66 66 66 67 67
73 73 73 71 70 71 69 69 70 67 67 68 63 63 58 62 64 67 66 67 67 68 69 67 66 66 66 64 64 66 69 71 72 70 69 68 67 66 66 66 66 66 67
72 72 72 72 71 71 69 69 69 68 65 67 67 63 57 56 61 65 65 65 65 67 66 66 66 66 68 67 64 63 61 63 68 69 69 68 67 67 66 66 66 66 67
72 71 72 71 72 70 70 69 70 68 69 65 65 68 65 64 59 57 63 65 65 65 64 66 65 66 67 67 65 62 58 58 60 66 69 68 67 67 66 66 66 66 66
72 71 71 70 70 69 69 69 68 68 68 66 65 62 64 64 64 60 57 59 63 65 65 64 65 65 67 67 67 63 57 56 57 61 66 68 67 67 66 66 66 66 66
70 70 71 69 69 69 69 68 69 68 68 67 66 65 64 63 63 60 58 59 59 62 65 68 65 65 65 66 66 61 56 54 55 59 62 65 66 66 66 66 66 66 66
70 68 69 68 68 69 69 68 68 67 67 67 67 65 68 66 66 65 62 60 60 62 61 63 64 66 66 65 65 60 56 53 54 56 59 61 63 64 65 65 66 66 66
68 70 68 69 68 68 67 67 67 67 67 66 64 65 66 67 66 65 63 60 58 58 60 61 64 64 65 66 64 57 63 52 52 53 55 57 59 60 60 62 63 64 65
59 59 65 67 68 68 67 66 66 65 65 65 65 65 65 66 66 65 63 62 59 54 57 61 60 66 65 65 63 62 62 55 52 51 52 54 56 58 58 59 59 61 62
52 54 55 62 65 65 65 66 65 66 65 65 66 65 65 65 66 63 63 63 61 60 58 61 61 65 64 63 61 62 62 57 51 49 49 51 53 55 55 56 56 57 58
48 49 50 50 51 55 60 63 64 65 65 65 65 64 64 63 60 61 63 62 62 61 59 62 62 62 62 60 61 60 61 63 62 49 49 49 49 50 52 52 53 54 55
43 44 45 46 46 45 46 48 50 58 61 62 64 63 61 62 61 63 64 63 63 64 61 59 62 59 59 60 61 60 61 63 63 55 49 49 49 48 49 49 50 50 52
41 41 41 41 41 42 42 44 46 48 52 54 60 62 62 62 61 61 62 62 62 62 62 60 60 60 59 59 58 61 61 61 61 56 48 48 48 48 47 48 48 49 49
39 40 39 39 39 39 40 42 46 48 48 49 49 50 51 53 58 62 62 63 62 61 61 60 59 60 58 58 58 58 56 58 51 51 47 48 49 47 47 47 47 47 47
37 38 37 36 37 38 38 39 43 42 41 41 43 43 45 43 41 41 46 56 61 60 60 59 58 56 55 54 55 56 56 56 49 47 45 45 46 47 47 45 47 46 45
36 36 36 35 34 36 36 37 38 39 38 37 36 38 42 40 39 39 40 39 39 50 57 56 56 55 55 56 56 55 55 48 47 46 45 42 44 42 43 44 43 43 43
35 34 35 35 33 34 35 37 37 36 35 34 33 34 36 37 36 38 40 38 36 35 32 41 50 53 54 55 56 54 54 51 52 46 43 36 37 35 38 40 41 42 42
34 33 33 34 33 34 35 36 37 36 34 33 32 33 33 33 34 36 39 36 34 33 33 34 32 32 32 33 36 48 55 52 42 43 42 34 34 32 35 38 40 40 40
34 33 33 33 32 32 35 35 35 35 34 33 33 33 32 32 33 34 35 34 33 32 34 34 34 34 33 34 33 39 42 43 35 36 35 34 32 31 32 32 35 39 39
33 34 33 32 33 31 34 35 34 33 31 32 32 32 33 32 33 33 31 30 28 28 29 31 32 32 32 32 32 31 32 36 35 33 34 32 31 31 27 30 31 32 33